Time,TemperatureF,DewpointF,PressureIn,WindDirection,WindDirectionDegrees,WindSpeedMPH,WindSpeedGustMPH,Humidity,HourlyPrecipIn,Conditions,Clouds,dailyrainin,SoftwareType,DateUTC
2013-09-07 00:00:00,97.8,45.7,0.00,South,180,3.6,5.8,17,0.00,,---,0.00,VWS V14.01,2013-09-07 05:00:00,
2013-09-07 00:01:00,97.8,45.7,0.00,South,180,2.7,5.8,17,0.00,,---,0.00,VWS V14.01,2013-09-07 05:01:00,
2013-09-07 00:02:00,98.0,45.8,0.00,SE,135,3.1,5.8,17,0.00,,---,0.00,VWS V14.01,2013-09-07 05:02:00,
2013-09-07 00:04:00,98.4,46.1,0.00,South,180,2.9,5.8,17,0.00,,---,0.00,VWS V14.01,2013-09-07 05:04:00,
2013-09-07 00:05:00,98.9,45.0,0.00,SW,225,4.7,5.8,16,0.00,,---,0.00,VWS V14.01,2013-09-07 05:05:00,
2013-09-07 00:06:00,98.9,45.0,0.00,SW,225,3.4,5.8,16,0.00,,---,0.00,VWS V14.01,2013-09-07 05:06:00,
2013-09-07 00:07:00,98.9,43.3,0.00,West,270,3.6,5.8,15,0.00,,---,0.00,VWS V14.01,2013-09-07 05:07:00,
2013-09-07 00:08:00,98.7,44.8,0.00,West,270,3.8,5.8,16,0.00,,---,0.00,VWS V14.01,2013-09-07 05:08:00,
2013-09-07 00:09:00,98.7,44.8,0.00,SW,225,1.6,5.8,16,0.00,,---,0.00,VWS V14.01,2013-09-07 05:09:00,
2013-09-07 00:10:00,98.9,46.5,0.00,South,180,6.0,6.0,17,0.00,,---,0.00,VWS V14.01,2013-09-07 05:10:00,
2013-09-07 00:11:00,98.4,46.1,0.00,South,180,4.3,6.3,17,0.00,,---,0.00,VWS V14.01,2013-09-07 05:11:00,
2013-09-07 00:12:00,98.4,46.1,0.00,SSE,158,3.8,6.3,17,0.00,,---,0.00,VWS V14.01,2013-09-07 05:12:00,
2013-09-07 00:13:00,98.6,46.3,0.00,South,180,3.6,8.1,17,0.00,,---,0.00,VWS V14.01,2013-09-07 05:13:00,
2013-09-07 00:14:00,98.6,46.3,0.00,SE,135,2.2,8.1,17,0.00,,---,0.00,VWS V14.01,2013-09-07 05:14:00,
2013-09-07 00:15:00,98.9,46.5,0.00,SE,135,7.4,8.1,17,0.00,,---,0.00,VWS V14.01,2013-09-07 05:15:00,
2013-09-07 00:16:00,98.7,46.4,0.00,SE,135,6.5,8.1,17,0.00,,---,0.00,VWS V14.01,2013-09-07 05:16:00,
2013-09-07 00:17:00,98.7,46.4,0.00,SE,135,5.4,8.1,17,0.00,,---,0.00,VWS V14.01,2013-09-07 05:17:00,
2013-09-07 00:19:00,98.7,46.4,0.00,South,180,5.8,8.1,17,0.00,,---,0.00,VWS V14.01,2013-09-07 05:19:00,
2013-09-07 00:20:00,98.0,44.2,0.00,SW,225,6.0,8.1,16,0.00,,---,0.00,VWS V14.01,2013-09-07 05:20:00,
2013-09-07 00:21:00,98.0,44.2,0.00,SW,225,2.7,8.1,16,0.00,,---,0.00,VWS V14.01,2013-09-07 05:21:00,
2013-09-07 00:22:00,98.6,44.7,0.00,South,180,4.0,8.1,16,0.00,,---,0.00,VWS V14.01,2013-09-07 05:22:00,
2013-09-07 00:23:00,98.6,44.7,0.00,South,180,6.0,8.1,16,0.00,,---,0.00,VWS V14.01,2013-09-07 05:23:00,
2013-09-07 00:24:00,98.6,39.3,0.00,SW,225,4.9,8.1,13,0.00,,---,0.00,VWS V14.01,2013-09-07 05:24:00,
2013-09-07 00:25:00,98.6,43.0,0.00,South,180,3.8,8.1,15,0.00,,---,0.00,VWS V14.01,2013-09-07 05:25:00,
2013-09-07 00:26:00,97.8,26.6,0.00,SW,225,2.0,8.1,8,0.00,,---,0.00,VWS V14.01,2013-09-07 05:26:00,
2013-09-07 00:27:00,98.0,34.6,0.00,SSE,158,5.8,8.1,11,0.00,,---,0.00,VWS V14.01,2013-09-07 05:27:00,
2013-09-07 00:28:00,98.0,34.6,0.00,SW,225,4.3,8.1,11,0.00,,---,0.00,VWS V14.01,2013-09-07 05:28:00,
2013-09-07 00:29:00,98.0,34.6,0.00,SW,225,4.3,8.1,11,0.00,,---,0.00,VWS V14.01,2013-09-07 05:29:00,
2013-09-07 00:30:00,97.8,26.6,0.00,South,180,5.6,8.1,8,0.00,,---,0.00,VWS V14.01,2013-09-07 05:30:00,
2013-09-07 00:31:00,97.5,34.2,0.00,SSE,158,7.2,7.2,11,0.00,,---,0.00,VWS V14.01,2013-09-07 05:31:00,
2013-09-07 00:32:00,97.7,26.5,0.00,South,180,5.4,7.2,8,0.00,,---,0.00,VWS V14.01,2013-09-07 05:32:00,
2013-09-07 00:33:00,97.5,26.4,0.00,South,180,2.5,7.2,8,0.00,,---,0.00,VWS V14.01,2013-09-07 05:33:00,
2013-09-07 00:34:00,97.7,19.7,0.00,SE,135,3.8,7.2,6,0.00,,---,0.00,VWS V14.01,2013-09-07 05:34:00,
2013-09-07 00:35:00,97.8,26.6,0.00,South,180,6.3,7.2,8,0.00,,---,0.00,VWS V14.01,2013-09-07 05:35:00,
2013-09-07 00:36:00,97.8,38.7,0.00,SSE,158,4.7,7.2,13,0.00,,---,0.00,VWS V14.01,2013-09-07 05:36:00,
2013-09-07 00:37:00,98.2,15.8,0.00,SE,135,6.3,7.2,5,0.00,,---,0.00,VWS V14.01,2013-09-07 05:37:00,
2013-09-07 00:38:00,98.0,4.3,0.00,SW,225,5.4,8.7,3,0.00,,---,0.00,VWS V14.01,2013-09-07 05:38:00,
2013-09-07 00:39:00,98.0,4.3,0.00,South,180,2.5,8.7,3,0.00,,---,0.00,VWS V14.01,2013-09-07 05:39:00,
2013-09-07 00:40:00,98.2,15.8,0.00,South,180,7.6,8.7,5,0.00,,---,0.00,VWS V14.01,2013-09-07 05:40:00,
2013-09-07 00:41:00,98.2,15.8,0.00,South,180,7.4,8.7,5,0.00,,---,0.00,VWS V14.01,2013-09-07 05:41:00,
2013-09-07 00:42:00,98.0,4.3,0.00,SE,135,6.3,10.5,3,0.00,,---,0.00,VWS V14.01,2013-09-07 05:42:00,
2013-09-07 00:43:00,98.0,4.3,0.00,South,180,5.4,10.5,3,0.00,,---,0.00,VWS V14.01,2013-09-07 05:43:00,
2013-09-07 00:44:00,98.0,19.9,0.00,South,180,5.8,10.5,6,0.00,,---,0.00,VWS V14.01,2013-09-07 05:44:00,
2013-09-07 00:46:00,98.0,19.9,0.00,South,180,7.2,10.5,6,0.00,,---,0.00,VWS V14.01,2013-09-07 05:46:00,
2013-09-07 00:48:00,97.7,26.5,0.00,South,180,3.4,10.5,8,0.00,,---,0.00,VWS V14.01,2013-09-07 05:48:00,
2013-09-07 00:49:00,97.8,19.8,0.00,SW,225,5.4,10.5,6,0.00,,---,0.00,VWS V14.01,2013-09-07 05:49:00,
2013-09-07 00:50:00,97.8,19.8,0.00,South,180,4.9,10.5,6,0.00,,---,0.00,VWS V14.01,2013-09-07 05:50:00,
2013-09-07 00:51:00,97.8,19.8,0.00,SW,225,4.7,10.5,6,0.00,,---,0.00,VWS V14.01,2013-09-07 05:51:00,
2013-09-07 00:52:00,98.6,27.2,0.00,South,180,5.8,10.5,8,0.00,,---,0.00,VWS V14.01,2013-09-07 05:52:00,
2013-09-07 00:53:00,99.3,27.7,0.00,SE,135,6.0,10.5,8,0.00,,---,0.00,VWS V14.01,2013-09-07 05:53:00,
2013-09-07 00:54:00,99.5,27.8,0.00,SE,135,5.4,10.5,8,0.00,,---,0.00,VWS V14.01,2013-09-07 05:54:00,
2013-09-07 00:55:00,99.8,40.3,0.00,SE,135,4.0,10.5,13,0.00,,---,0.00,VWS V14.01,2013-09-07 05:55:00,
2013-09-07 00:56:00,99.5,33.3,0.00,South,180,5.8,10.5,10,0.00,,---,0.00,VWS V14.01,2013-09-07 05:56:00,
2013-09-07 00:57:00,99.6,28.0,0.00,SSE,158,4.0,10.5,8,0.00,,---,0.00,VWS V14.01,2013-09-07 05:57:00,
2013-09-07 00:58:00,99.8,33.6,0.00,South,180,6.0,10.5,10,0.00,,---,0.00,VWS V14.01,2013-09-07 05:58:00,
2013-09-07 00:59:00,99.6,16.8,0.00,South,180,5.8,10.5,5,0.00,,---,0.00,VWS V14.01,2013-09-07 05:59:00,
2013-09-07 01:00:00,99.8,17.0,0.00,SW,225,3.1,10.5,5,0.00,,---,0.00,VWS V14.01,2013-09-07 06:00:00,
2013-09-07 01:01:00,100.2,28.4,0.00,SW,225,2.0,3.1,8,0.00,,---,0.00,VWS V14.01,2013-09-07 06:01:00,
2013-09-07 01:02:00,100.5,6.0,0.00,WNW,292,0.9,4.3,3,0.00,,---,0.00,VWS V14.01,2013-09-07 06:02:00,
2013-09-07 01:03:00,100.7,17.6,0.00,SSE,158,4.7,4.7,5,0.00,,---,0.00,VWS V14.01,2013-09-07 06:03:00,
2013-09-07 01:04:00,100.7,6.1,0.00,SSE,158,5.4,7.2,3,0.00,,---,0.00,VWS V14.01,2013-09-07 06:04:00,
2013-09-07 01:05:00,101.1,6.3,0.00,SSE,158,2.9,7.2,3,0.00,,---,0.00,VWS V14.01,2013-09-07 06:05:00,
2013-09-07 01:06:00,101.3,6.4,0.00,SE,135,7.6,7.6,3,0.00,,---,0.00,VWS V14.01,2013-09-07 06:06:00,
2013-09-07 01:07:00,101.3,6.4,0.00,South,180,4.9,7.6,3,0.00,,---,0.00,VWS V14.01,2013-09-07 06:07:00,
2013-09-07 01:08:00,101.3,6.4,0.00,SW,225,3.4,7.6,3,0.00,,---,0.00,VWS V14.01,2013-09-07 06:08:00,
2013-09-07 01:09:00,101.3,6.4,0.00,SSE,158,4.3,7.6,3,0.00,,---,0.00,VWS V14.01,2013-09-07 06:09:00,
2013-09-07 01:10:00,101.3,6.4,0.00,SE,135,4.3,7.6,3,0.00,,---,0.00,VWS V14.01,2013-09-07 06:10:00,
2013-09-07 01:11:00,101.3,6.4,0.00,South,180,2.7,7.6,3,0.00,,---,0.00,VWS V14.01,2013-09-07 06:11:00,
2013-09-07 01:12:00,101.3,6.4,0.00,South,180,2.7,7.6,3,0.00,,---,0.00,VWS V14.01,2013-09-07 06:12:00,
2013-09-07 01:13:00,101.3,6.4,0.00,East,90,0.9,7.6,3,0.00,,---,0.00,VWS V14.01,2013-09-07 06:13:00,
2013-09-07 01:14:00,101.3,6.4,0.00,WNW,292,2.5,7.6,3,0.00,,---,0.00,VWS V14.01,2013-09-07 06:14:00,
2013-09-07 01:15:00,103.1,7.6,0.00,North,0,1.6,7.6,3,0.00,,---,0.00,VWS V14.01,2013-09-07 06:15:00,
2013-09-07 01:16:00,103.1,7.6,0.00,North,0,2.2,2.2,3,0.00,,---,0.00,VWS V14.01,2013-09-07 06:16:00,
2013-09-07 01:17:00,103.8,8.1,0.00,North,0,1.1,2.2,3,0.00,,---,0.00,VWS V14.01,2013-09-07 06:17:00,
2013-09-07 01:18:00,104.1,8.3,0.00,West,270,0.9,2.2,3,0.00,,---,0.00,VWS V14.01,2013-09-07 06:18:00,
2013-09-07 01:20:00,104.3,8.4,0.00,West,270,2.7,2.9,3,0.00,,---,0.00,VWS V14.01,2013-09-07 06:20:00,
2013-09-07 01:21:00,104.7,8.7,0.00,West,270,4.3,6.0,3,0.00,,---,0.00,VWS V14.01,2013-09-07 06:21:00,
2013-09-07 01:22:00,104.3,8.4,0.00,West,270,2.7,6.0,3,0.00,,---,0.00,VWS V14.01,2013-09-07 06:22:00,
2013-09-07 01:23:00,104.3,8.4,0.00,NW,315,4.0,6.0,3,0.00,,---,0.00,VWS V14.01,2013-09-07 06:23:00,
2013-09-07 01:24:00,104.3,8.4,0.00,West,270,3.8,6.0,3,0.00,,---,0.00,VWS V14.01,2013-09-07 06:24:00,
2013-09-07 01:25:00,104.1,8.3,0.00,WSW,248,3.8,6.3,3,0.00,,---,0.00,VWS V14.01,2013-09-07 06:25:00,
2013-09-07 01:26:00,104.3,8.4,0.00,South,180,2.5,6.3,3,0.00,,---,0.00,VWS V14.01,2013-09-07 06:26:00,
2013-09-07 01:27:00,104.3,8.4,0.00,SW,225,6.5,6.5,3,0.00,,---,0.00,VWS V14.01,2013-09-07 06:27:00,
2013-09-07 01:28:00,104.3,8.4,0.00,South,180,3.1,6.5,3,0.00,,---,0.00,VWS V14.01,2013-09-07 06:28:00,
2013-09-07 01:29:00,103.2,7.8,0.00,SE,135,4.7,7.8,3,0.00,,---,0.00,VWS V14.01,2013-09-07 06:29:00,
2013-09-07 01:30:00,103.2,7.8,0.00,SE,135,4.7,7.8,3,0.00,,---,0.00,VWS V14.01,2013-09-07 06:30:00,
2013-09-07 01:31:00,103.6,8.0,0.00,SE,135,5.4,5.6,3,0.00,,---,0.00,VWS V14.01,2013-09-07 06:31:00,
2013-09-07 01:32:00,103.8,8.1,0.00,SW,225,5.4,6.0,3,0.00,,---,0.00,VWS V14.01,2013-09-07 06:32:00,
2013-09-07 01:33:00,103.6,8.0,0.00,SW,225,3.8,6.5,3,0.00,,---,0.00,VWS V14.01,2013-09-07 06:33:00,
2013-09-07 01:34:00,103.6,8.0,0.00,South,180,7.6,7.6,3,0.00,,---,0.00,VWS V14.01,2013-09-07 06:34:00,
2013-09-07 01:36:00,103.2,7.8,0.00,West,270,3.4,7.6,3,0.00,,---,0.00,VWS V14.01,2013-09-07 06:36:00,
2013-09-07 01:37:00,103.4,7.9,0.00,NW,315,3.6,7.6,3,0.00,,---,0.00,VWS V14.01,2013-09-07 06:37:00,
2013-09-07 01:38:00,103.6,8.0,0.00,NW,315,3.8,7.6,3,0.00,,---,0.00,VWS V14.01,2013-09-07 06:38:00,
2013-09-07 01:39:00,103.8,8.1,0.00,West,270,2.9,7.6,3,0.00,,---,0.00,VWS V14.01,2013-09-07 06:39:00,
2013-09-07 01:40:00,103.6,8.0,0.00,NW,315,5.4,7.6,3,0.00,,---,0.00,VWS V14.01,2013-09-07 06:40:00,
2013-09-07 01:41:00,103.6,8.0,0.00,WNW,292,4.5,7.6,3,0.00,,---,0.00,VWS V14.01,2013-09-07 06:41:00,
2013-09-07 01:42:00,103.8,8.1,0.00,West,270,4.0,7.6,3,0.00,,---,0.00,VWS V14.01,2013-09-07 06:42:00,
2013-09-07 01:43:00,104.0,8.2,0.00,SE,135,3.4,7.6,3,0.00,,---,0.00,VWS V14.01,2013-09-07 06:43:00,
2013-09-07 01:44:00,104.0,8.2,0.00,SW,225,3.1,7.6,3,0.00,,---,0.00,VWS V14.01,2013-09-07 06:44:00,
2013-09-07 01:45:00,104.0,8.2,0.00,South,180,4.0,7.6,3,0.00,,---,0.00,VWS V14.01,2013-09-07 06:45:00,
2013-09-07 01:46:00,104.9,8.8,0.00,SE,135,4.0,4.9,3,0.00,,---,0.00,VWS V14.01,2013-09-07 06:46:00,
2013-09-07 01:47:00,104.9,8.8,0.00,SE,135,6.0,6.0,3,0.00,,---,0.00,VWS V14.01,2013-09-07 06:47:00,
2013-09-07 01:48:00,105.0,8.9,0.00,SE,135,4.9,6.3,3,0.00,,---,0.00,VWS V14.01,2013-09-07 06:48:00,
2013-09-07 01:49:00,105.2,9.1,0.00,SE,135,4.9,6.3,3,0.00,,---,0.00,VWS V14.01,2013-09-07 06:49:00,
2013-09-07 01:51:00,105.2,9.1,0.00,East,90,3.4,6.3,3,0.00,,---,0.00,VWS V14.01,2013-09-07 06:51:00,
2013-09-07 01:53:00,105.6,9.3,0.00,ESE,112,5.4,6.3,3,0.00,,---,0.00,VWS V14.01,2013-09-07 06:53:00,
2013-09-07 01:54:00,105.9,9.5,0.00,SE,135,3.4,6.3,3,0.00,,---,0.00,VWS V14.01,2013-09-07 06:54:00,
2013-09-07 01:55:00,106.1,9.6,0.00,SW,225,2.7,6.3,3,0.00,,---,0.00,VWS V14.01,2013-09-07 06:55:00,
2013-09-07 01:56:00,105.6,9.3,0.00,West,270,3.1,6.3,3,0.00,,---,0.00,VWS V14.01,2013-09-07 06:56:00,
2013-09-07 01:57:00,105.4,9.2,0.00,West,270,4.0,6.3,3,0.00,,---,0.00,VWS V14.01,2013-09-07 06:57:00,
2013-09-07 01:58:00,105.4,9.2,0.00,West,270,4.9,6.3,3,0.00,,---,0.00,VWS V14.01,2013-09-07 06:58:00,
2013-09-07 01:59:00,105.2,9.1,0.00,West,270,5.8,6.3,3,0.00,,---,0.00,VWS V14.01,2013-09-07 06:59:00,
2013-09-07 02:00:00,104.9,8.8,0.00,West,270,3.1,6.3,3,0.00,,---,0.00,VWS V14.01,2013-09-07 07:00:00,
2013-09-07 02:01:00,104.9,8.8,0.00,WNW,292,2.9,3.1,3,0.00,,---,0.00,VWS V14.01,2013-09-07 07:01:00,
2013-09-07 02:02:00,104.9,8.8,0.00,NW,315,2.9,3.4,3,0.00,,---,0.00,VWS V14.01,2013-09-07 07:02:00,
2013-09-07 02:03:00,104.9,8.8,0.00,SW,225,7.2,7.2,3,0.00,,---,0.00,VWS V14.01,2013-09-07 07:03:00,
2013-09-07 02:04:00,104.9,8.8,0.00,SW,225,7.2,7.2,3,0.00,,---,0.00,VWS V14.01,2013-09-07 07:04:00,
2013-09-07 02:05:00,105.2,9.1,0.00,NW,315,3.6,7.2,3,0.00,,---,0.00,VWS V14.01,2013-09-07 07:05:00,
2013-09-07 02:06:00,105.2,9.1,0.00,SW,225,5.8,7.2,3,0.00,,---,0.00,VWS V14.01,2013-09-07 07:06:00,
2013-09-07 02:07:00,105.2,9.1,0.00,West,270,5.4,7.2,3,0.00,,---,0.00,VWS V14.01,2013-09-07 07:07:00,
2013-09-07 02:08:00,105.0,8.9,0.00,WSW,248,3.8,7.2,3,0.00,,---,0.00,VWS V14.01,2013-09-07 07:08:00,
2013-09-07 02:09:00,105.4,9.2,0.00,NW,315,4.7,7.2,3,0.00,,---,0.00,VWS V14.01,2013-09-07 07:09:00,
2013-09-07 02:10:00,105.4,9.2,0.00,SW,225,6.0,7.2,3,0.00,,---,0.00,VWS V14.01,2013-09-07 07:10:00,
2013-09-07 02:11:00,105.6,9.3,0.00,SW,225,2.9,7.2,3,0.00,,---,0.00,VWS V14.01,2013-09-07 07:11:00,
2013-09-07 02:12:00,105.8,9.4,0.00,SW,225,3.8,7.2,3,0.00,,---,0.00,VWS V14.01,2013-09-07 07:12:00,
2013-09-07 02:13:00,72.8,40.5,0.00,West,270,3.1,5.4,31,0.00,,---,0.00,VWS V14.01,2013-09-07 07:13:00,
2013-09-07 02:14:00,106.1,9.6,0.00,NW,315,4.3,7.2,3,0.00,,---,0.00,VWS V14.01,2013-09-07 07:14:00,
2013-09-07 02:16:00,105.9,9.5,0.00,SW,225,4.3,7.2,3,0.00,,---,0.00,VWS V14.01,2013-09-07 07:16:00,
2013-09-07 02:17:00,107.0,10.2,0.00,NW,315,0.0,7.2,3,0.00,,---,0.00,VWS V14.01,2013-09-07 07:17:00,
2013-09-07 02:18:00,107.2,10.4,0.00,NW,315,1.6,7.2,3,0.00,,---,0.00,VWS V14.01,2013-09-07 07:18:00,
2013-09-07 02:19:00,107.6,10.6,0.00,West,270,0.0,7.2,3,0.00,,---,0.00,VWS V14.01,2013-09-07 07:19:00,
2013-09-07 02:20:00,107.6,10.6,0.00,SW,225,1.6,7.2,3,0.00,,---,0.00,VWS V14.01,2013-09-07 07:20:00,
2013-09-07 02:22:00,107.6,10.6,0.00,SW,225,3.6,7.2,3,0.00,,---,0.00,VWS V14.01,2013-09-07 07:22:00,
2013-09-07 02:23:00,107.9,10.8,0.00,South,180,0.0,7.2,3,0.00,,---,0.00,VWS V14.01,2013-09-07 07:23:00,
2013-09-07 02:24:00,107.4,10.5,0.00,South,180,8.1,9.6,3,0.00,,---,0.00,VWS V14.01,2013-09-07 07:24:00,
2013-09-07 02:25:00,107.0,10.2,0.00,South,180,5.6,9.6,3,0.00,,---,0.00,VWS V14.01,2013-09-07 07:25:00,
2013-09-07 02:26:00,107.0,10.2,0.00,SE,135,5.8,9.6,3,0.00,,---,0.00,VWS V14.01,2013-09-07 07:26:00,
2013-09-07 02:27:00,107.0,10.2,0.00,SE,135,3.1,9.6,3,0.00,,---,0.00,VWS V14.01,2013-09-07 07:27:00,
2013-09-07 02:28:00,107.9,10.8,0.00,SE,135,3.8,9.6,3,0.00,,---,0.00,VWS V14.01,2013-09-07 07:28:00,
2013-09-07 02:29:00,107.9,10.8,0.00,West,270,2.9,9.6,3,0.00,,---,0.00,VWS V14.01,2013-09-07 07:29:00,
2013-09-07 02:30:00,107.9,10.8,0.00,SW,225,6.5,9.6,3,0.00,,---,0.00,VWS V14.01,2013-09-07 07:30:00,
2013-09-07 02:31:00,107.2,10.4,0.00,South,180,4.0,6.5,3,0.00,,---,0.00,VWS V14.01,2013-09-07 07:31:00,
2013-09-07 02:32:00,107.0,10.2,0.00,SW,225,5.6,6.5,3,0.00,,---,0.00,VWS V14.01,2013-09-07 07:32:00,
2013-09-07 02:33:00,106.5,9.9,0.00,SW,225,7.6,10.1,3,0.00,,---,0.00,VWS V14.01,2013-09-07 07:33:00,
2013-09-07 02:34:00,106.5,9.9,0.00,SW,225,4.9,10.1,3,0.00,,---,0.00,VWS V14.01,2013-09-07 07:34:00,
2013-09-07 02:35:00,106.5,9.9,0.00,SW,225,7.2,10.1,3,0.00,,---,0.00,VWS V14.01,2013-09-07 07:35:00,
2013-09-07 02:36:00,106.5,9.9,0.00,SW,225,8.1,10.1,3,0.00,,---,0.00,VWS V14.01,2013-09-07 07:36:00,
2013-09-07 02:37:00,106.1,9.6,0.00,SW,225,6.5,10.1,3,0.00,,---,0.00,VWS V14.01,2013-09-07 07:37:00,
2013-09-07 02:38:00,105.8,9.4,0.00,SW,225,4.3,10.1,3,0.00,,---,0.00,VWS V14.01,2013-09-07 07:38:00,
2013-09-07 02:39:00,105.0,8.9,0.00,South,180,12.1,12.1,3,0.00,,---,0.00,VWS V14.01,2013-09-07 07:39:00,
2013-09-07 02:40:00,105.0,8.9,0.00,South,180,8.5,12.1,3,0.00,,---,0.00,VWS V14.01,2013-09-07 07:40:00,
2013-09-07 02:41:00,104.9,8.8,0.00,South,180,7.4,12.1,3,0.00,,---,0.00,VWS V14.01,2013-09-07 07:41:00,
2013-09-07 02:43:00,104.9,8.8,0.00,South,180,7.4,12.1,3,0.00,,---,0.00,VWS V14.01,2013-09-07 07:43:00,
2013-09-07 02:44:00,104.9,8.8,0.00,SW,225,4.0,12.1,3,0.00,,---,0.00,VWS V14.01,2013-09-07 07:44:00,
2013-09-07 02:47:00,106.8,10.1,0.00,NW,315,1.3,3.6,3,0.00,,---,0.00,VWS V14.01,2013-09-07 07:47:00,
2013-09-07 02:49:00,107.2,10.4,0.00,NW,315,0.0,3.6,3,0.00,,---,0.00,VWS V14.01,2013-09-07 07:49:00,
2013-09-07 02:50:00,107.9,10.8,0.00,East,90,2.7,3.6,3,0.00,,---,0.00,VWS V14.01,2013-09-07 07:50:00,
2013-09-07 02:51:00,107.9,10.8,0.00,South,180,4.3,4.3,3,0.00,,---,0.00,VWS V14.01,2013-09-07 07:51:00,
2013-09-07 02:52:00,107.9,10.8,0.00,South,180,3.4,4.3,3,0.00,,---,0.00,VWS V14.01,2013-09-07 07:52:00,
2013-09-07 02:53:00,107.9,10.8,0.00,SW,225,3.8,4.3,3,0.00,,---,0.00,VWS V14.01,2013-09-07 07:53:00,
2013-09-07 02:55:00,107.7,10.7,0.00,West,270,5.8,6.5,3,0.00,,---,0.00,VWS V14.01,2013-09-07 07:55:00,
2013-09-07 02:56:00,107.2,10.4,0.00,South,180,6.3,6.5,3,0.00,,---,0.00,VWS V14.01,2013-09-07 07:56:00,
2013-09-07 02:57:00,107.2,10.4,0.00,NW,315,4.9,6.5,3,0.00,,---,0.00,VWS V14.01,2013-09-07 07:57:00,
2013-09-07 02:58:00,107.2,10.4,0.00,West,270,2.5,6.5,3,0.00,,---,0.00,VWS V14.01,2013-09-07 07:58:00,
2013-09-07 02:59:00,107.2,10.4,0.00,NW,315,2.0,6.5,3,0.00,,---,0.00,VWS V14.01,2013-09-07 07:59:00,
2013-09-07 03:00:00,107.2,10.4,0.00,NW,315,2.0,6.5,3,0.00,,---,0.00,VWS V14.01,2013-09-07 08:00:00,
2013-09-07 03:01:00,107.2,10.4,0.00,SE,135,3.4,3.4,3,0.00,,---,0.00,VWS V14.01,2013-09-07 08:01:00,
2013-09-07 03:02:00,107.2,10.4,0.00,SE,135,3.4,3.4,3,0.00,,---,0.00,VWS V14.01,2013-09-07 08:02:00,
2013-09-07 03:03:00,107.2,10.4,0.00,West,270,7.4,7.4,3,0.00,,---,0.00,VWS V14.01,2013-09-07 08:03:00,
2013-09-07 03:05:00,106.8,10.1,0.00,South,180,4.0,7.4,3,0.00,,---,0.00,VWS V14.01,2013-09-07 08:05:00,
2013-09-07 03:06:00,105.9,9.5,0.00,SW,225,7.6,10.5,3,0.00,,---,0.00,VWS V14.01,2013-09-07 08:06:00,
2013-09-07 03:07:00,105.4,9.2,0.00,SW,225,6.3,10.5,3,0.00,,---,0.00,VWS V14.01,2013-09-07 08:07:00,
2013-09-07 03:08:00,105.6,9.3,0.00,North,0,2.2,10.5,3,0.00,,---,0.00,VWS V14.01,2013-09-07 08:08:00,
2013-09-07 03:10:00,105.8,9.4,0.00,West,270,4.3,10.5,3,0.00,,---,0.00,VWS V14.01,2013-09-07 08:10:00,
2013-09-07 03:11:00,106.3,9.8,0.00,SW,225,6.0,10.5,3,0.00,,---,0.00,VWS V14.01,2013-09-07 08:11:00,
2013-09-07 03:12:00,105.9,9.5,0.00,SSE,158,7.8,10.5,3,0.00,,---,0.00,VWS V14.01,2013-09-07 08:12:00,
2013-09-07 03:13:00,105.8,9.4,0.00,South,180,6.3,10.5,3,0.00,,---,0.00,VWS V14.01,2013-09-07 08:13:00,
2013-09-07 03:14:00,105.6,9.3,0.00,SSE,158,6.3,10.5,3,0.00,,---,0.00,VWS V14.01,2013-09-07 08:14:00,
2013-09-07 03:15:00,105.4,9.2,0.00,SE,135,5.6,10.5,3,0.00,,---,0.00,VWS V14.01,2013-09-07 08:15:00,
2013-09-07 03:16:00,105.4,9.2,0.00,SW,225,6.0,8.7,3,0.00,,---,0.00,VWS V14.01,2013-09-07 08:16:00,
2013-09-07 03:17:00,105.2,9.1,0.00,South,180,8.5,8.7,3,0.00,,---,0.00,VWS V14.01,2013-09-07 08:17:00,
2013-09-07 03:18:00,105.2,9.1,0.00,SE,135,6.0,9.6,3,0.00,,---,0.00,VWS V14.01,2013-09-07 08:18:00,
2013-09-07 03:19:00,105.4,9.2,0.00,SSE,158,4.9,9.6,3,0.00,,---,0.00,VWS V14.01,2013-09-07 08:19:00,
2013-09-07 03:20:00,105.6,9.3,0.00,SW,225,4.7,9.6,3,0.00,,---,0.00,VWS V14.01,2013-09-07 08:20:00,
2013-09-07 03:21:00,105.8,9.4,0.00,SE,135,6.3,9.6,3,0.00,,---,0.00,VWS V14.01,2013-09-07 08:21:00,
2013-09-07 03:22:00,105.6,9.3,0.00,ESE,112,3.8,9.6,3,0.00,,---,0.00,VWS V14.01,2013-09-07 08:22:00,
2013-09-07 03:24:00,106.1,9.6,0.00,SSE,158,9.8,9.8,3,0.00,,---,0.00,VWS V14.01,2013-09-07 08:24:00,
2013-09-07 03:25:00,106.1,9.6,0.00,South,180,5.6,9.8,3,0.00,,---,0.00,VWS V14.01,2013-09-07 08:25:00,
2013-09-07 03:27:00,106.1,9.6,0.00,South,180,3.8,10.1,3,0.00,,---,0.00,VWS V14.01,2013-09-07 08:27:00,
2013-09-07 03:28:00,105.9,9.5,0.00,SSE,158,0.9,10.1,3,0.00,,---,0.00,VWS V14.01,2013-09-07 08:28:00,
2013-09-07 03:29:00,105.9,9.5,0.00,SSE,158,0.9,10.1,3,0.00,,---,0.00,VWS V14.01,2013-09-07 08:29:00,
2013-09-07 03:30:00,106.5,9.9,0.00,SE,135,2.0,10.1,3,0.00,,---,0.00,VWS V14.01,2013-09-07 08:30:00,
2013-09-07 03:32:00,106.8,10.1,0.00,SW,225,5.4,5.4,3,0.00,,---,0.00,VWS V14.01,2013-09-07 08:32:00,
2013-09-07 03:33:00,106.5,9.9,0.00,SW,225,6.0,6.0,3,0.00,,---,0.00,VWS V14.01,2013-09-07 08:33:00,
2013-09-07 03:35:00,106.5,9.9,0.00,SSE,158,4.3,8.5,3,0.00,,---,0.00,VWS V14.01,2013-09-07 08:35:00,
2013-09-07 03:36:00,106.7,10.0,0.00,South,180,6.0,8.5,3,0.00,,---,0.00,VWS V14.01,2013-09-07 08:36:00,
2013-09-07 03:37:00,106.7,10.0,0.00,SW,225,3.8,8.5,3,0.00,,---,0.00,VWS V14.01,2013-09-07 08:37:00,
2013-09-07 03:38:00,106.3,9.8,0.00,West,270,6.3,8.5,3,0.00,,---,0.00,VWS V14.01,2013-09-07 08:38:00,
2013-09-07 03:39:00,106.5,9.9,0.00,SW,225,5.6,8.5,3,0.00,,---,0.00,VWS V14.01,2013-09-07 08:39:00,
2013-09-07 03:40:00,106.1,9.6,0.00,South,180,7.8,8.5,3,0.00,,---,0.00,VWS V14.01,2013-09-07 08:40:00,
2013-09-07 03:41:00,105.4,9.2,0.00,South,180,12.3,13.0,3,0.00,,---,0.00,VWS V14.01,2013-09-07 08:41:00,
2013-09-07 03:42:00,105.2,9.1,0.00,South,180,6.3,13.0,3,0.00,,---,0.00,VWS V14.01,2013-09-07 08:42:00,
2013-09-07 03:43:00,105.6,9.3,0.00,NW,315,4.9,13.0,3,0.00,,---,0.00,VWS V14.01,2013-09-07 08:43:00,
2013-09-07 03:44:00,105.9,9.5,0.00,SW,225,4.9,13.0,3,0.00,,---,0.00,VWS V14.01,2013-09-07 08:44:00,
2013-09-07 03:45:00,106.1,9.6,0.00,South,180,11.0,13.0,3,0.00,,---,0.00,VWS V14.01,2013-09-07 08:45:00,
2013-09-07 03:46:00,105.4,9.2,0.00,SE,135,5.4,11.0,3,0.00,,---,0.00,VWS V14.01,2013-09-07 08:46:00,
2013-09-07 03:47:00,105.4,9.2,0.00,SW,225,8.5,11.0,3,0.00,,---,0.00,VWS V14.01,2013-09-07 08:47:00,
2013-09-07 03:48:00,105.2,9.1,0.00,South,180,7.6,11.0,3,0.00,,---,0.00,VWS V14.01,2013-09-07 08:48:00,
2013-09-07 03:49:00,105.2,9.1,0.00,South,180,12.8,13.2,3,0.00,,---,0.00,VWS V14.01,2013-09-07 08:49:00,
2013-09-07 03:50:00,104.9,8.8,0.00,South,180,5.8,13.2,3,0.00,,---,0.00,VWS V14.01,2013-09-07 08:50:00,
2013-09-07 03:51:00,105.0,8.9,0.00,South,180,7.8,13.2,3,0.00,,---,0.00,VWS V14.01,2013-09-07 08:51:00,
2013-09-07 03:52:00,104.9,8.8,0.00,South,180,8.1,13.2,3,0.00,,---,0.00,VWS V14.01,2013-09-07 08:52:00,
2013-09-07 03:53:00,104.9,8.8,0.00,South,180,5.4,13.2,3,0.00,,---,0.00,VWS V14.01,2013-09-07 08:53:00,
2013-09-07 03:54:00,105.0,8.9,0.00,South,180,5.6,13.2,3,0.00,,---,0.00,VWS V14.01,2013-09-07 08:54:00,
2013-09-07 03:55:00,105.0,8.9,0.00,SSE,158,10.3,13.2,3,0.00,,---,0.00,VWS V14.01,2013-09-07 08:55:00,
2013-09-07 03:56:00,105.0,8.9,0.00,SSE,158,10.3,13.2,3,0.00,,---,0.00,VWS V14.01,2013-09-07 08:56:00,
2013-09-07 03:57:00,105.4,9.2,0.00,SW,225,4.0,13.2,3,0.00,,---,0.00,VWS V14.01,2013-09-07 08:57:00,
2013-09-07 03:59:00,105.4,9.2,0.00,SW,225,5.8,13.2,3,0.00,,---,0.00,VWS V14.01,2013-09-07 08:59:00,
2013-09-07 04:00:00,105.6,9.3,0.00,SSW,202,5.8,13.2,3,0.00,,---,0.00,VWS V14.01,2013-09-07 09:00:00,
2013-09-07 04:01:00,105.6,9.3,0.00,South,180,6.3,6.3,3,0.00,,---,0.00,VWS V14.01,2013-09-07 09:01:00,
2013-09-07 04:02:00,105.6,9.3,0.00,NW,315,2.7,6.3,3,0.00,,---,0.00,VWS V14.01,2013-09-07 09:02:00,
2013-09-07 04:03:00,106.1,9.6,0.00,West,270,3.6,6.3,3,0.00,,---,0.00,VWS V14.01,2013-09-07 09:03:00,
2013-09-07 04:04:00,106.3,9.8,0.00,SW,225,7.4,7.4,3,0.00,,---,0.00,VWS V14.01,2013-09-07 09:04:00,
2013-09-07 04:05:00,105.9,9.5,0.00,SW,225,8.5,10.3,3,0.00,,---,0.00,VWS V14.01,2013-09-07 09:05:00,
2013-09-07 04:06:00,105.9,9.5,0.00,SSW,202,6.0,10.3,3,0.00,,---,0.00,VWS V14.01,2013-09-07 09:06:00,
2013-09-07 04:08:00,105.6,9.3,0.00,SW,225,7.8,10.3,3,0.00,,---,0.00,VWS V14.01,2013-09-07 09:08:00,
2013-09-07 04:09:00,106.1,9.6,0.00,SE,135,3.4,10.3,3,0.00,,---,0.00,VWS V14.01,2013-09-07 09:09:00,
2013-09-07 04:10:00,106.1,9.6,0.00,South,180,2.9,10.3,3,0.00,,---,0.00,VWS V14.01,2013-09-07 09:10:00,
2013-09-07 04:11:00,107.0,10.2,0.00,SW,225,4.0,10.3,3,0.00,,---,0.00,VWS V14.01,2013-09-07 09:11:00,
2013-09-07 04:12:00,107.0,10.2,0.00,South,180,6.5,10.3,3,0.00,,---,0.00,VWS V14.01,2013-09-07 09:12:00,
2013-09-07 04:13:00,107.0,10.2,0.00,SW,225,9.8,10.3,3,0.00,,---,0.00,VWS V14.01,2013-09-07 09:13:00,
2013-09-07 04:14:00,106.5,9.9,0.00,SW,225,3.6,10.3,3,0.00,,---,0.00,VWS V14.01,2013-09-07 09:14:00,
2013-09-07 04:15:00,106.3,9.8,0.00,SW,225,8.7,8.7,3,0.00,,---,0.00,VWS V14.01,2013-09-07 09:15:00,
2013-09-07 04:16:00,106.3,9.8,0.00,South,180,6.0,8.7,3,0.00,,---,0.00,VWS V14.01,2013-09-07 09:16:00,
2013-09-07 04:17:00,105.8,9.4,0.00,South,180,6.0,8.7,3,0.00,,---,0.00,VWS V14.01,2013-09-07 09:17:00,
2013-09-07 04:18:00,105.8,9.4,0.00,South,180,7.6,8.7,3,0.00,,---,0.00,VWS V14.01,2013-09-07 09:18:00,
2013-09-07 04:19:00,105.9,9.5,0.00,West,270,2.5,8.7,3,0.00,,---,0.00,VWS V14.01,2013-09-07 09:19:00,
2013-09-07 04:20:00,105.9,9.5,0.00,South,180,5.4,8.7,3,0.00,,---,0.00,VWS V14.01,2013-09-07 09:20:00,
2013-09-07 04:21:00,106.5,9.9,0.00,NW,315,2.7,8.7,3,0.00,,---,0.00,VWS V14.01,2013-09-07 09:21:00,
2013-09-07 04:22:00,106.7,10.0,0.00,SW,225,3.4,8.7,3,0.00,,---,0.00,VWS V14.01,2013-09-07 09:22:00,
2013-09-07 04:23:00,106.7,10.0,0.00,SW,225,3.4,8.7,3,0.00,,---,0.00,VWS V14.01,2013-09-07 09:23:00,
2013-09-07 04:24:00,106.7,10.0,0.00,South,180,6.3,8.7,3,0.00,,---,0.00,VWS V14.01,2013-09-07 09:24:00,
2013-09-07 04:25:00,105.8,9.4,0.00,SE,135,5.4,10.5,3,0.00,,---,0.00,VWS V14.01,2013-09-07 09:25:00,
2013-09-07 04:26:00,105.8,9.4,0.00,SW,225,4.0,10.5,3,0.00,,---,0.00,VWS V14.01,2013-09-07 09:26:00,
2013-09-07 04:27:00,105.8,9.4,0.00,SW,225,4.0,10.5,3,0.00,,---,0.00,VWS V14.01,2013-09-07 09:27:00,
2013-09-07 04:28:00,65.6,38.7,0.00,North,0,3.1,3.8,37,0.00,,---,0.00,VWS V14.01,2013-09-07 09:28:00,
2013-09-07 04:29:00,106.5,9.9,0.00,SW,225,4.9,10.5,3,0.00,,---,0.00,VWS V14.01,2013-09-07 09:29:00,
2013-09-07 04:30:00,106.5,9.9,0.00,South,180,6.3,10.5,3,0.00,,---,0.00,VWS V14.01,2013-09-07 09:30:00,
2013-09-07 04:31:00,106.5,9.9,0.00,South,180,5.4,6.3,3,0.00,,---,0.00,VWS V14.01,2013-09-07 09:31:00,
2013-09-07 04:32:00,106.5,9.9,0.00,South,180,2.7,6.3,3,0.00,,---,0.00,VWS V14.01,2013-09-07 09:32:00,
2013-09-07 04:33:00,106.5,9.9,0.00,South,180,3.1,6.3,3,0.00,,---,0.00,VWS V14.01,2013-09-07 09:33:00,
2013-09-07 04:34:00,106.5,9.9,0.00,SW,225,6.3,7.6,3,0.00,,---,0.00,VWS V14.01,2013-09-07 09:34:00,
2013-09-07 04:35:00,104.7,8.7,0.00,SW,225,10.3,11.2,3,0.00,,---,0.00,VWS V14.01,2013-09-07 09:35:00,
2013-09-07 04:36:00,103.8,8.1,0.00,SW,225,9.6,12.3,3,0.00,,---,0.00,VWS V14.01,2013-09-07 09:36:00,
2013-09-07 04:37:00,103.8,8.1,0.00,West,270,5.4,12.3,3,0.00,,---,0.00,VWS V14.01,2013-09-07 09:37:00,
2013-09-07 04:38:00,103.4,7.9,0.00,West,270,5.4,12.3,3,0.00,,---,0.00,VWS V14.01,2013-09-07 09:38:00,
2013-09-07 04:39:00,103.6,8.0,0.00,NW,315,3.1,12.3,3,0.00,,---,0.00,VWS V14.01,2013-09-07 09:39:00,
2013-09-07 04:40:00,104.0,8.2,0.00,SW,225,5.6,12.3,3,0.00,,---,0.00,VWS V14.01,2013-09-07 09:40:00,
2013-09-07 04:41:00,104.1,8.3,0.00,SW,225,5.6,12.3,3,0.00,,---,0.00,VWS V14.01,2013-09-07 09:41:00,
2013-09-07 04:42:00,104.7,8.7,0.00,NW,315,2.7,12.3,3,0.00,,---,0.00,VWS V14.01,2013-09-07 09:42:00,
2013-09-07 04:43:00,105.0,8.9,0.00,SW,225,2.2,12.3,3,0.00,,---,0.00,VWS V14.01,2013-09-07 09:43:00,
2013-09-07 04:44:00,105.2,9.1,0.00,West,270,3.4,12.3,3,0.00,,---,0.00,VWS V14.01,2013-09-07 09:44:00,
2013-09-07 04:45:00,105.2,9.1,0.00,West,270,3.4,12.3,3,0.00,,---,0.00,VWS V14.01,2013-09-07 09:45:00,
2013-09-07 04:46:00,105.2,9.1,0.00,West,270,2.5,3.6,3,0.00,,---,0.00,VWS V14.01,2013-09-07 09:46:00,
2013-09-07 04:47:00,105.6,9.3,0.00,NE,45,2.2,3.6,3,0.00,,---,0.00,VWS V14.01,2013-09-07 09:47:00,
2013-09-07 04:48:00,105.9,9.5,0.00,West,270,3.8,3.8,3,0.00,,---,0.00,VWS V14.01,2013-09-07 09:48:00,
2013-09-07 04:49:00,106.1,9.6,0.00,SW,225,2.7,3.8,3,0.00,,---,0.00,VWS V14.01,2013-09-07 09:49:00,
2013-09-07 04:50:00,106.1,9.6,0.00,West,270,2.5,3.8,3,0.00,,---,0.00,VWS V14.01,2013-09-07 09:50:00,
2013-09-07 04:51:00,106.3,9.8,0.00,West,270,1.3,3.8,3,0.00,,---,0.00,VWS V14.01,2013-09-07 09:51:00,
2013-09-07 04:52:00,106.5,9.9,0.00,SE,135,6.0,6.0,3,0.00,,---,0.00,VWS V14.01,2013-09-07 09:52:00,
2013-09-07 04:53:00,106.7,10.0,0.00,South,180,3.8,6.0,3,0.00,,---,0.00,VWS V14.01,2013-09-07 09:53:00,
2013-09-07 04:54:00,106.3,9.8,0.00,South,180,4.0,6.0,3,0.00,,---,0.00,VWS V14.01,2013-09-07 09:54:00,
2013-09-07 04:55:00,105.0,8.9,0.00,South,180,7.6,7.6,3,0.00,,---,0.00,VWS V14.01,2013-09-07 09:55:00,
2013-09-07 04:56:00,105.0,8.9,0.00,South,180,10.5,10.5,3,0.00,,---,0.00,VWS V14.01,2013-09-07 09:56:00,
2013-09-07 04:57:00,105.0,8.9,0.00,South,180,10.5,10.5,3,0.00,,---,0.00,VWS V14.01,2013-09-07 09:57:00,
2013-09-07 04:58:00,102.7,7.4,0.00,South,180,6.5,10.5,3,0.00,,---,0.00,VWS V14.01,2013-09-07 09:58:00,
2013-09-07 04:59:00,102.7,7.4,0.00,South,180,6.0,10.5,3,0.00,,---,0.00,VWS V14.01,2013-09-07 09:59:00,
2013-09-07 05:00:00,102.7,7.4,0.00,SE,135,4.9,10.5,3,0.00,,---,0.00,VWS V14.01,2013-09-07 10:00:00,
2013-09-07 05:01:00,103.1,7.6,0.00,South,180,12.3,13.0,3,0.00,,---,0.00,VWS V14.01,2013-09-07 10:01:00,
2013-09-07 05:02:00,103.2,7.8,0.00,South,180,4.9,13.0,3,0.00,,---,0.00,VWS V14.01,2013-09-07 10:02:00,
2013-09-07 05:03:00,103.6,8.0,0.00,SSW,202,4.0,13.0,3,0.00,,---,0.00,VWS V14.01,2013-09-07 10:03:00,
2013-09-07 05:04:00,103.6,8.0,0.00,South,180,7.6,13.0,3,0.00,,---,0.00,VWS V14.01,2013-09-07 10:04:00,
2013-09-07 05:05:00,103.6,8.0,0.00,SW,225,5.8,13.0,3,0.00,,---,0.00,VWS V14.01,2013-09-07 10:05:00,
2013-09-07 05:06:00,103.8,8.1,0.00,SSW,202,12.3,13.0,3,0.00,,---,0.00,VWS V14.01,2013-09-07 10:06:00,
2013-09-07 05:07:00,103.6,8.0,0.00,South,180,11.2,13.0,3,0.00,,---,0.00,VWS V14.01,2013-09-07 10:07:00,
2013-09-07 05:08:00,103.4,7.9,0.00,South,180,5.8,13.0,3,0.00,,---,0.00,VWS V14.01,2013-09-07 10:08:00,
2013-09-07 05:09:00,103.4,7.9,0.00,SW,225,6.0,13.0,3,0.00,,---,0.00,VWS V14.01,2013-09-07 10:09:00,
2013-09-07 05:10:00,103.6,8.0,0.00,South,180,8.5,13.0,3,0.00,,---,0.00,VWS V14.01,2013-09-07 10:10:00,
2013-09-07 05:11:00,103.6,8.0,0.00,South,180,8.5,13.0,3,0.00,,---,0.00,VWS V14.01,2013-09-07 10:11:00,
2013-09-07 05:12:00,103.6,8.0,0.00,SSW,202,5.6,13.0,3,0.00,,---,0.00,VWS V14.01,2013-09-07 10:12:00,
2013-09-07 05:14:00,103.2,7.8,0.00,South,180,11.0,13.0,3,0.00,,---,0.00,VWS V14.01,2013-09-07 10:14:00,
2013-09-07 05:15:00,103.2,7.8,0.00,South,180,6.5,13.0,3,0.00,,---,0.00,VWS V14.01,2013-09-07 10:15:00,
2013-09-07 05:16:00,103.2,7.8,0.00,SE,135,13.0,13.0,3,0.00,,---,0.00,VWS V14.01,2013-09-07 10:16:00,
2013-09-07 05:17:00,103.2,7.8,0.00,SE,135,12.5,13.0,3,0.00,,---,0.00,VWS V14.01,2013-09-07 10:17:00,
2013-09-07 05:18:00,103.4,7.9,0.00,SE,135,10.1,13.4,3,0.00,,---,0.00,VWS V14.01,2013-09-07 10:18:00,
2013-09-07 05:19:00,103.4,7.9,0.00,SE,135,10.1,13.4,3,0.00,,---,0.00,VWS V14.01,2013-09-07 10:19:00,
2013-09-07 05:20:00,103.6,8.0,0.00,SE,135,5.4,13.4,3,0.00,,---,0.00,VWS V14.01,2013-09-07 10:20:00,
2013-09-07 05:22:00,103.8,8.1,0.00,SE,135,5.4,13.4,3,0.00,,---,0.00,VWS V14.01,2013-09-07 10:22:00,
2013-09-07 05:23:00,103.8,8.1,0.00,SE,135,7.6,13.4,3,0.00,,---,0.00,VWS V14.01,2013-09-07 10:23:00,
2013-09-07 05:24:00,103.8,8.1,0.00,ESE,112,9.8,13.4,3,0.00,,---,0.00,VWS V14.01,2013-09-07 10:24:00,
2013-09-07 05:25:00,103.6,8.0,0.00,East,90,8.1,13.4,3,0.00,,---,0.00,VWS V14.01,2013-09-07 10:25:00,
2013-09-07 05:26:00,103.4,7.9,0.00,SE,135,12.1,13.4,3,0.00,,---,0.00,VWS V14.01,2013-09-07 10:26:00,
2013-09-07 05:27:00,103.4,7.9,0.00,SE,135,8.1,13.4,3,0.00,,---,0.00,VWS V14.01,2013-09-07 10:27:00,
2013-09-07 05:28:00,103.2,7.8,0.00,SE,135,8.1,13.4,3,0.00,,---,0.00,VWS V14.01,2013-09-07 10:28:00,
2013-09-07 05:29:00,103.2,7.8,0.00,SE,135,9.8,13.4,3,0.00,,---,0.00,VWS V14.01,2013-09-07 10:29:00,
2013-09-07 05:30:00,103.2,7.8,0.00,SE,135,7.8,13.4,3,0.00,,---,0.00,VWS V14.01,2013-09-07 10:30:00,
2013-09-07 05:31:00,103.1,7.6,0.00,SE,135,8.5,8.7,3,0.00,,---,0.00,VWS V14.01,2013-09-07 10:31:00,
2013-09-07 05:32:00,103.1,7.6,0.00,ESE,112,4.9,8.7,3,0.00,,---,0.00,VWS V14.01,2013-09-07 10:32:00,
2013-09-07 05:33:00,103.2,7.8,0.00,South,180,4.0,8.7,3,0.00,,---,0.00,VWS V14.01,2013-09-07 10:33:00,
2013-09-07 05:34:00,103.2,7.8,0.00,South,180,4.0,8.7,3,0.00,,---,0.00,VWS V14.01,2013-09-07 10:34:00,
2013-09-07 05:35:00,103.1,7.6,0.00,SSE,158,5.6,8.7,3,0.00,,---,0.00,VWS V14.01,2013-09-07 10:35:00,
2013-09-07 05:36:00,103.2,7.8,0.00,South,180,5.4,8.7,3,0.00,,---,0.00,VWS V14.01,2013-09-07 10:36:00,
2013-09-07 05:37:00,103.2,7.8,0.00,SE,135,7.6,10.3,3,0.00,,---,0.00,VWS V14.01,2013-09-07 10:37:00,
2013-09-07 05:38:00,103.4,7.9,0.00,SSE,158,6.5,10.3,3,0.00,,---,0.00,VWS V14.01,2013-09-07 10:38:00,
2013-09-07 05:39:00,103.6,8.0,0.00,South,180,14.5,14.5,3,0.00,,---,0.00,VWS V14.01,2013-09-07 10:39:00,
2013-09-07 05:40:00,103.1,7.6,0.00,South,180,3.8,14.5,3,0.00,,---,0.00,VWS V14.01,2013-09-07 10:40:00,
2013-09-07 05:41:00,103.1,7.6,0.00,SW,225,6.3,14.5,3,0.00,,---,0.00,VWS V14.01,2013-09-07 10:41:00,
2013-09-07 05:42:00,103.1,7.6,0.00,SSE,158,11.0,14.5,3,0.00,,---,0.00,VWS V14.01,2013-09-07 10:42:00,
2013-09-07 05:43:00,102.9,7.5,0.00,South,180,7.8,14.5,3,0.00,,---,0.00,VWS V14.01,2013-09-07 10:43:00,
2013-09-07 05:44:00,102.9,7.5,0.00,South,180,6.3,14.5,3,0.00,,---,0.00,VWS V14.01,2013-09-07 10:44:00,
2013-09-07 05:45:00,102.7,7.4,0.00,SW,225,7.6,14.5,3,0.00,,---,0.00,VWS V14.01,2013-09-07 10:45:00,
2013-09-07 05:46:00,102.7,7.4,0.00,South,180,6.5,7.6,3,0.00,,---,0.00,VWS V14.01,2013-09-07 10:46:00,
2013-09-07 05:47:00,102.5,7.3,0.00,South,180,7.8,10.1,3,0.00,,---,0.00,VWS V14.01,2013-09-07 10:47:00,
2013-09-07 05:48:00,102.5,7.3,0.00,South,180,6.3,10.1,3,0.00,,---,0.00,VWS V14.01,2013-09-07 10:48:00,
2013-09-07 05:49:00,102.7,7.4,0.00,SW,225,2.9,10.1,3,0.00,,---,0.00,VWS V14.01,2013-09-07 10:49:00,
2013-09-07 05:50:00,102.9,7.5,0.00,South,180,2.0,10.1,3,0.00,,---,0.00,VWS V14.01,2013-09-07 10:50:00,
2013-09-07 05:51:00,103.1,7.6,0.00,South,180,3.4,10.1,3,0.00,,---,0.00,VWS V14.01,2013-09-07 10:51:00,
2013-09-07 05:52:00,103.2,7.8,0.00,South,180,5.4,10.1,3,0.00,,---,0.00,VWS V14.01,2013-09-07 10:52:00,
2013-09-07 05:53:00,103.1,7.6,0.00,SW,225,5.8,10.1,3,0.00,,---,0.00,VWS V14.01,2013-09-07 10:53:00,
2013-09-07 05:54:00,102.9,7.5,0.00,South,180,13.6,13.6,3,0.00,,---,0.00,VWS V14.01,2013-09-07 10:54:00,
2013-09-07 05:55:00,102.2,7.0,0.00,SE,135,13.2,16.1,3,0.00,,---,0.00,VWS V14.01,2013-09-07 10:55:00,
2013-09-07 05:56:00,102.0,6.9,0.00,SE,135,9.8,16.1,3,0.00,,---,0.00,VWS V14.01,2013-09-07 10:56:00,
2013-09-07 05:57:00,102.0,6.9,0.00,South,180,15.2,16.1,3,0.00,,---,0.00,VWS V14.01,2013-09-07 10:57:00,
2013-09-07 05:58:00,101.4,6.6,0.00,South,180,8.1,16.1,3,0.00,,---,0.00,VWS V14.01,2013-09-07 10:58:00,
2013-09-07 05:59:00,101.4,6.6,0.00,South,180,8.1,16.1,3,0.00,,---,0.00,VWS V14.01,2013-09-07 10:59:00,
2013-09-07 06:00:00,101.4,6.6,0.00,SSW,202,8.1,16.1,3,0.00,,---,0.00,VWS V14.01,2013-09-07 11:00:00,
2013-09-07 06:01:00,101.4,6.6,0.00,South,180,8.1,8.7,3,0.00,,---,0.00,VWS V14.01,2013-09-07 11:01:00,
2013-09-07 06:02:00,101.4,6.6,0.00,South,180,10.7,13.0,3,0.00,,---,0.00,VWS V14.01,2013-09-07 11:02:00,
2013-09-07 06:03:00,100.9,6.2,0.00,South,180,7.6,13.0,3,0.00,,---,0.00,VWS V14.01,2013-09-07 11:03:00,
2013-09-07 06:04:00,100.9,6.2,0.00,South,180,7.4,13.0,3,0.00,,---,0.00,VWS V14.01,2013-09-07 11:04:00,
2013-09-07 06:05:00,100.5,6.0,0.00,SW,225,5.4,13.0,3,0.00,,---,0.00,VWS V14.01,2013-09-07 11:05:00,
2013-09-07 06:06:00,62.0,44.2,0.00,West,270,0.0,2.7,52,0.00,,---,0.00,VWS V14.01,2013-09-07 11:06:00,
2013-09-07 06:07:00,100.0,5.6,0.00,South,180,8.1,13.0,3,0.00,,---,0.00,VWS V14.01,2013-09-07 11:07:00,
2013-09-07 06:08:00,99.3,5.1,0.00,South,180,8.1,13.0,3,0.00,,---,0.00,VWS V14.01,2013-09-07 11:08:00,
2013-09-07 06:09:00,98.4,4.5,0.00,South,180,7.4,13.0,3,0.00,,---,0.00,VWS V14.01,2013-09-07 11:09:00,
2013-09-07 06:11:00,98.4,4.5,0.00,South,180,8.1,13.0,3,0.00,,---,0.00,VWS V14.01,2013-09-07 11:11:00,
2013-09-07 06:12:00,97.3,3.8,0.00,South,180,12.1,13.2,3,0.00,,---,0.00,VWS V14.01,2013-09-07 11:12:00,
2013-09-07 06:13:00,97.5,4.0,0.00,South,180,10.7,13.2,3,0.00,,---,0.00,VWS V14.01,2013-09-07 11:13:00,
2013-09-07 06:14:00,97.5,4.0,0.00,SE,135,11.0,13.2,3,0.00,,---,0.00,VWS V14.01,2013-09-07 11:14:00,
2013-09-07 06:15:00,97.7,4.1,0.00,SSE,158,10.5,13.2,3,0.00,,---,0.00,VWS V14.01,2013-09-07 11:15:00,
2013-09-07 06:16:00,97.8,4.2,0.00,SE,135,7.6,12.3,3,0.00,,---,0.00,VWS V14.01,2013-09-07 11:16:00,
2013-09-07 06:17:00,98.0,4.3,0.00,SSE,158,9.6,12.3,3,0.00,,---,0.00,VWS V14.01,2013-09-07 11:17:00,
2013-09-07 06:18:00,98.4,4.5,0.00,SE,135,8.5,12.3,3,0.00,,---,0.00,VWS V14.01,2013-09-07 11:18:00,
2013-09-07 06:19:00,98.4,4.5,0.00,SSE,158,10.7,12.3,3,0.00,,---,0.00,VWS V14.01,2013-09-07 11:19:00,
2013-09-07 06:21:00,98.7,4.8,0.00,SE,135,7.8,12.3,3,0.00,,---,0.00,VWS V14.01,2013-09-07 11:21:00,
2013-09-07 06:22:00,98.7,4.8,0.00,SE,135,7.8,12.3,3,0.00,,---,0.00,VWS V14.01,2013-09-07 11:22:00,
2013-09-07 06:23:00,98.6,4.7,0.00,South,180,5.4,12.3,3,0.00,,---,0.00,VWS V14.01,2013-09-07 11:23:00,
2013-09-07 06:25:00,97.5,4.0,0.00,SSE,158,7.4,12.3,3,0.00,,---,0.00,VWS V14.01,2013-09-07 11:25:00,
2013-09-07 06:26:00,97.5,4.0,0.00,South,180,7.8,12.3,3,0.00,,---,0.00,VWS V14.01,2013-09-07 11:26:00,
2013-09-07 06:27:00,97.3,3.8,0.00,SE,135,7.8,12.3,3,0.00,,---,0.00,VWS V14.01,2013-09-07 11:27:00,
2013-09-07 06:28:00,97.5,4.0,0.00,SE,135,4.0,12.3,3,0.00,,---,0.00,VWS V14.01,2013-09-07 11:28:00,
2013-09-07 06:29:00,97.5,4.0,0.00,South,180,5.8,12.3,3,0.00,,---,0.00,VWS V14.01,2013-09-07 11:29:00,
2013-09-07 06:30:00,97.5,4.0,0.00,South,180,5.8,12.3,3,0.00,,---,0.00,VWS V14.01,2013-09-07 11:30:00,
2013-09-07 06:31:00,97.5,4.0,0.00,South,180,5.8,5.8,3,0.00,,---,0.00,VWS V14.01,2013-09-07 11:31:00,
2013-09-07 06:32:00,97.8,4.2,0.00,South,180,7.2,7.8,3,0.00,,---,0.00,VWS V14.01,2013-09-07 11:32:00,
2013-09-07 06:33:00,97.8,4.2,0.00,South,180,6.0,7.8,3,0.00,,---,0.00,VWS V14.01,2013-09-07 11:33:00,
2013-09-07 06:34:00,97.8,4.2,0.00,South,180,6.3,7.8,3,0.00,,---,0.00,VWS V14.01,2013-09-07 11:34:00,
2013-09-07 06:35:00,97.8,4.2,0.00,SSE,158,5.4,7.8,3,0.00,,---,0.00,VWS V14.01,2013-09-07 11:35:00,
2013-09-07 06:36:00,97.8,4.2,0.00,SSE,158,5.4,7.8,3,0.00,,---,0.00,VWS V14.01,2013-09-07 11:36:00,
2013-09-07 06:37:00,97.8,4.2,0.00,SE,135,5.8,7.8,3,0.00,,---,0.00,VWS V14.01,2013-09-07 11:37:00,
2013-09-07 06:38:00,98.0,4.3,0.00,South,180,4.5,7.8,3,0.00,,---,0.00,VWS V14.01,2013-09-07 11:38:00,
2013-09-07 06:39:00,98.0,4.3,0.00,SW,225,4.0,7.8,3,0.00,,---,0.00,VWS V14.01,2013-09-07 11:39:00,
2013-09-07 06:40:00,97.8,4.2,0.00,South,180,3.8,7.8,3,0.00,,---,0.00,VWS V14.01,2013-09-07 11:40:00,
2013-09-07 06:41:00,97.7,4.1,0.00,SSE,158,4.9,7.8,3,0.00,,---,0.00,VWS V14.01,2013-09-07 11:41:00,
2013-09-07 06:42:00,97.7,4.1,0.00,South,180,4.0,7.8,3,0.00,,---,0.00,VWS V14.01,2013-09-07 11:42:00,
2013-09-07 06:43:00,97.7,4.1,0.00,South,180,4.0,7.8,3,0.00,,---,0.00,VWS V14.01,2013-09-07 11:43:00,
2013-09-07 06:44:00,97.5,4.0,0.00,South,180,3.1,7.8,3,0.00,,---,0.00,VWS V14.01,2013-09-07 11:44:00,
2013-09-07 06:45:00,97.5,4.0,0.00,South,180,5.8,7.8,3,0.00,,---,0.00,VWS V14.01,2013-09-07 11:45:00,
2013-09-07 06:46:00,97.3,3.8,0.00,South,180,4.3,7.4,3,0.00,,---,0.00,VWS V14.01,2013-09-07 11:46:00,
2013-09-07 06:47:00,97.3,3.8,0.00,South,180,5.8,7.4,3,0.00,,---,0.00,VWS V14.01,2013-09-07 11:47:00,
2013-09-07 06:49:00,96.6,3.3,0.00,South,180,5.8,7.4,3,0.00,,---,0.00,VWS V14.01,2013-09-07 11:49:00,
2013-09-07 06:50:00,96.6,3.3,0.00,South,180,6.0,7.4,3,0.00,,---,0.00,VWS V14.01,2013-09-07 11:50:00,
2013-09-07 06:51:00,96.4,3.2,0.00,SSE,158,4.9,7.4,3,0.00,,---,0.00,VWS V14.01,2013-09-07 11:51:00,
2013-09-07 06:52:00,96.4,3.2,0.00,South,180,4.3,7.4,3,0.00,,---,0.00,VWS V14.01,2013-09-07 11:52:00,
2013-09-07 06:53:00,96.2,3.1,0.00,South,180,4.3,7.4,3,0.00,,---,0.00,VWS V14.01,2013-09-07 11:53:00,
2013-09-07 06:54:00,96.2,3.1,0.00,South,180,4.3,7.4,3,0.00,,---,0.00,VWS V14.01,2013-09-07 11:54:00,
2013-09-07 06:55:00,96.0,3.0,0.00,SSW,202,4.9,7.4,3,0.00,,---,0.00,VWS V14.01,2013-09-07 11:55:00,
2013-09-07 06:56:00,96.0,3.0,0.00,South,180,4.9,7.4,3,0.00,,---,0.00,VWS V14.01,2013-09-07 11:56:00,
2013-09-07 06:57:00,96.0,3.0,0.00,South,180,6.3,7.4,3,0.00,,---,0.00,VWS V14.01,2013-09-07 11:57:00,
2013-09-07 06:58:00,95.9,2.9,0.00,SSW,202,5.8,7.4,3,0.00,,---,0.00,VWS V14.01,2013-09-07 11:58:00,
2013-09-07 06:59:00,95.9,2.9,0.00,South,180,5.8,7.4,3,0.00,,---,0.00,VWS V14.01,2013-09-07 11:59:00,
2013-09-07 07:00:00,95.9,2.9,0.00,South,180,5.8,7.4,3,0.00,,---,0.00,VWS V14.01,2013-09-07 12:00:00,
2013-09-07 07:01:00,95.7,2.8,0.00,South,180,6.5,6.5,3,0.00,,---,0.00,VWS V14.01,2013-09-07 12:01:00,
2013-09-07 07:02:00,95.5,2.6,0.00,South,180,5.8,6.5,3,0.00,,---,0.00,VWS V14.01,2013-09-07 12:02:00,
2013-09-07 07:04:00,95.5,2.6,0.00,South,180,6.0,6.5,3,0.00,,---,0.00,VWS V14.01,2013-09-07 12:04:00,
2013-09-07 07:05:00,95.3,2.5,0.00,SSE,158,6.3,7.6,3,0.00,,---,0.00,VWS V14.01,2013-09-07 12:05:00,
2013-09-07 07:06:00,95.3,2.5,0.00,South,180,5.6,7.6,3,0.00,,---,0.00,VWS V14.01,2013-09-07 12:06:00,
2013-09-07 07:07:00,95.3,2.5,0.00,South,180,6.0,7.6,3,0.00,,---,0.00,VWS V14.01,2013-09-07 12:07:00,
2013-09-07 07:08:00,95.3,2.5,0.00,South,180,6.5,7.6,3,0.00,,---,0.00,VWS V14.01,2013-09-07 12:08:00,
2013-09-07 07:09:00,95.3,2.5,0.00,South,180,8.5,8.5,3,0.00,,---,0.00,VWS V14.01,2013-09-07 12:09:00,
2013-09-07 07:11:00,95.3,2.5,0.00,SE,135,7.6,8.7,3,0.00,,---,0.00,VWS V14.01,2013-09-07 12:11:00,
2013-09-07 07:12:00,95.3,2.5,0.00,SSE,158,7.6,8.7,3,0.00,,---,0.00,VWS V14.01,2013-09-07 12:12:00,
2013-09-07 07:13:00,95.3,2.5,0.00,South,180,5.4,8.7,3,0.00,,---,0.00,VWS V14.01,2013-09-07 12:13:00,
2013-09-07 07:15:00,95.3,2.5,0.00,SE,135,6.7,8.7,3,0.00,,---,0.00,VWS V14.01,2013-09-07 12:15:00,
2013-09-07 07:16:00,95.1,2.4,0.00,SSE,158,5.6,6.7,3,0.00,,---,0.00,VWS V14.01,2013-09-07 12:16:00,
2013-09-07 07:17:00,95.1,2.4,0.00,SE,135,7.6,10.3,3,0.00,,---,0.00,VWS V14.01,2013-09-07 12:17:00,
2013-09-07 07:18:00,95.1,2.4,0.00,SE,135,9.0,10.3,3,0.00,,---,0.00,VWS V14.01,2013-09-07 12:18:00,
2013-09-07 07:19:00,95.0,2.3,0.00,SE,135,6.5,10.3,3,0.00,,---,0.00,VWS V14.01,2013-09-07 12:19:00,
2013-09-07 07:20:00,94.8,2.2,0.00,SSE,158,7.2,10.3,3,0.00,,---,0.00,VWS V14.01,2013-09-07 12:20:00,
2013-09-07 07:21:00,94.6,2.0,0.00,South,180,6.5,10.3,3,0.00,,---,0.00,VWS V14.01,2013-09-07 12:21:00,
2013-09-07 07:22:00,94.4,1.9,0.00,SSE,158,6.0,10.3,3,0.00,,---,0.00,VWS V14.01,2013-09-07 12:22:00,
2013-09-07 07:23:00,94.2,1.8,0.00,SE,135,6.5,10.3,3,0.00,,---,0.00,VWS V14.01,2013-09-07 12:23:00,
2013-09-07 07:24:00,94.2,1.8,0.00,SE,135,6.5,10.3,3,0.00,,---,0.00,VWS V14.01,2013-09-07 12:24:00,
2013-09-07 07:25:00,94.1,1.7,0.00,SE,135,5.8,10.3,3,0.00,,---,0.00,VWS V14.01,2013-09-07 12:25:00,
2013-09-07 07:26:00,93.7,1.5,0.00,SE,135,6.0,10.3,3,0.00,,---,0.00,VWS V14.01,2013-09-07 12:26:00,
2013-09-07 07:27:00,93.7,1.5,0.00,SSE,158,5.6,10.3,3,0.00,,---,0.00,VWS V14.01,2013-09-07 12:27:00,
2013-09-07 07:29:00,93.7,1.5,0.00,SE,135,5.6,10.3,3,0.00,,---,0.00,VWS V14.01,2013-09-07 12:29:00,
2013-09-07 07:31:00,93.3,1.2,0.00,SE,135,5.8,10.3,3,0.00,,---,0.00,VWS V14.01,2013-09-07 12:31:00,
2013-09-07 07:32:00,93.3,1.2,0.00,SE,135,7.4,10.3,3,0.00,,---,0.00,VWS V14.01,2013-09-07 12:32:00,
2013-09-07 07:34:00,92.8,0.9,0.00,SE,135,8.5,10.3,3,0.00,,---,0.00,VWS V14.01,2013-09-07 12:34:00,
2013-09-07 07:35:00,92.6,0.7,0.00,SE,135,6.0,10.3,3,0.00,,---,0.00,VWS V14.01,2013-09-07 12:35:00,
2013-09-07 07:36:00,92.6,0.7,0.00,SE,135,6.9,10.3,3,0.00,,---,0.00,VWS V14.01,2013-09-07 12:36:00,
2013-09-07 07:37:00,92.6,0.7,0.00,SE,135,6.5,10.3,3,0.00,,---,0.00,VWS V14.01,2013-09-07 12:37:00,
2013-09-07 07:38:00,92.6,0.7,0.00,SSE,158,5.8,10.3,3,0.00,,---,0.00,VWS V14.01,2013-09-07 12:38:00,
2013-09-07 07:39:00,92.4,0.6,0.00,SE,135,7.4,10.3,3,0.00,,---,0.00,VWS V14.01,2013-09-07 12:39:00,
2013-09-07 07:40:00,92.3,0.5,0.00,SE,135,5.6,10.3,3,0.00,,---,0.00,VWS V14.01,2013-09-07 12:40:00,
2013-09-07 07:41:00,92.1,0.4,0.00,SE,135,6.9,10.3,3,0.00,,---,0.00,VWS V14.01,2013-09-07 12:41:00,
2013-09-07 07:42:00,91.9,0.3,0.00,SE,135,4.7,10.3,3,0.00,,---,0.00,VWS V14.01,2013-09-07 12:42:00,
2013-09-07 07:43:00,91.7,0.1,0.00,SE,135,5.6,10.3,3,0.00,,---,0.00,VWS V14.01,2013-09-07 12:43:00,
2013-09-07 07:44:00,91.7,0.1,0.00,SE,135,5.8,10.3,3,0.00,,---,0.00,VWS V14.01,2013-09-07 12:44:00,
2013-09-07 07:45:00,91.5,0.0,0.00,SE,135,4.9,10.3,3,0.00,,---,0.00,VWS V14.01,2013-09-07 12:45:00,
2013-09-07 07:46:00,91.4,-0.1,0.00,SE,135,5.4,5.4,3,0.00,,---,0.00,VWS V14.01,2013-09-07 12:46:00,
2013-09-07 07:47:00,91.2,-0.2,0.00,SE,135,4.0,5.4,3,0.00,,---,0.00,VWS V14.01,2013-09-07 12:47:00,
2013-09-07 07:48:00,91.0,-0.3,0.00,ESE,112,3.8,5.4,3,0.00,,---,0.00,VWS V14.01,2013-09-07 12:48:00,
2013-09-07 07:49:00,90.6,-0.6,0.00,South,180,4.3,5.4,3,0.00,,---,0.00,VWS V14.01,2013-09-07 12:49:00,
2013-09-07 07:50:00,90.5,-0.7,0.00,South,180,4.0,5.4,3,0.00,,---,0.00,VWS V14.01,2013-09-07 12:50:00,
2013-09-07 07:51:00,90.3,-0.8,0.00,South,180,4.0,5.4,3,0.00,,---,0.00,VWS V14.01,2013-09-07 12:51:00,
2013-09-07 07:52:00,90.1,-0.9,0.00,SE,135,4.0,5.4,3,0.00,,---,0.00,VWS V14.01,2013-09-07 12:52:00,
2013-09-07 07:53:00,89.9,-1.1,0.00,SE,135,3.6,5.4,3,0.00,,---,0.00,VWS V14.01,2013-09-07 12:53:00,
2013-09-07 07:54:00,89.7,-1.2,0.00,SE,135,3.6,5.4,3,0.00,,---,0.00,VWS V14.01,2013-09-07 12:54:00,
2013-09-07 07:55:00,89.6,-1.3,0.00,SE,135,3.8,5.4,3,0.00,,---,0.00,VWS V14.01,2013-09-07 12:55:00,
2013-09-07 07:56:00,89.4,-1.4,0.00,SE,135,3.8,5.4,3,0.00,,---,0.00,VWS V14.01,2013-09-07 12:56:00,
2013-09-07 07:57:00,89.2,-1.5,0.00,SE,135,3.6,5.4,3,0.00,,---,0.00,VWS V14.01,2013-09-07 12:57:00,
2013-09-07 07:58:00,89.0,-1.7,0.00,SE,135,3.8,5.4,3,0.00,,---,0.00,VWS V14.01,2013-09-07 12:58:00,
2013-09-07 07:59:00,89.0,-1.7,0.00,SE,135,3.6,5.4,3,0.00,,---,0.00,VWS V14.01,2013-09-07 12:59:00,
2013-09-07 08:00:00,89.0,-1.7,0.00,SE,135,3.8,5.4,3,0.00,,---,0.00,VWS V14.01,2013-09-07 13:00:00,
2013-09-07 08:01:00,89.0,-1.7,0.00,SE,135,3.8,3.8,3,0.00,,---,0.00,VWS V14.01,2013-09-07 13:01:00,
2013-09-07 08:03:00,88.5,-2.0,0.00,SE,135,4.0,4.0,3,0.00,,---,0.00,VWS V14.01,2013-09-07 13:03:00,
2013-09-07 08:04:00,88.1,-2.2,0.00,SE,135,3.8,4.0,3,0.00,,---,0.00,VWS V14.01,2013-09-07 13:04:00,
2013-09-07 08:05:00,87.9,-2.4,0.00,SE,135,3.8,4.0,3,0.00,,---,0.00,VWS V14.01,2013-09-07 13:05:00,
2013-09-07 08:06:00,87.8,-2.5,0.00,SE,135,4.7,4.7,3,0.00,,---,0.00,VWS V14.01,2013-09-07 13:06:00,
2013-09-07 08:07:00,87.6,-2.6,0.00,SE,135,4.0,4.7,3,0.00,,---,0.00,VWS V14.01,2013-09-07 13:07:00,
2013-09-07 08:08:00,87.4,-2.7,0.00,SE,135,4.0,4.7,3,0.00,,---,0.00,VWS V14.01,2013-09-07 13:08:00,
2013-09-07 08:09:00,87.2,-2.8,0.00,SE,135,3.4,4.7,3,0.00,,---,0.00,VWS V14.01,2013-09-07 13:09:00,
2013-09-07 08:10:00,87.2,-2.8,0.00,SE,135,4.5,4.7,3,0.00,,---,0.00,VWS V14.01,2013-09-07 13:10:00,
2013-09-07 08:11:00,87.2,-2.8,0.00,SE,135,4.5,4.7,3,0.00,,---,0.00,VWS V14.01,2013-09-07 13:11:00,
2013-09-07 08:12:00,86.9,-3.1,0.00,SE,135,4.5,4.9,3,0.00,,---,0.00,VWS V14.01,2013-09-07 13:12:00,
2013-09-07 08:14:00,86.9,-3.1,0.00,SE,135,4.3,4.9,3,0.00,,---,0.00,VWS V14.01,2013-09-07 13:14:00,
2013-09-07 08:15:00,86.5,-3.3,0.00,SE,135,4.0,4.9,3,0.00,,---,0.00,VWS V14.01,2013-09-07 13:15:00,
2013-09-07 08:16:00,86.5,-3.3,0.00,SE,135,3.6,4.3,3,0.00,,---,0.00,VWS V14.01,2013-09-07 13:16:00,
2013-09-07 08:17:00,86.3,-3.5,0.00,SE,135,4.0,4.3,3,0.00,,---,0.00,VWS V14.01,2013-09-07 13:17:00,
2013-09-07 08:18:00,86.3,-3.5,0.00,SE,135,4.3,4.3,3,0.00,,---,0.00,VWS V14.01,2013-09-07 13:18:00,
2013-09-07 08:19:00,86.1,-3.6,0.00,SE,135,4.0,4.3,3,0.00,,---,0.00,VWS V14.01,2013-09-07 13:19:00,
2013-09-07 08:20:00,86.0,-3.7,0.00,SE,135,3.6,4.3,3,0.00,,---,0.00,VWS V14.01,2013-09-07 13:20:00,
2013-09-07 08:21:00,85.8,-3.8,0.00,SE,135,3.6,4.3,3,0.00,,---,0.00,VWS V14.01,2013-09-07 13:21:00,
2013-09-07 08:22:00,85.8,-3.8,0.00,SE,135,4.0,4.3,3,0.00,,---,0.00,VWS V14.01,2013-09-07 13:22:00,
2013-09-07 08:23:00,85.6,-3.9,0.00,SE,135,3.8,4.3,3,0.00,,---,0.00,VWS V14.01,2013-09-07 13:23:00,
2013-09-07 08:25:00,85.4,-4.1,0.00,SE,135,3.6,4.3,3,0.00,,---,0.00,VWS V14.01,2013-09-07 13:25:00,
2013-09-07 08:26:00,85.2,-4.2,0.00,SE,135,3.4,4.3,3,0.00,,---,0.00,VWS V14.01,2013-09-07 13:26:00,
2013-09-07 08:27:00,85.1,-4.3,0.00,SE,135,3.6,4.3,3,0.00,,---,0.00,VWS V14.01,2013-09-07 13:27:00,
2013-09-07 08:28:00,84.9,-4.4,0.00,SE,135,3.8,4.3,3,0.00,,---,0.00,VWS V14.01,2013-09-07 13:28:00,
2013-09-07 08:29:00,84.9,-4.4,0.00,SE,135,3.8,4.3,3,0.00,,---,0.00,VWS V14.01,2013-09-07 13:29:00,
2013-09-07 08:30:00,84.9,-4.4,0.00,SE,135,3.8,4.3,3,0.00,,---,0.00,VWS V14.01,2013-09-07 13:30:00,
2013-09-07 08:31:00,84.7,-4.5,0.00,SE,135,3.8,4.3,3,0.00,,---,0.00,VWS V14.01,2013-09-07 13:31:00,
2013-09-07 08:32:00,84.5,-4.7,0.00,SE,135,4.0,4.3,3,0.00,,---,0.00,VWS V14.01,2013-09-07 13:32:00,
2013-09-07 08:33:00,84.5,-4.7,0.00,SE,135,4.0,4.3,3,0.00,,---,0.00,VWS V14.01,2013-09-07 13:33:00,
2013-09-07 08:34:00,84.3,1.3,0.00,SE,135,4.3,4.7,4,0.00,,---,0.00,VWS V14.01,2013-09-07 13:34:00,
2013-09-07 08:35:00,84.3,1.3,0.00,SE,135,4.0,4.7,4,0.00,,---,0.00,VWS V14.01,2013-09-07 13:35:00,
2013-09-07 08:36:00,84.2,1.2,0.00,SE,135,4.0,4.7,4,0.00,,---,0.00,VWS V14.01,2013-09-07 13:36:00,
2013-09-07 08:37:00,84.2,1.2,0.00,SE,135,3.6,4.7,4,0.00,,---,0.00,VWS V14.01,2013-09-07 13:37:00,
2013-09-07 08:38:00,84.2,1.2,0.00,SE,135,4.3,4.7,4,0.00,,---,0.00,VWS V14.01,2013-09-07 13:38:00,
2013-09-07 08:39:00,84.2,1.2,0.00,SE,135,3.6,4.7,4,0.00,,---,0.00,VWS V14.01,2013-09-07 13:39:00,
2013-09-07 08:40:00,84.0,1.0,0.00,SE,135,2.9,4.7,4,0.00,,---,0.00,VWS V14.01,2013-09-07 13:40:00,
2013-09-07 08:41:00,84.0,1.0,0.00,SE,135,2.5,4.7,4,0.00,,---,0.00,VWS V14.01,2013-09-07 13:41:00,
2013-09-07 08:42:00,83.8,0.9,0.00,SE,135,2.2,4.7,4,0.00,,---,0.00,VWS V14.01,2013-09-07 13:42:00,
2013-09-07 08:43:00,83.8,0.9,0.00,SE,135,2.2,4.7,4,0.00,,---,0.00,VWS V14.01,2013-09-07 13:43:00,
2013-09-07 08:45:00,83.8,0.9,0.00,SE,135,2.2,4.7,4,0.00,,---,0.00,VWS V14.01,2013-09-07 13:45:00,
2013-09-07 08:46:00,83.4,0.7,0.00,SE,135,2.2,2.5,4,0.00,,---,0.00,VWS V14.01,2013-09-07 13:46:00,
2013-09-07 08:48:00,83.3,12.8,0.00,SE,135,2.7,2.7,7,0.00,,---,0.00,VWS V14.01,2013-09-07 13:48:00,
2013-09-07 08:49:00,83.1,18.5,0.00,SE,135,3.8,6.7,9,0.00,,---,0.00,VWS V14.01,2013-09-07 13:49:00,
2013-09-07 08:50:00,83.1,18.5,0.00,SE,135,3.8,6.7,9,0.00,,---,0.00,VWS V14.01,2013-09-07 13:50:00,
2013-09-07 08:51:00,83.1,18.5,0.00,SE,135,4.0,6.7,9,0.00,,---,0.00,VWS V14.01,2013-09-07 13:51:00,
2013-09-07 08:52:00,83.1,18.5,0.00,SE,135,3.6,6.7,9,0.00,,---,0.00,VWS V14.01,2013-09-07 13:52:00,
2013-09-07 08:53:00,82.9,18.3,0.00,SE,135,3.6,6.7,9,0.00,,---,0.00,VWS V14.01,2013-09-07 13:53:00,
2013-09-07 08:54:00,71.0,45.5,0.00,SSW,202,2.9,3.1,40,0.00,,---,0.00,VWS V14.01,2013-09-07 13:54:00,
2013-09-07 08:55:00,82.9,18.3,0.00,SE,135,4.3,6.7,9,0.00,,---,0.00,VWS V14.01,2013-09-07 13:55:00,
2013-09-07 08:56:00,82.9,18.3,0.00,SE,135,4.3,6.7,9,0.00,,---,0.00,VWS V14.01,2013-09-07 13:56:00,
2013-09-07 08:58:00,82.9,18.3,0.00,SE,135,4.5,6.7,9,0.00,,---,0.00,VWS V14.01,2013-09-07 13:58:00,
2013-09-07 08:59:00,82.9,18.3,0.00,South,180,3.4,6.7,9,0.00,,---,0.00,VWS V14.01,2013-09-07 13:59:00,
2013-09-07 09:00:00,82.9,18.3,0.00,SSE,158,3.4,6.7,9,0.00,,---,0.00,VWS V14.01,2013-09-07 14:00:00,
2013-09-07 09:02:00,82.4,28.4,0.00,South,180,3.4,3.4,14,0.00,,---,0.00,VWS V14.01,2013-09-07 14:02:00,
2013-09-07 09:04:00,82.2,33.1,0.00,South,180,2.7,3.4,17,0.00,,---,0.00,VWS V14.01,2013-09-07 14:04:00,
2013-09-07 09:05:00,82.0,35.7,0.00,South,180,2.9,3.8,19,0.00,,---,0.00,VWS V14.01,2013-09-07 14:05:00,
2013-09-07 09:06:00,82.0,35.7,0.00,South,180,3.4,4.3,19,0.00,,---,0.00,VWS V14.01,2013-09-07 14:06:00,
2013-09-07 09:07:00,82.0,35.7,0.00,SSE,158,3.4,4.3,19,0.00,,---,0.00,VWS V14.01,2013-09-07 14:07:00,
2013-09-07 09:08:00,82.0,35.7,0.00,SW,225,7.2,7.2,19,0.00,,---,0.00,VWS V14.01,2013-09-07 14:08:00,
2013-09-07 09:09:00,82.0,35.7,0.00,SSW,202,3.6,7.2,19,0.00,,---,0.00,VWS V14.01,2013-09-07 14:09:00,
2013-09-07 09:10:00,82.0,35.7,0.00,SSW,202,3.6,7.2,19,0.00,,---,0.00,VWS V14.01,2013-09-07 14:10:00,
2013-09-07 09:11:00,82.0,35.7,0.00,SW,225,3.1,7.2,19,0.00,,---,0.00,VWS V14.01,2013-09-07 14:11:00,
2013-09-07 09:12:00,81.6,36.7,0.00,SW,225,2.9,7.2,20,0.00,,---,0.00,VWS V14.01,2013-09-07 14:12:00,
2013-09-07 09:13:00,81.5,36.6,0.00,SW,225,2.2,7.2,20,0.00,,---,0.00,VWS V14.01,2013-09-07 14:13:00,
2013-09-07 09:15:00,81.5,36.6,0.00,West,270,2.0,7.2,20,0.00,,---,0.00,VWS V14.01,2013-09-07 14:15:00,
2013-09-07 09:17:00,81.1,38.7,0.00,WSW,248,3.4,3.4,22,0.00,,---,0.00,VWS V14.01,2013-09-07 14:17:00,
2013-09-07 09:18:00,80.9,39.7,0.00,SW,225,2.9,3.6,23,0.00,,---,0.00,VWS V14.01,2013-09-07 14:18:00,
2013-09-07 09:19:00,80.7,39.5,0.00,South,180,2.0,3.6,23,0.00,,---,0.00,VWS V14.01,2013-09-07 14:19:00,
2013-09-07 09:20:00,80.6,39.4,0.00,SW,225,3.1,3.6,23,0.00,,---,0.00,VWS V14.01,2013-09-07 14:20:00,
2013-09-07 09:21:00,80.6,39.4,0.00,SE,135,2.5,3.6,23,0.00,,---,0.00,VWS V14.01,2013-09-07 14:21:00,
2013-09-07 09:22:00,80.0,38.9,0.00,SE,135,2.0,3.6,23,0.00,,---,0.00,VWS V14.01,2013-09-07 14:22:00,
2013-09-07 09:23:00,79.8,39.9,0.00,South,180,2.9,3.8,24,0.00,,---,0.00,VWS V14.01,2013-09-07 14:23:00,
2013-09-07 09:24:00,79.8,39.9,0.00,South,180,2.2,3.8,24,0.00,,---,0.00,VWS V14.01,2013-09-07 14:24:00,
2013-09-07 09:25:00,79.8,39.9,0.00,South,180,2.7,3.8,24,0.00,,---,0.00,VWS V14.01,2013-09-07 14:25:00,
2013-09-07 09:26:00,79.8,39.9,0.00,South,180,2.5,3.8,24,0.00,,---,0.00,VWS V14.01,2013-09-07 14:26:00,
2013-09-07 09:27:00,73.9,46.7,0.00,South,180,2.2,5.6,38,0.00,,---,0.00,VWS V14.01,2013-09-07 14:27:00,
2013-09-07 09:28:00,79.8,40.9,0.00,South,180,3.4,4.3,25,0.00,,---,0.00,VWS V14.01,2013-09-07 14:28:00,
2013-09-07 09:29:00,79.7,40.8,0.00,South,180,4.0,4.3,25,0.00,,---,0.00,VWS V14.01,2013-09-07 14:29:00,
2013-09-07 09:30:00,79.7,40.8,0.00,South,180,3.8,4.3,25,0.00,,---,0.00,VWS V14.01,2013-09-07 14:30:00,
2013-09-07 09:31:00,79.7,40.8,0.00,South,180,3.1,4.9,25,0.00,,---,0.00,VWS V14.01,2013-09-07 14:31:00,
2013-09-07 09:32:00,79.7,40.8,0.00,South,180,3.6,4.9,25,0.00,,---,0.00,VWS V14.01,2013-09-07 14:32:00,
2013-09-07 09:33:00,79.7,41.8,0.00,South,180,2.7,4.9,26,0.00,,---,0.00,VWS V14.01,2013-09-07 14:33:00,
2013-09-07 09:35:00,79.7,41.8,0.00,South,180,4.9,4.9,26,0.00,,---,0.00,VWS V14.01,2013-09-07 14:35:00,
2013-09-07 09:36:00,79.5,42.6,0.00,South,180,4.3,4.9,27,0.00,,---,0.00,VWS V14.01,2013-09-07 14:36:00,
2013-09-07 09:37:00,79.5,42.6,0.00,South,180,4.3,5.8,27,0.00,,---,0.00,VWS V14.01,2013-09-07 14:37:00,
2013-09-07 09:38:00,79.5,42.6,0.00,South,180,4.9,5.8,27,0.00,,---,0.00,VWS V14.01,2013-09-07 14:38:00,
2013-09-07 09:39:00,79.5,44.5,0.00,SW,225,4.5,5.8,29,0.00,,---,0.00,VWS V14.01,2013-09-07 14:39:00,
2013-09-07 09:41:00,79.3,44.3,0.00,South,180,5.8,5.8,29,0.00,,---,0.00,VWS V14.01,2013-09-07 14:41:00,
2013-09-07 09:42:00,75.2,46.4,0.00,WSW,248,4.0,5.8,36,0.00,,---,0.00,VWS V14.01,2013-09-07 14:42:00,
2013-09-07 09:43:00,79.3,45.2,0.00,South,180,5.6,5.8,30,0.00,,---,0.00,VWS V14.01,2013-09-07 14:43:00,
2013-09-07 09:44:00,79.3,45.2,0.00,South,180,5.6,5.8,30,0.00,,---,0.00,VWS V14.01,2013-09-07 14:44:00,
2013-09-07 09:45:00,79.3,45.2,0.00,South,180,6.0,6.0,30,0.00,,---,0.00,VWS V14.01,2013-09-07 14:45:00,
2013-09-07 09:46:00,79.3,45.2,0.00,South,180,5.4,6.0,30,0.00,,---,0.00,VWS V14.01,2013-09-07 14:46:00,
2013-09-07 09:47:00,79.3,45.2,0.00,South,180,4.9,6.0,30,0.00,,---,0.00,VWS V14.01,2013-09-07 14:47:00,
2013-09-07 09:48:00,79.3,45.2,0.00,South,180,4.5,6.0,30,0.00,,---,0.00,VWS V14.01,2013-09-07 14:48:00,
2013-09-07 09:49:00,79.3,45.2,0.00,SSW,202,3.6,6.0,30,0.00,,---,0.00,VWS V14.01,2013-09-07 14:49:00,
2013-09-07 09:50:00,79.3,45.2,0.00,South,180,4.0,6.0,30,0.00,,---,0.00,VWS V14.01,2013-09-07 14:50:00,
2013-09-07 09:51:00,78.9,44.9,0.00,South,180,3.4,6.0,30,0.00,,---,0.00,VWS V14.01,2013-09-07 14:51:00,
2013-09-07 09:52:00,78.9,44.9,0.00,South,180,4.9,6.0,30,0.00,,---,0.00,VWS V14.01,2013-09-07 14:52:00,
2013-09-07 09:53:00,79.1,45.1,0.00,South,180,5.6,6.0,30,0.00,,---,0.00,VWS V14.01,2013-09-07 14:53:00,
2013-09-07 09:55:00,79.1,45.1,0.00,South,180,4.3,6.0,30,0.00,,---,0.00,VWS V14.01,2013-09-07 14:55:00,
2013-09-07 09:56:00,79.5,44.5,0.00,South,180,4.3,6.0,29,0.00,,---,0.00,VWS V14.01,2013-09-07 14:56:00,
2013-09-07 09:57:00,79.5,44.5,0.00,South,180,3.6,6.0,29,0.00,,---,0.00,VWS V14.01,2013-09-07 14:57:00,
2013-09-07 09:59:00,79.5,43.6,0.00,South,180,4.5,6.0,28,0.00,,---,0.00,VWS V14.01,2013-09-07 14:59:00,
2013-09-07 10:00:00,79.5,43.6,0.00,South,180,4.9,6.0,28,0.00,,---,0.00,VWS V14.01,2013-09-07 15:00:00,
2013-09-07 10:01:00,79.5,43.6,0.00,SSW,202,6.0,6.0,28,0.00,,---,0.00,VWS V14.01,2013-09-07 15:01:00,
2013-09-07 10:02:00,79.5,43.6,0.00,South,180,6.0,6.0,28,0.00,,---,0.00,VWS V14.01,2013-09-07 15:02:00,
2013-09-07 10:03:00,79.5,43.6,0.00,South,180,7.8,7.8,28,0.00,,---,0.00,VWS V14.01,2013-09-07 15:03:00,
2013-09-07 10:04:00,79.7,43.7,0.00,South,180,7.4,7.8,28,0.00,,---,0.00,VWS V14.01,2013-09-07 15:04:00,
2013-09-07 10:05:00,79.8,43.9,0.00,South,180,6.0,7.8,28,0.00,,---,0.00,VWS V14.01,2013-09-07 15:05:00,
2013-09-07 10:06:00,79.8,43.9,0.00,SW,225,7.4,7.8,28,0.00,,---,0.00,VWS V14.01,2013-09-07 15:06:00,
2013-09-07 10:07:00,79.8,43.9,0.00,SSW,202,5.8,7.8,28,0.00,,---,0.00,VWS V14.01,2013-09-07 15:07:00,
2013-09-07 10:08:00,79.8,43.9,0.00,South,180,6.3,7.8,28,0.00,,---,0.00,VWS V14.01,2013-09-07 15:08:00,
2013-09-07 10:09:00,79.7,43.7,0.00,South,180,6.3,7.8,28,0.00,,---,0.00,VWS V14.01,2013-09-07 15:09:00,
2013-09-07 10:10:00,79.7,43.7,0.00,South,180,6.5,7.8,28,0.00,,---,0.00,VWS V14.01,2013-09-07 15:10:00,
2013-09-07 10:11:00,79.7,43.7,0.00,South,180,7.4,7.8,28,0.00,,---,0.00,VWS V14.01,2013-09-07 15:11:00,
2013-09-07 10:13:00,79.8,44.8,0.00,South,180,6.5,7.8,29,0.00,,---,0.00,VWS V14.01,2013-09-07 15:13:00,
2013-09-07 10:15:00,79.8,44.8,0.00,SSW,202,5.4,7.8,29,0.00,,---,0.00,VWS V14.01,2013-09-07 15:15:00,
2013-09-07 10:16:00,79.8,44.8,0.00,SW,225,4.0,5.6,29,0.00,,---,0.00,VWS V14.01,2013-09-07 15:16:00,
2013-09-07 10:17:00,79.8,44.8,0.00,South,180,5.4,5.6,29,0.00,,---,0.00,VWS V14.01,2013-09-07 15:17:00,
2013-09-07 10:18:00,79.5,44.5,0.00,SW,225,4.3,5.6,29,0.00,,---,0.00,VWS V14.01,2013-09-07 15:18:00,
2013-09-07 10:19:00,79.5,43.6,0.00,SW,225,5.6,8.5,28,0.00,,---,0.00,VWS V14.01,2013-09-07 15:19:00,
2013-09-07 10:20:00,79.5,43.6,0.00,South,180,4.9,8.5,28,0.00,,---,0.00,VWS V14.01,2013-09-07 15:20:00,
2013-09-07 10:21:00,79.5,43.6,0.00,SW,225,5.6,8.5,28,0.00,,---,0.00,VWS V14.01,2013-09-07 15:21:00,
2013-09-07 10:23:00,79.5,43.6,0.00,South,180,4.9,8.5,28,0.00,,---,0.00,VWS V14.01,2013-09-07 15:23:00,
2013-09-07 10:24:00,79.5,43.6,0.00,SW,225,5.4,8.5,28,0.00,,---,0.00,VWS V14.01,2013-09-07 15:24:00,
2013-09-07 10:25:00,79.3,43.4,0.00,South,180,4.0,8.5,28,0.00,,---,0.00,VWS V14.01,2013-09-07 15:25:00,
2013-09-07 10:26:00,79.3,43.4,0.00,SW,225,8.5,8.5,28,0.00,,---,0.00,VWS V14.01,2013-09-07 15:26:00,
2013-09-07 10:27:00,79.5,43.6,0.00,South,180,5.8,8.5,28,0.00,,---,0.00,VWS V14.01,2013-09-07 15:27:00,
2013-09-07 10:28:00,79.5,43.6,0.00,SW,225,5.4,8.5,28,0.00,,---,0.00,VWS V14.01,2013-09-07 15:28:00,
2013-09-07 10:29:00,79.7,43.7,0.00,SW,225,5.4,8.5,28,0.00,,---,0.00,VWS V14.01,2013-09-07 15:29:00,
2013-09-07 10:30:00,79.7,43.7,0.00,SW,225,5.6,8.5,28,0.00,,---,0.00,VWS V14.01,2013-09-07 15:30:00,
2013-09-07 10:31:00,79.7,43.7,0.00,South,180,4.9,6.3,28,0.00,,---,0.00,VWS V14.01,2013-09-07 15:31:00,
2013-09-07 10:32:00,79.5,43.6,0.00,South,180,4.9,6.3,28,0.00,,---,0.00,VWS V14.01,2013-09-07 15:32:00,
2013-09-07 10:33:00,79.3,43.4,0.00,SSW,202,5.4,6.3,28,0.00,,---,0.00,VWS V14.01,2013-09-07 15:33:00,
2013-09-07 10:34:00,79.3,43.4,0.00,SW,225,4.9,6.3,28,0.00,,---,0.00,VWS V14.01,2013-09-07 15:34:00,
2013-09-07 10:35:00,79.3,43.4,0.00,SSW,202,4.0,6.3,28,0.00,,---,0.00,VWS V14.01,2013-09-07 15:35:00,
2013-09-07 10:36:00,79.3,43.4,0.00,SW,225,6.0,6.3,28,0.00,,---,0.00,VWS V14.01,2013-09-07 15:36:00,
2013-09-07 10:37:00,79.3,44.3,0.00,South,180,6.3,8.7,29,0.00,,---,0.00,VWS V14.01,2013-09-07 15:37:00,
2013-09-07 10:38:00,79.5,44.5,0.00,SSW,202,4.9,8.7,29,0.00,,---,0.00,VWS V14.01,2013-09-07 15:38:00,
2013-09-07 10:39:00,79.5,44.5,0.00,SSW,202,5.6,8.7,29,0.00,,---,0.00,VWS V14.01,2013-09-07 15:39:00,
2013-09-07 10:40:00,79.5,44.5,0.00,SW,225,6.0,8.7,29,0.00,,---,0.00,VWS V14.01,2013-09-07 15:40:00,
2013-09-07 10:41:00,79.5,44.5,0.00,South,180,5.4,8.7,29,0.00,,---,0.00,VWS V14.01,2013-09-07 15:41:00,
2013-09-07 10:42:00,79.5,44.5,0.00,SW,225,4.3,8.7,29,0.00,,---,0.00,VWS V14.01,2013-09-07 15:42:00,
2013-09-07 10:43:00,79.5,44.5,0.00,SW,225,4.3,8.7,29,0.00,,---,0.00,VWS V14.01,2013-09-07 15:43:00,
2013-09-07 10:45:00,79.5,44.5,0.00,South,180,3.6,8.7,29,0.00,,---,0.00,VWS V14.01,2013-09-07 15:45:00,
2013-09-07 10:46:00,79.5,44.5,0.00,South,180,3.6,3.6,29,0.00,,---,0.00,VWS V14.01,2013-09-07 15:46:00,
2013-09-07 10:47:00,79.5,44.5,0.00,SW,225,8.1,8.1,29,0.00,,---,0.00,VWS V14.01,2013-09-07 15:47:00,
2013-09-07 10:48:00,79.5,44.5,0.00,SSW,202,4.0,8.1,29,0.00,,---,0.00,VWS V14.01,2013-09-07 15:48:00,
2013-09-07 10:49:00,79.5,44.5,0.00,SSW,202,5.4,8.1,29,0.00,,---,0.00,VWS V14.01,2013-09-07 15:49:00,
2013-09-07 10:50:00,79.5,44.5,0.00,SSW,202,6.3,8.1,29,0.00,,---,0.00,VWS V14.01,2013-09-07 15:50:00,
2013-09-07 10:51:00,79.5,44.5,0.00,South,180,4.3,8.1,29,0.00,,---,0.00,VWS V14.01,2013-09-07 15:51:00,
2013-09-07 10:52:00,79.5,44.5,0.00,South,180,2.9,8.1,29,0.00,,---,0.00,VWS V14.01,2013-09-07 15:52:00,
2013-09-07 10:53:00,79.3,44.3,0.00,SW,225,4.0,8.1,29,0.00,,---,0.00,VWS V14.01,2013-09-07 15:53:00,
2013-09-07 10:54:00,79.3,45.2,0.00,SW,225,3.8,8.1,30,0.00,,---,0.00,VWS V14.01,2013-09-07 15:54:00,
2013-09-07 10:55:00,79.3,45.2,0.00,SW,225,3.1,8.1,30,0.00,,---,0.00,VWS V14.01,2013-09-07 15:55:00,
2013-09-07 10:56:00,79.3,45.2,0.00,South,180,4.7,8.1,30,0.00,,---,0.00,VWS V14.01,2013-09-07 15:56:00,
2013-09-07 10:57:00,79.3,45.2,0.00,SW,225,6.5,8.1,30,0.00,,---,0.00,VWS V14.01,2013-09-07 15:57:00,
2013-09-07 10:58:00,79.1,45.1,0.00,SW,225,3.4,8.1,30,0.00,,---,0.00,VWS V14.01,2013-09-07 15:58:00,
2013-09-07 10:59:00,79.1,45.1,0.00,SW,225,3.1,8.1,30,0.00,,---,0.00,VWS V14.01,2013-09-07 15:59:00,
2013-09-07 11:00:00,79.1,45.1,0.00,SW,225,3.6,8.1,30,0.00,,---,0.00,VWS V14.01,2013-09-07 16:00:00,
2013-09-07 11:01:00,78.9,44.9,0.00,SW,225,3.6,3.8,30,0.00,,---,0.00,VWS V14.01,2013-09-07 16:01:00,
2013-09-07 11:02:00,78.9,44.9,0.00,SSW,202,5.4,5.6,30,0.00,,---,0.00,VWS V14.01,2013-09-07 16:02:00,
2013-09-07 11:03:00,78.9,44.9,0.00,SW,225,6.3,6.3,30,0.00,,---,0.00,VWS V14.01,2013-09-07 16:03:00,
2013-09-07 11:04:00,79.1,45.1,0.00,SSW,202,4.9,6.3,30,0.00,,---,0.00,VWS V14.01,2013-09-07 16:04:00,
2013-09-07 11:05:00,79.1,45.1,0.00,SSW,202,5.6,6.3,30,0.00,,---,0.00,VWS V14.01,2013-09-07 16:05:00,
2013-09-07 11:06:00,79.1,45.1,0.00,SW,225,5.6,6.3,30,0.00,,---,0.00,VWS V14.01,2013-09-07 16:06:00,
2013-09-07 11:07:00,79.3,45.2,0.00,SW,225,5.6,6.5,30,0.00,,---,0.00,VWS V14.01,2013-09-07 16:07:00,
2013-09-07 11:08:00,79.5,45.4,0.00,SW,225,6.5,6.5,30,0.00,,---,0.00,VWS V14.01,2013-09-07 16:08:00,
2013-09-07 11:09:00,79.5,45.4,0.00,SW,225,7.4,7.4,30,0.00,,---,0.00,VWS V14.01,2013-09-07 16:09:00,
2013-09-07 11:11:00,79.7,45.5,0.00,SW,225,5.4,7.4,30,0.00,,---,0.00,VWS V14.01,2013-09-07 16:11:00,
2013-09-07 11:12:00,79.8,45.7,0.00,SW,225,6.5,8.5,30,0.00,,---,0.00,VWS V14.01,2013-09-07 16:12:00,
2013-09-07 11:13:00,80.0,45.8,0.00,South,180,6.3,8.5,30,0.00,,---,0.00,VWS V14.01,2013-09-07 16:13:00,
2013-09-07 11:14:00,80.0,45.8,0.00,SW,225,6.3,8.5,30,0.00,,---,0.00,VWS V14.01,2013-09-07 16:14:00,
2013-09-07 11:15:00,80.0,45.8,0.00,SW,225,7.2,9.8,30,0.00,,---,0.00,VWS V14.01,2013-09-07 16:15:00,
2013-09-07 11:16:00,80.0,45.8,0.00,SW,225,5.8,7.2,30,0.00,,---,0.00,VWS V14.01,2013-09-07 16:16:00,
2013-09-07 11:17:00,80.0,45.8,0.00,SW,225,6.5,7.2,30,0.00,,---,0.00,VWS V14.01,2013-09-07 16:17:00,
2013-09-07 11:18:00,80.2,45.1,0.00,SW,225,8.1,10.1,29,0.00,,---,0.00,VWS V14.01,2013-09-07 16:18:00,
2013-09-07 11:19:00,80.2,45.1,0.00,SW,225,7.4,10.1,29,0.00,,---,0.00,VWS V14.01,2013-09-07 16:19:00,
2013-09-07 11:20:00,80.4,45.2,0.00,SSW,202,8.7,10.1,29,0.00,,---,0.00,VWS V14.01,2013-09-07 16:20:00,
2013-09-07 11:21:00,80.4,45.2,0.00,SW,225,6.0,10.1,29,0.00,,---,0.00,VWS V14.01,2013-09-07 16:21:00,
2013-09-07 11:22:00,80.4,45.2,0.00,SW,225,7.6,10.1,29,0.00,,---,0.00,VWS V14.01,2013-09-07 16:22:00,
2013-09-07 11:23:00,80.6,45.4,0.00,SW,225,7.2,10.1,29,0.00,,---,0.00,VWS V14.01,2013-09-07 16:23:00,
2013-09-07 11:24:00,80.6,46.3,0.00,SW,225,6.3,10.1,30,0.00,,---,0.00,VWS V14.01,2013-09-07 16:24:00,
2013-09-07 11:25:00,80.6,45.4,0.00,SW,225,7.4,10.1,29,0.00,,---,0.00,VWS V14.01,2013-09-07 16:25:00,
2013-09-07 11:26:00,80.6,45.4,0.00,SSW,202,6.0,10.1,29,0.00,,---,0.00,VWS V14.01,2013-09-07 16:26:00,
2013-09-07 11:27:00,80.7,45.6,0.00,SW,225,7.4,10.1,29,0.00,,---,0.00,VWS V14.01,2013-09-07 16:27:00,
2013-09-07 11:28:00,80.7,46.5,0.00,SW,225,8.7,10.1,30,0.00,,---,0.00,VWS V14.01,2013-09-07 16:28:00,
2013-09-07 11:29:00,80.7,46.5,0.00,SW,225,8.7,10.1,30,0.00,,---,0.00,VWS V14.01,2013-09-07 16:29:00,
2013-09-07 11:30:00,80.7,46.5,0.00,SW,225,6.0,10.1,30,0.00,,---,0.00,VWS V14.01,2013-09-07 16:30:00,
2013-09-07 11:31:00,80.7,46.5,0.00,SSW,202,10.1,10.1,30,0.00,,---,0.00,VWS V14.01,2013-09-07 16:31:00,
2013-09-07 11:32:00,80.7,46.5,0.00,SW,225,5.6,10.1,30,0.00,,---,0.00,VWS V14.01,2013-09-07 16:32:00,
2013-09-07 11:33:00,80.7,46.5,0.00,SW,225,5.4,10.1,30,0.00,,---,0.00,VWS V14.01,2013-09-07 16:33:00,
2013-09-07 11:34:00,80.6,46.3,0.00,SW,225,6.3,10.1,30,0.00,,---,0.00,VWS V14.01,2013-09-07 16:34:00,
2013-09-07 11:35:00,80.6,46.3,0.00,SW,225,5.4,10.1,30,0.00,,---,0.00,VWS V14.01,2013-09-07 16:35:00,
2013-09-07 11:36:00,80.6,46.3,0.00,SW,225,6.5,10.1,30,0.00,,---,0.00,VWS V14.01,2013-09-07 16:36:00,
2013-09-07 11:37:00,80.6,46.3,0.00,West,270,6.3,10.1,30,0.00,,---,0.00,VWS V14.01,2013-09-07 16:37:00,
2013-09-07 11:38:00,80.6,46.3,0.00,SW,225,7.6,10.1,30,0.00,,---,0.00,VWS V14.01,2013-09-07 16:38:00,
2013-09-07 11:39:00,80.4,46.1,0.00,WSW,248,5.6,10.1,30,0.00,,---,0.00,VWS V14.01,2013-09-07 16:39:00,
2013-09-07 11:40:00,80.4,46.1,0.00,SW,225,5.8,10.1,30,0.00,,---,0.00,VWS V14.01,2013-09-07 16:40:00,
2013-09-07 11:41:00,80.2,46.0,0.00,SW,225,8.7,10.1,30,0.00,,---,0.00,VWS V14.01,2013-09-07 16:41:00,
2013-09-07 11:42:00,80.2,46.0,0.00,SW,225,8.5,10.1,30,0.00,,---,0.00,VWS V14.01,2013-09-07 16:42:00,
2013-09-07 11:43:00,80.2,46.0,0.00,SW,225,5.8,10.1,30,0.00,,---,0.00,VWS V14.01,2013-09-07 16:43:00,
2013-09-07 11:44:00,80.2,46.0,0.00,SW,225,8.7,10.1,30,0.00,,---,0.00,VWS V14.01,2013-09-07 16:44:00,
2013-09-07 11:45:00,80.2,46.0,0.00,SW,225,5.4,10.1,30,0.00,,---,0.00,VWS V14.01,2013-09-07 16:45:00,
2013-09-07 11:46:00,80.0,45.8,0.00,SW,225,6.5,10.7,30,0.00,,---,0.00,VWS V14.01,2013-09-07 16:46:00,
2013-09-07 11:47:00,80.0,45.8,0.00,SW,225,8.7,10.7,30,0.00,,---,0.00,VWS V14.01,2013-09-07 16:47:00,
2013-09-07 11:48:00,80.0,45.8,0.00,SW,225,7.8,10.7,30,0.00,,---,0.00,VWS V14.01,2013-09-07 16:48:00,
2013-09-07 11:49:00,80.0,45.8,0.00,SW,225,6.0,10.7,30,0.00,,---,0.00,VWS V14.01,2013-09-07 16:49:00,
2013-09-07 11:50:00,79.8,45.7,0.00,SW,225,7.8,10.7,30,0.00,,---,0.00,VWS V14.01,2013-09-07 16:50:00,
2013-09-07 11:51:00,79.8,45.7,0.00,SW,225,7.4,10.7,30,0.00,,---,0.00,VWS V14.01,2013-09-07 16:51:00,
2013-09-07 11:52:00,79.7,45.5,0.00,WSW,248,6.5,10.7,30,0.00,,---,0.00,VWS V14.01,2013-09-07 16:52:00,
2013-09-07 11:53:00,79.7,45.5,0.00,SW,225,6.7,10.7,30,0.00,,---,0.00,VWS V14.01,2013-09-07 16:53:00,
2013-09-07 11:54:00,79.7,45.5,0.00,SW,225,6.5,10.7,30,0.00,,---,0.00,VWS V14.01,2013-09-07 16:54:00,
2013-09-07 11:55:00,79.7,45.5,0.00,SW,225,7.2,10.7,30,0.00,,---,0.00,VWS V14.01,2013-09-07 16:55:00,
2013-09-07 11:56:00,79.5,45.4,0.00,South,180,7.4,10.7,30,0.00,,---,0.00,VWS V14.01,2013-09-07 16:56:00,
2013-09-07 11:57:00,79.5,45.4,0.00,South,180,6.5,10.7,30,0.00,,---,0.00,VWS V14.01,2013-09-07 16:57:00,
2013-09-07 11:58:00,79.3,45.2,0.00,SSW,202,4.9,10.7,30,0.00,,---,0.00,VWS V14.01,2013-09-07 16:58:00,
2013-09-07 11:59:00,79.3,45.2,0.00,SW,225,6.0,11.0,30,0.00,,---,0.00,VWS V14.01,2013-09-07 16:59:00,
2013-09-07 12:01:00,79.3,45.2,0.00,SW,225,12.1,12.1,30,0.00,,---,0.00,VWS V14.01,2013-09-07 17:01:00,
2013-09-07 12:02:00,79.3,45.2,0.00,SW,225,8.1,12.1,30,0.00,,---,0.00,VWS V14.01,2013-09-07 17:02:00,
2013-09-07 12:03:00,79.3,45.2,0.00,South,180,7.2,12.1,30,0.00,,---,0.00,VWS V14.01,2013-09-07 17:03:00,
2013-09-07 12:04:00,79.3,45.2,0.00,SW,225,9.6,12.1,30,0.00,,---,0.00,VWS V14.01,2013-09-07 17:04:00,
2013-09-07 12:05:00,79.3,45.2,0.00,SW,225,7.6,12.1,30,0.00,,---,0.00,VWS V14.01,2013-09-07 17:05:00,
2013-09-07 12:06:00,79.3,45.2,0.00,WSW,248,6.0,12.1,30,0.00,,---,0.00,VWS V14.01,2013-09-07 17:06:00,
2013-09-07 12:07:00,79.3,45.2,0.00,SW,225,8.1,12.1,30,0.00,,---,0.00,VWS V14.01,2013-09-07 17:07:00,
2013-09-07 12:08:00,79.3,45.2,0.00,SW,225,6.5,12.1,30,0.00,,---,0.00,VWS V14.01,2013-09-07 17:08:00,
2013-09-07 12:10:00,79.3,45.2,0.00,SSW,202,10.1,12.1,30,0.00,,---,0.00,VWS V14.01,2013-09-07 17:10:00,
2013-09-07 12:11:00,79.3,45.2,0.00,SW,225,7.6,12.1,30,0.00,,---,0.00,VWS V14.01,2013-09-07 17:11:00,
2013-09-07 12:12:00,79.3,45.2,0.00,South,180,12.1,12.1,30,0.00,,---,0.00,VWS V14.01,2013-09-07 17:12:00,
2013-09-07 12:13:00,79.3,45.2,0.00,South,180,10.1,12.1,30,0.00,,---,0.00,VWS V14.01,2013-09-07 17:13:00,
2013-09-07 12:14:00,79.3,45.2,0.00,South,180,7.6,12.1,30,0.00,,---,0.00,VWS V14.01,2013-09-07 17:14:00,
2013-09-07 12:15:00,79.3,45.2,0.00,SW,225,7.8,12.1,30,0.00,,---,0.00,VWS V14.01,2013-09-07 17:15:00,
2013-09-07 12:16:00,79.3,45.2,0.00,SW,225,11.0,11.0,30,0.00,,---,0.00,VWS V14.01,2013-09-07 17:16:00,
2013-09-07 12:17:00,79.3,45.2,0.00,SW,225,7.8,11.0,30,0.00,,---,0.00,VWS V14.01,2013-09-07 17:17:00,
2013-09-07 12:18:00,79.3,45.2,0.00,SW,225,6.3,11.0,30,0.00,,---,0.00,VWS V14.01,2013-09-07 17:18:00,
2013-09-07 12:19:00,79.1,45.1,0.00,SW,225,6.5,11.0,30,0.00,,---,0.00,VWS V14.01,2013-09-07 17:19:00,
2013-09-07 12:20:00,79.1,45.1,0.00,SW,225,8.1,11.0,30,0.00,,---,0.00,VWS V14.01,2013-09-07 17:20:00,
2013-09-07 12:21:00,79.1,45.1,0.00,SW,225,10.1,11.0,30,0.00,,---,0.00,VWS V14.01,2013-09-07 17:21:00,
2013-09-07 12:22:00,78.9,44.9,0.00,SW,225,7.2,11.0,30,0.00,,---,0.00,VWS V14.01,2013-09-07 17:22:00,
2013-09-07 12:23:00,78.9,45.8,0.00,SW,225,7.6,11.0,31,0.00,,---,0.00,VWS V14.01,2013-09-07 17:23:00,
2013-09-07 12:24:00,78.9,44.9,0.00,SW,225,8.5,11.0,30,0.00,,---,0.00,VWS V14.01,2013-09-07 17:24:00,
2013-09-07 12:25:00,78.8,44.7,0.00,SW,225,8.1,11.0,30,0.00,,---,0.00,VWS V14.01,2013-09-07 17:25:00,
2013-09-07 12:26:00,78.8,44.7,0.00,SW,225,6.3,11.0,30,0.00,,---,0.00,VWS V14.01,2013-09-07 17:26:00,
2013-09-07 12:27:00,78.8,45.6,0.00,SW,225,10.7,11.0,31,0.00,,---,0.00,VWS V14.01,2013-09-07 17:27:00,
2013-09-07 12:28:00,78.8,44.7,0.00,SW,225,4.0,11.0,30,0.00,,---,0.00,VWS V14.01,2013-09-07 17:28:00,
2013-09-07 12:29:00,78.8,44.7,0.00,SW,225,4.0,11.0,30,0.00,,---,0.00,VWS V14.01,2013-09-07 17:29:00,
2013-09-07 12:30:00,78.6,45.5,0.00,SW,225,5.8,11.0,31,0.00,,---,0.00,VWS V14.01,2013-09-07 17:30:00,
2013-09-07 12:32:00,78.6,45.5,0.00,SSW,202,10.1,10.1,31,0.00,,---,0.00,VWS V14.01,2013-09-07 17:32:00,
2013-09-07 12:33:00,78.6,45.5,0.00,SW,225,7.6,10.1,31,0.00,,---,0.00,VWS V14.01,2013-09-07 17:33:00,
2013-09-07 12:34:00,78.6,45.5,0.00,SW,225,11.0,11.0,31,0.00,,---,0.00,VWS V14.01,2013-09-07 17:34:00,
2013-09-07 12:35:00,78.8,45.6,0.00,SW,225,8.7,11.4,31,0.00,,---,0.00,VWS V14.01,2013-09-07 17:35:00,
2013-09-07 12:36:00,78.8,44.7,0.00,SSW,202,6.0,11.4,30,0.00,,---,0.00,VWS V14.01,2013-09-07 17:36:00,
2013-09-07 12:37:00,78.8,45.6,0.00,SW,225,8.5,11.4,31,0.00,,---,0.00,VWS V14.01,2013-09-07 17:37:00,
2013-09-07 12:38:00,78.8,45.6,0.00,SW,225,6.9,11.4,31,0.00,,---,0.00,VWS V14.01,2013-09-07 17:38:00,
2013-09-07 12:39:00,78.8,45.6,0.00,SW,225,8.5,11.4,31,0.00,,---,0.00,VWS V14.01,2013-09-07 17:39:00,
2013-09-07 12:40:00,78.8,45.6,0.00,SW,225,7.4,11.4,31,0.00,,---,0.00,VWS V14.01,2013-09-07 17:40:00,
2013-09-07 12:41:00,78.6,45.5,0.00,SW,225,5.8,11.4,31,0.00,,---,0.00,VWS V14.01,2013-09-07 17:41:00,
2013-09-07 12:42:00,78.6,45.5,0.00,SW,225,7.8,11.4,31,0.00,,---,0.00,VWS V14.01,2013-09-07 17:42:00,
2013-09-07 12:43:00,78.6,45.5,0.00,South,180,10.7,11.4,31,0.00,,---,0.00,VWS V14.01,2013-09-07 17:43:00,
2013-09-07 12:44:00,78.8,45.6,0.00,SSW,202,7.4,11.4,31,0.00,,---,0.00,VWS V14.01,2013-09-07 17:44:00,
2013-09-07 12:45:00,78.8,45.6,0.00,SW,225,11.2,11.4,31,0.00,,---,0.00,VWS V14.01,2013-09-07 17:45:00,
2013-09-07 12:47:00,78.8,45.6,0.00,South,180,10.3,11.2,31,0.00,,---,0.00,VWS V14.01,2013-09-07 17:47:00,
2013-09-07 12:48:00,97.7,26.5,0.00,South,180,6.5,10.5,8,0.00,,---,0.00,VWS V14.01,2013-09-07 17:48:00,
2013-09-07 12:50:00,78.6,45.5,0.00,SW,225,6.3,11.2,31,0.00,,---,0.00,VWS V14.01,2013-09-07 17:50:00,
2013-09-07 12:51:00,78.6,45.5,0.00,SW,225,7.4,11.2,31,0.00,,---,0.00,VWS V14.01,2013-09-07 17:51:00,
2013-09-07 12:52:00,78.6,45.5,0.00,SW,225,8.7,11.2,31,0.00,,---,0.00,VWS V14.01,2013-09-07 17:52:00,
2013-09-07 12:53:00,78.6,45.5,0.00,SW,225,7.8,11.2,31,0.00,,---,0.00,VWS V14.01,2013-09-07 17:53:00,
2013-09-07 12:54:00,78.6,45.5,0.00,SW,225,5.8,11.2,31,0.00,,---,0.00,VWS V14.01,2013-09-07 17:54:00,
2013-09-07 12:55:00,78.6,45.5,0.00,WSW,248,5.8,11.2,31,0.00,,---,0.00,VWS V14.01,2013-09-07 17:55:00,
2013-09-07 12:57:00,78.6,45.5,0.00,WSW,248,5.6,11.2,31,0.00,,---,0.00,VWS V14.01,2013-09-07 17:57:00,
2013-09-07 12:58:00,78.6,45.5,0.00,SW,225,6.0,11.2,31,0.00,,---,0.00,VWS V14.01,2013-09-07 17:58:00,
2013-09-07 12:59:00,78.4,45.3,0.00,East,90,3.1,11.2,31,0.00,,---,0.00,VWS V14.01,2013-09-07 17:59:00,
2013-09-07 13:00:00,78.4,45.3,0.00,SW,225,4.9,11.2,31,0.00,,---,0.00,VWS V14.01,2013-09-07 18:00:00,
2013-09-07 13:01:00,78.4,45.3,0.00,SW,225,5.8,7.4,31,0.00,,---,0.00,VWS V14.01,2013-09-07 18:01:00,
2013-09-07 13:02:00,78.4,45.3,0.00,SW,225,5.6,7.4,31,0.00,,---,0.00,VWS V14.01,2013-09-07 18:02:00,
2013-09-07 13:03:00,78.4,45.3,0.00,SW,225,5.6,7.4,31,0.00,,---,0.00,VWS V14.01,2013-09-07 18:03:00,
2013-09-07 13:04:00,78.0,45.0,0.00,NW,315,2.5,7.4,31,0.00,,---,0.00,VWS V14.01,2013-09-07 18:04:00,
2013-09-07 13:05:00,78.0,45.0,0.00,WSW,248,6.0,7.4,31,0.00,,---,0.00,VWS V14.01,2013-09-07 18:05:00,
2013-09-07 13:06:00,77.9,44.8,0.00,NW,315,2.5,7.4,31,0.00,,---,0.00,VWS V14.01,2013-09-07 18:06:00,
2013-09-07 13:07:00,77.7,44.7,0.00,NW,315,3.6,7.4,31,0.00,,---,0.00,VWS V14.01,2013-09-07 18:07:00,
2013-09-07 13:08:00,77.7,44.7,0.00,West,270,2.5,7.4,31,0.00,,---,0.00,VWS V14.01,2013-09-07 18:08:00,
2013-09-07 13:09:00,77.5,44.5,0.00,WSW,248,4.5,7.4,31,0.00,,---,0.00,VWS V14.01,2013-09-07 18:09:00,
2013-09-07 13:10:00,77.5,44.5,0.00,SW,225,3.1,7.4,31,0.00,,---,0.00,VWS V14.01,2013-09-07 18:10:00,
2013-09-07 13:12:00,77.3,44.4,0.00,West,270,3.1,7.4,31,0.00,,---,0.00,VWS V14.01,2013-09-07 18:12:00,
2013-09-07 13:13:00,77.3,44.4,0.00,NW,315,4.3,7.4,31,0.00,,---,0.00,VWS V14.01,2013-09-07 18:13:00,
2013-09-07 13:14:00,77.1,44.2,0.00,WNW,292,2.5,7.4,31,0.00,,---,0.00,VWS V14.01,2013-09-07 18:14:00,
2013-09-07 13:15:00,77.1,45.0,0.00,West,270,2.9,7.4,32,0.00,,---,0.00,VWS V14.01,2013-09-07 18:15:00,
2013-09-07 13:16:00,77.1,45.0,0.00,West,270,3.1,4.9,32,0.00,,---,0.00,VWS V14.01,2013-09-07 18:16:00,
2013-09-07 13:17:00,77.1,45.0,0.00,SW,225,4.3,4.9,32,0.00,,---,0.00,VWS V14.01,2013-09-07 18:17:00,
2013-09-07 13:18:00,77.1,45.0,0.00,West,270,3.6,5.4,32,0.00,,---,0.00,VWS V14.01,2013-09-07 18:18:00,
2013-09-07 13:19:00,77.0,44.9,0.00,West,270,4.3,6.0,32,0.00,,---,0.00,VWS V14.01,2013-09-07 18:19:00,
2013-09-07 13:20:00,77.0,44.9,0.00,West,270,3.8,6.0,32,0.00,,---,0.00,VWS V14.01,2013-09-07 18:20:00,
2013-09-07 13:21:00,77.0,44.9,0.00,NW,315,4.0,6.0,32,0.00,,---,0.00,VWS V14.01,2013-09-07 18:21:00,
2013-09-07 13:22:00,76.6,44.6,0.00,West,270,4.0,6.0,32,0.00,,---,0.00,VWS V14.01,2013-09-07 18:22:00,
2013-09-07 13:23:00,76.4,44.4,0.00,West,270,4.3,6.0,32,0.00,,---,0.00,VWS V14.01,2013-09-07 18:23:00,
2013-09-07 13:24:00,76.2,44.2,0.00,WNW,292,4.0,6.0,32,0.00,,---,0.00,VWS V14.01,2013-09-07 18:24:00,
2013-09-07 13:25:00,76.1,44.1,0.00,NW,315,4.5,6.5,32,0.00,,---,0.00,VWS V14.01,2013-09-07 18:25:00,
2013-09-07 13:26:00,76.1,44.1,0.00,WNW,292,4.3,6.5,32,0.00,,---,0.00,VWS V14.01,2013-09-07 18:26:00,
2013-09-07 13:27:00,76.1,44.1,0.00,WNW,292,3.8,6.5,32,0.00,,---,0.00,VWS V14.01,2013-09-07 18:27:00,
2013-09-07 13:28:00,76.1,44.1,0.00,West,270,3.1,6.5,32,0.00,,---,0.00,VWS V14.01,2013-09-07 18:28:00,
2013-09-07 13:29:00,76.1,44.1,0.00,WNW,292,2.9,6.5,32,0.00,,---,0.00,VWS V14.01,2013-09-07 18:29:00,
2013-09-07 13:30:00,76.1,44.1,0.00,West,270,2.9,2.9,32,0.00,,---,0.00,VWS V14.01,2013-09-07 18:30:00,
2013-09-07 13:31:00,75.3,43.5,0.00,West,270,4.3,4.3,32,0.00,,---,0.00,VWS V14.01,2013-09-07 18:31:00,
2013-09-07 13:32:00,75.3,43.5,0.00,West,270,3.6,4.3,32,0.00,,---,0.00,VWS V14.01,2013-09-07 18:32:00,
2013-09-07 13:33:00,75.3,43.5,0.00,West,270,4.7,4.7,32,0.00,,---,0.00,VWS V14.01,2013-09-07 18:33:00,
2013-09-07 13:34:00,75.2,43.3,0.00,SW,225,4.0,4.3,32,0.00,,---,0.00,VWS V14.01,2013-09-07 18:34:00,
2013-09-07 13:35:00,75.2,43.3,0.00,WNW,292,4.3,4.3,32,0.00,,---,0.00,VWS V14.01,2013-09-07 18:35:00,
2013-09-07 13:36:00,75.2,43.3,0.00,West,270,3.1,4.3,32,0.00,,---,0.00,VWS V14.01,2013-09-07 18:36:00,
2013-09-07 13:37:00,75.2,43.3,0.00,West,270,5.8,5.8,32,0.00,,---,0.00,VWS V14.01,2013-09-07 18:37:00,
2013-09-07 13:38:00,75.3,43.5,0.00,West,270,5.6,5.6,32,0.00,,---,0.00,VWS V14.01,2013-09-07 18:38:00,
2013-09-07 13:39:00,75.3,43.5,0.00,West,270,4.9,4.9,32,0.00,,---,0.00,VWS V14.01,2013-09-07 18:39:00,
2013-09-07 13:40:00,75.3,43.5,0.00,WNW,292,6.3,6.3,32,0.00,,---,0.00,VWS V14.01,2013-09-07 18:40:00,
2013-09-07 13:41:00,75.3,43.5,0.00,West,270,5.6,5.6,32,0.00,,---,0.00,VWS V14.01,2013-09-07 18:41:00,
2013-09-07 13:42:00,75.3,43.5,0.00,West,270,5.4,5.4,32,0.00,,---,0.00,VWS V14.01,2013-09-07 18:42:00,
2013-09-07 13:43:00,75.7,43.8,0.00,West,270,4.9,4.9,32,0.00,,---,0.00,VWS V14.01,2013-09-07 18:43:00,
2013-09-07 13:44:00,75.9,43.9,0.00,NW,315,4.7,4.7,32,0.00,,---,0.00,VWS V14.01,2013-09-07 18:44:00,
2013-09-07 13:45:00,75.9,43.9,0.00,WSW,248,7.2,7.2,32,0.00,,---,0.00,VWS V14.01,2013-09-07 18:45:00,
2013-09-07 13:46:00,76.1,44.1,0.00,SW,225,4.3,7.2,32,0.00,,---,0.00,VWS V14.01,2013-09-07 18:46:00,
2013-09-07 13:47:00,76.1,44.1,0.00,SW,225,4.3,7.2,32,0.00,,---,0.00,VWS V14.01,2013-09-07 18:47:00,
2013-09-07 13:48:00,76.1,44.1,0.00,SW,225,3.8,7.2,32,0.00,,---,0.00,VWS V14.01,2013-09-07 18:48:00,
2013-09-07 13:49:00,76.2,44.2,0.00,NW,315,3.8,7.2,32,0.00,,---,0.00,VWS V14.01,2013-09-07 18:49:00,
2013-09-07 13:51:00,76.2,44.2,0.00,NW,315,3.8,7.2,32,0.00,,---,0.00,VWS V14.01,2013-09-07 18:51:00,
2013-09-07 13:52:00,76.2,44.2,0.00,West,270,3.1,7.2,32,0.00,,---,0.00,VWS V14.01,2013-09-07 18:52:00,
2013-09-07 13:53:00,76.2,44.2,0.00,SW,225,3.4,7.2,32,0.00,,---,0.00,VWS V14.01,2013-09-07 18:53:00,
2013-09-07 13:54:00,76.2,44.2,0.00,NW,315,3.8,7.2,32,0.00,,---,0.00,VWS V14.01,2013-09-07 18:54:00,
2013-09-07 13:55:00,76.2,44.2,0.00,NW,315,2.7,7.2,32,0.00,,---,0.00,VWS V14.01,2013-09-07 18:55:00,
2013-09-07 13:56:00,76.2,44.2,0.00,NW,315,4.0,7.2,32,0.00,,---,0.00,VWS V14.01,2013-09-07 18:56:00,
2013-09-07 13:57:00,76.2,44.2,0.00,NW,315,2.0,7.2,32,0.00,,---,0.00,VWS V14.01,2013-09-07 18:57:00,
2013-09-07 13:58:00,76.2,44.2,0.00,WSW,248,2.2,7.2,32,0.00,,---,0.00,VWS V14.01,2013-09-07 18:58:00,
2013-09-07 13:59:00,76.2,44.2,0.00,South,180,1.1,7.2,32,0.00,,---,0.00,VWS V14.01,2013-09-07 18:59:00,
2013-09-07 14:00:00,76.1,44.1,0.00,SW,225,3.8,7.2,32,0.00,,---,0.00,VWS V14.01,2013-09-07 19:00:00,
2013-09-07 14:01:00,76.1,44.1,0.00,SW,225,1.6,4.3,32,0.00,,---,0.00,VWS V14.01,2013-09-07 19:01:00,
2013-09-07 14:02:00,75.9,43.9,0.00,West,270,4.0,6.0,32,0.00,,---,0.00,VWS V14.01,2013-09-07 19:02:00,
2013-09-07 14:03:00,75.9,43.9,0.00,West,270,4.7,6.0,32,0.00,,---,0.00,VWS V14.01,2013-09-07 19:03:00,
2013-09-07 14:04:00,75.9,43.9,0.00,SW,225,2.5,6.0,32,0.00,,---,0.00,VWS V14.01,2013-09-07 19:04:00,
2013-09-07 14:05:00,75.7,43.8,0.00,SW,225,3.1,6.0,32,0.00,,---,0.00,VWS V14.01,2013-09-07 19:05:00,
2013-09-07 14:06:00,75.7,43.8,0.00,WSW,248,4.7,6.0,32,0.00,,---,0.00,VWS V14.01,2013-09-07 19:06:00,
2013-09-07 14:07:00,75.7,43.8,0.00,SW,225,3.6,6.0,32,0.00,,---,0.00,VWS V14.01,2013-09-07 19:07:00,
2013-09-07 14:08:00,75.7,43.8,0.00,SW,225,4.0,6.0,32,0.00,,---,0.00,VWS V14.01,2013-09-07 19:08:00,
2013-09-07 14:09:00,75.7,43.8,0.00,NW,315,3.1,6.0,32,0.00,,---,0.00,VWS V14.01,2013-09-07 19:09:00,
2013-09-07 14:10:00,75.9,43.9,0.00,SW,225,3.4,6.0,32,0.00,,---,0.00,VWS V14.01,2013-09-07 19:10:00,
2013-09-07 14:11:00,75.9,43.9,0.00,WSW,248,4.0,6.0,32,0.00,,---,0.00,VWS V14.01,2013-09-07 19:11:00,
2013-09-07 14:12:00,75.9,43.9,0.00,SW,225,2.9,7.4,32,0.00,,---,0.00,VWS V14.01,2013-09-07 19:12:00,
2013-09-07 14:13:00,75.9,43.9,0.00,West,270,3.1,7.4,32,0.00,,---,0.00,VWS V14.01,2013-09-07 19:13:00,
2013-09-07 14:14:00,75.9,43.9,0.00,NW,315,3.4,7.4,32,0.00,,---,0.00,VWS V14.01,2013-09-07 19:14:00,
2013-09-07 14:15:00,75.9,43.9,0.00,West,270,4.9,7.4,32,0.00,,---,0.00,VWS V14.01,2013-09-07 19:15:00,
2013-09-07 14:16:00,75.9,43.9,0.00,WSW,248,4.0,4.9,32,0.00,,---,0.00,VWS V14.01,2013-09-07 19:16:00,
2013-09-07 14:17:00,75.9,43.9,0.00,WSW,248,3.4,4.9,32,0.00,,---,0.00,VWS V14.01,2013-09-07 19:17:00,
2013-09-07 14:18:00,75.9,43.9,0.00,NW,315,3.4,4.9,32,0.00,,---,0.00,VWS V14.01,2013-09-07 19:18:00,
2013-09-07 14:19:00,75.9,43.9,0.00,WNW,292,4.0,4.9,32,0.00,,---,0.00,VWS V14.01,2013-09-07 19:19:00,
2013-09-07 14:21:00,75.9,43.9,0.00,West,270,4.0,4.9,32,0.00,,---,0.00,VWS V14.01,2013-09-07 19:21:00,
2013-09-07 14:22:00,75.9,43.9,0.00,SW,225,3.4,5.6,32,0.00,,---,0.00,VWS V14.01,2013-09-07 19:22:00,
2013-09-07 14:23:00,75.9,43.9,0.00,SW,225,4.3,5.6,32,0.00,,---,0.00,VWS V14.01,2013-09-07 19:23:00,
2013-09-07 14:24:00,76.1,44.1,0.00,WSW,248,4.3,5.6,32,0.00,,---,0.00,VWS V14.01,2013-09-07 19:24:00,
2013-09-07 14:25:00,76.1,44.1,0.00,SW,225,2.5,5.6,32,0.00,,---,0.00,VWS V14.01,2013-09-07 19:25:00,
2013-09-07 14:26:00,76.1,44.1,0.00,West,270,3.1,5.6,32,0.00,,---,0.00,VWS V14.01,2013-09-07 19:26:00,
2013-09-07 14:27:00,75.9,43.9,0.00,NW,315,3.4,5.6,32,0.00,,---,0.00,VWS V14.01,2013-09-07 19:27:00,
2013-09-07 14:28:00,75.9,43.9,0.00,West,270,4.5,6.7,32,0.00,,---,0.00,VWS V14.01,2013-09-07 19:28:00,
2013-09-07 14:29:00,76.1,44.1,0.00,West,270,3.8,6.7,32,0.00,,---,0.00,VWS V14.01,2013-09-07 19:29:00,
2013-09-07 14:30:00,76.1,44.1,0.00,West,270,4.9,6.7,32,0.00,,---,0.00,VWS V14.01,2013-09-07 19:30:00,
2013-09-07 14:31:00,75.9,43.9,0.00,West,270,3.6,5.6,32,0.00,,---,0.00,VWS V14.01,2013-09-07 19:31:00,
2013-09-07 14:32:00,75.9,43.9,0.00,West,270,4.0,5.8,32,0.00,,---,0.00,VWS V14.01,2013-09-07 19:32:00,
2013-09-07 14:33:00,75.7,43.8,0.00,West,270,3.6,5.8,32,0.00,,---,0.00,VWS V14.01,2013-09-07 19:33:00,
2013-09-07 14:34:00,75.5,43.6,0.00,West,270,3.1,5.8,32,0.00,,---,0.00,VWS V14.01,2013-09-07 19:34:00,
2013-09-07 14:35:00,75.5,43.6,0.00,West,270,3.8,5.8,32,0.00,,---,0.00,VWS V14.01,2013-09-07 19:35:00,
2013-09-07 14:36:00,75.2,43.3,0.00,West,270,4.3,5.8,32,0.00,,---,0.00,VWS V14.01,2013-09-07 19:36:00,
2013-09-07 14:37:00,75.2,43.3,0.00,West,270,3.1,5.8,32,0.00,,---,0.00,VWS V14.01,2013-09-07 19:37:00,
2013-09-07 14:38:00,75.2,43.3,0.00,West,270,4.9,5.8,32,0.00,,---,0.00,VWS V14.01,2013-09-07 19:38:00,
2013-09-07 14:39:00,75.0,43.2,0.00,NW,315,3.8,5.8,32,0.00,,---,0.00,VWS V14.01,2013-09-07 19:39:00,
2013-09-07 14:40:00,75.0,43.2,0.00,NW,315,3.6,5.8,32,0.00,,---,0.00,VWS V14.01,2013-09-07 19:40:00,
2013-09-07 14:41:00,74.8,43.0,0.00,WNW,292,4.3,5.8,32,0.00,,---,0.00,VWS V14.01,2013-09-07 19:41:00,
2013-09-07 14:43:00,104.9,8.8,0.00,South,180,7.4,12.1,3,0.00,,---,0.00,VWS V14.01,2013-09-07 19:43:00,
2013-09-07 14:44:00,74.8,43.0,0.00,West,270,4.3,5.8,32,0.00,,---,0.00,VWS V14.01,2013-09-07 19:44:00,
2013-09-07 14:45:00,74.6,43.6,0.00,West,270,4.0,5.8,33,0.00,,---,0.00,VWS V14.01,2013-09-07 19:45:00,
2013-09-07 14:46:00,74.6,43.6,0.00,NW,315,3.8,5.4,33,0.00,,---,0.00,VWS V14.01,2013-09-07 19:46:00,
2013-09-07 14:47:00,74.8,43.0,0.00,West,270,4.5,5.8,32,0.00,,---,0.00,VWS V14.01,2013-09-07 19:47:00,
2013-09-07 14:48:00,74.8,43.0,0.00,West,270,4.3,5.8,32,0.00,,---,0.00,VWS V14.01,2013-09-07 19:48:00,
2013-09-07 14:50:00,74.8,43.0,0.00,NW,315,4.9,5.8,32,0.00,,---,0.00,VWS V14.01,2013-09-07 19:50:00,
2013-09-07 14:51:00,74.6,43.6,0.00,WSW,248,3.4,5.8,33,0.00,,---,0.00,VWS V14.01,2013-09-07 19:51:00,
2013-09-07 14:52:00,74.6,43.6,0.00,West,270,4.9,6.5,33,0.00,,---,0.00,VWS V14.01,2013-09-07 19:52:00,
2013-09-07 14:53:00,74.6,43.6,0.00,West,270,5.6,6.5,33,0.00,,---,0.00,VWS V14.01,2013-09-07 19:53:00,
2013-09-07 14:54:00,74.6,43.6,0.00,West,270,4.3,6.5,33,0.00,,---,0.00,VWS V14.01,2013-09-07 19:54:00,
2013-09-07 14:56:00,74.6,43.6,0.00,WNW,292,4.0,6.5,33,0.00,,---,0.00,VWS V14.01,2013-09-07 19:56:00,
2013-09-07 14:57:00,74.6,43.6,0.00,WNW,292,5.4,6.5,33,0.00,,---,0.00,VWS V14.01,2013-09-07 19:57:00,
2013-09-07 14:58:00,74.6,43.6,0.00,West,270,4.0,6.5,33,0.00,,---,0.00,VWS V14.01,2013-09-07 19:58:00,
2013-09-07 14:59:00,74.4,43.5,0.00,West,270,4.0,6.5,33,0.00,,---,0.00,VWS V14.01,2013-09-07 19:59:00,
2013-09-07 15:00:00,74.4,43.5,0.00,West,270,5.6,6.5,33,0.00,,---,0.00,VWS V14.01,2013-09-07 20:00:00,
2013-09-07 15:01:00,74.4,43.5,0.00,West,270,5.6,5.6,33,0.00,,---,0.00,VWS V14.01,2013-09-07 20:01:00,
2013-09-07 15:02:00,74.4,43.5,0.00,NW,315,4.0,5.6,33,0.00,,---,0.00,VWS V14.01,2013-09-07 20:02:00,
2013-09-07 15:03:00,74.4,43.5,0.00,WSW,248,4.3,5.6,33,0.00,,---,0.00,VWS V14.01,2013-09-07 20:03:00,
2013-09-07 15:04:00,74.4,43.5,0.00,WNW,292,3.8,5.6,33,0.00,,---,0.00,VWS V14.01,2013-09-07 20:04:00,
2013-09-07 15:05:00,74.4,43.5,0.00,West,270,3.8,5.6,33,0.00,,---,0.00,VWS V14.01,2013-09-07 20:05:00,
2013-09-07 15:06:00,74.4,43.5,0.00,West,270,4.3,5.6,33,0.00,,---,0.00,VWS V14.01,2013-09-07 20:06:00,
2013-09-07 15:07:00,74.4,43.5,0.00,West,270,3.8,5.6,33,0.00,,---,0.00,VWS V14.01,2013-09-07 20:07:00,
2013-09-07 15:08:00,74.4,43.5,0.00,WNW,292,4.9,5.6,33,0.00,,---,0.00,VWS V14.01,2013-09-07 20:08:00,
2013-09-07 15:09:00,74.4,43.5,0.00,West,270,6.0,6.0,33,0.00,,---,0.00,VWS V14.01,2013-09-07 20:09:00,
2013-09-07 15:10:00,74.4,43.5,0.00,West,270,4.3,6.0,33,0.00,,---,0.00,VWS V14.01,2013-09-07 20:10:00,
2013-09-07 15:11:00,74.4,43.5,0.00,West,270,4.0,6.0,33,0.00,,---,0.00,VWS V14.01,2013-09-07 20:11:00,
2013-09-07 15:12:00,74.4,43.5,0.00,West,270,3.8,6.0,33,0.00,,---,0.00,VWS V14.01,2013-09-07 20:12:00,
2013-09-07 15:13:00,74.4,43.5,0.00,West,270,5.6,6.0,33,0.00,,---,0.00,VWS V14.01,2013-09-07 20:13:00,
2013-09-07 15:14:00,74.4,43.5,0.00,West,270,3.8,6.0,33,0.00,,---,0.00,VWS V14.01,2013-09-07 20:14:00,
2013-09-07 15:15:00,74.4,43.5,0.00,NW,315,4.9,6.0,33,0.00,,---,0.00,VWS V14.01,2013-09-07 20:15:00,
2013-09-07 15:16:00,74.6,43.6,0.00,West,270,4.0,7.8,33,0.00,,---,0.00,VWS V14.01,2013-09-07 20:16:00,
2013-09-07 15:17:00,74.6,43.6,0.00,West,270,2.7,7.8,33,0.00,,---,0.00,VWS V14.01,2013-09-07 20:17:00,
2013-09-07 15:18:00,74.6,43.6,0.00,West,270,3.8,7.8,33,0.00,,---,0.00,VWS V14.01,2013-09-07 20:18:00,
2013-09-07 15:19:00,74.6,43.6,0.00,WNW,292,5.4,7.8,33,0.00,,---,0.00,VWS V14.01,2013-09-07 20:19:00,
2013-09-07 15:20:00,74.6,43.6,0.00,West,270,4.7,7.8,33,0.00,,---,0.00,VWS V14.01,2013-09-07 20:20:00,
2013-09-07 15:21:00,74.8,43.8,0.00,NW,315,4.9,7.8,33,0.00,,---,0.00,VWS V14.01,2013-09-07 20:21:00,
2013-09-07 15:22:00,75.0,44.0,0.00,NW,315,4.9,7.8,33,0.00,,---,0.00,VWS V14.01,2013-09-07 20:22:00,
2013-09-07 15:23:00,75.0,43.2,0.00,NW,315,4.3,7.8,32,0.00,,---,0.00,VWS V14.01,2013-09-07 20:23:00,
2013-09-07 15:24:00,75.2,43.3,0.00,West,270,4.9,7.8,32,0.00,,---,0.00,VWS V14.01,2013-09-07 20:24:00,
2013-09-07 15:25:00,75.2,43.3,0.00,West,270,4.9,7.8,32,0.00,,---,0.00,VWS V14.01,2013-09-07 20:25:00,
2013-09-07 15:26:00,75.2,43.3,0.00,West,270,4.9,7.8,32,0.00,,---,0.00,VWS V14.01,2013-09-07 20:26:00,
2013-09-07 15:27:00,75.2,43.3,0.00,West,270,4.9,7.8,32,0.00,,---,0.00,VWS V14.01,2013-09-07 20:27:00,
2013-09-07 15:28:00,75.2,43.3,0.00,West,270,4.9,7.8,32,0.00,,---,0.00,VWS V14.01,2013-09-07 20:28:00,
2013-09-07 15:29:00,75.2,43.3,0.00,West,270,4.0,7.8,32,0.00,,---,0.00,VWS V14.01,2013-09-07 20:29:00,
2013-09-07 15:30:00,75.2,43.3,0.00,WNW,292,4.9,7.8,32,0.00,,---,0.00,VWS V14.01,2013-09-07 20:30:00,
2013-09-07 15:31:00,75.0,43.2,0.00,West,270,3.8,4.9,32,0.00,,---,0.00,VWS V14.01,2013-09-07 20:31:00,
2013-09-07 15:32:00,74.8,43.0,0.00,West,270,3.4,4.9,32,0.00,,---,0.00,VWS V14.01,2013-09-07 20:32:00,
2013-09-07 15:33:00,74.8,43.0,0.00,West,270,4.0,4.9,32,0.00,,---,0.00,VWS V14.01,2013-09-07 20:33:00,
2013-09-07 15:34:00,74.6,43.6,0.00,West,270,4.0,4.9,33,0.00,,---,0.00,VWS V14.01,2013-09-07 20:34:00,
2013-09-07 15:35:00,74.4,43.5,0.00,West,270,4.3,4.9,33,0.00,,---,0.00,VWS V14.01,2013-09-07 20:35:00,
2013-09-07 15:36:00,74.3,43.3,0.00,West,270,4.7,4.9,33,0.00,,---,0.00,VWS V14.01,2013-09-07 20:36:00,
2013-09-07 15:37:00,74.3,43.3,0.00,West,270,3.1,4.9,33,0.00,,---,0.00,VWS V14.01,2013-09-07 20:37:00,
2013-09-07 15:38:00,74.1,43.2,0.00,West,270,2.7,4.9,33,0.00,,---,0.00,VWS V14.01,2013-09-07 20:38:00,
2013-09-07 15:39:00,74.1,43.2,0.00,NW,315,3.6,4.9,33,0.00,,---,0.00,VWS V14.01,2013-09-07 20:39:00,
2013-09-07 15:40:00,73.7,42.9,0.00,WNW,292,3.1,4.9,33,0.00,,---,0.00,VWS V14.01,2013-09-07 20:40:00,
2013-09-07 15:41:00,73.5,42.7,0.00,West,270,2.5,4.9,33,0.00,,---,0.00,VWS V14.01,2013-09-07 20:41:00,
2013-09-07 15:42:00,73.5,42.7,0.00,NW,315,2.0,4.9,33,0.00,,---,0.00,VWS V14.01,2013-09-07 20:42:00,
2013-09-07 15:43:00,73.5,42.7,0.00,West,270,3.6,4.9,33,0.00,,---,0.00,VWS V14.01,2013-09-07 20:43:00,
2013-09-07 15:44:00,73.2,42.4,0.00,West,270,3.4,4.9,33,0.00,,---,0.00,VWS V14.01,2013-09-07 20:44:00,
2013-09-07 15:45:00,73.2,42.4,0.00,West,270,2.5,4.9,33,0.00,,---,0.00,VWS V14.01,2013-09-07 20:45:00,
2013-09-07 15:46:00,72.8,42.8,0.00,West,270,2.9,3.4,34,0.00,,---,0.00,VWS V14.01,2013-09-07 20:46:00,
2013-09-07 15:47:00,72.6,42.7,0.00,West,270,2.5,3.4,34,0.00,,---,0.00,VWS V14.01,2013-09-07 20:47:00,
2013-09-07 15:48:00,72.5,42.5,0.00,West,270,2.7,3.4,34,0.00,,---,0.00,VWS V14.01,2013-09-07 20:48:00,
2013-09-07 15:49:00,72.5,42.5,0.00,West,270,3.4,4.3,34,0.00,,---,0.00,VWS V14.01,2013-09-07 20:49:00,
2013-09-07 15:50:00,72.3,42.4,0.00,West,270,3.4,4.3,34,0.00,,---,0.00,VWS V14.01,2013-09-07 20:50:00,
2013-09-07 15:51:00,72.3,42.4,0.00,West,270,3.6,4.3,34,0.00,,---,0.00,VWS V14.01,2013-09-07 20:51:00,
2013-09-07 15:52:00,72.3,42.4,0.00,West,270,2.9,4.3,34,0.00,,---,0.00,VWS V14.01,2013-09-07 20:52:00,
2013-09-07 15:53:00,72.1,42.2,0.00,West,270,3.8,4.3,34,0.00,,---,0.00,VWS V14.01,2013-09-07 20:53:00,
2013-09-07 15:54:00,71.9,42.1,0.00,NW,315,3.8,4.3,34,0.00,,---,0.00,VWS V14.01,2013-09-07 20:54:00,
2013-09-07 15:55:00,71.9,42.1,0.00,West,270,3.1,4.3,34,0.00,,---,0.00,VWS V14.01,2013-09-07 20:55:00,
2013-09-07 15:56:00,71.9,42.1,0.00,West,270,4.3,4.3,34,0.00,,---,0.00,VWS V14.01,2013-09-07 20:56:00,
2013-09-07 15:57:00,71.9,42.1,0.00,West,270,4.3,4.3,34,0.00,,---,0.00,VWS V14.01,2013-09-07 20:57:00,
2013-09-07 15:58:00,71.7,41.9,0.00,WNW,292,3.8,4.3,34,0.00,,---,0.00,VWS V14.01,2013-09-07 20:58:00,
2013-09-07 15:59:00,71.7,41.9,0.00,West,270,4.5,4.5,34,0.00,,---,0.00,VWS V14.01,2013-09-07 20:59:00,
2013-09-07 16:00:00,71.7,41.9,0.00,West,270,4.5,4.5,34,0.00,,---,0.00,VWS V14.01,2013-09-07 21:00:00,
2013-09-07 16:01:00,71.6,41.7,0.00,NW,315,3.1,3.8,34,0.00,,---,0.00,VWS V14.01,2013-09-07 21:01:00,
2013-09-07 16:02:00,71.4,41.6,0.00,West,270,3.4,3.8,34,0.00,,---,0.00,VWS V14.01,2013-09-07 21:02:00,
2013-09-07 16:03:00,71.4,41.6,0.00,West,270,3.4,3.8,34,0.00,,---,0.00,VWS V14.01,2013-09-07 21:03:00,
2013-09-07 16:04:00,71.2,41.4,0.00,West,270,4.0,4.0,34,0.00,,---,0.00,VWS V14.01,2013-09-07 21:04:00,
2013-09-07 16:05:00,71.2,41.4,0.00,West,270,3.8,4.3,34,0.00,,---,0.00,VWS V14.01,2013-09-07 21:05:00,
2013-09-07 16:06:00,71.2,41.4,0.00,WNW,292,2.9,4.3,34,0.00,,---,0.00,VWS V14.01,2013-09-07 21:06:00,
2013-09-07 16:07:00,71.2,41.4,0.00,West,270,2.9,4.3,34,0.00,,---,0.00,VWS V14.01,2013-09-07 21:07:00,
2013-09-07 16:08:00,71.0,42.0,0.00,West,270,2.5,4.3,35,0.00,,---,0.00,VWS V14.01,2013-09-07 21:08:00,
2013-09-07 16:09:00,71.0,42.0,0.00,West,270,3.1,4.3,35,0.00,,---,0.00,VWS V14.01,2013-09-07 21:09:00,
2013-09-07 16:10:00,71.0,42.0,0.00,West,270,2.9,4.3,35,0.00,,---,0.00,VWS V14.01,2013-09-07 21:10:00,
2013-09-07 16:11:00,71.0,42.0,0.00,WSW,248,2.9,4.3,35,0.00,,---,0.00,VWS V14.01,2013-09-07 21:11:00,
2013-09-07 16:12:00,71.0,42.0,0.00,West,270,2.9,4.3,35,0.00,,---,0.00,VWS V14.01,2013-09-07 21:12:00,
2013-09-07 16:13:00,70.8,41.9,0.00,West,270,2.9,4.3,35,0.00,,---,0.00,VWS V14.01,2013-09-07 21:13:00,
2013-09-07 16:14:00,70.8,41.9,0.00,West,270,2.0,4.3,35,0.00,,---,0.00,VWS V14.01,2013-09-07 21:14:00,
2013-09-07 16:15:00,70.7,41.7,0.00,WNW,292,0.9,4.3,35,0.00,,---,0.00,VWS V14.01,2013-09-07 21:15:00,
2013-09-07 16:16:00,70.5,41.5,0.00,WNW,292,0.9,0.9,35,0.00,,---,0.00,VWS V14.01,2013-09-07 21:16:00,
2013-09-07 16:17:00,70.1,41.2,0.00,NW,315,1.1,1.1,35,0.00,,---,0.00,VWS V14.01,2013-09-07 21:17:00,
2013-09-07 16:18:00,70.1,41.2,0.00,NW,315,0.0,1.1,35,0.00,,---,0.00,VWS V14.01,2013-09-07 21:18:00,
2013-09-07 16:19:00,69.6,40.8,0.00,NW,315,0.0,1.1,35,0.00,,---,0.00,VWS V14.01,2013-09-07 21:19:00,
2013-09-07 16:20:00,69.6,40.8,0.00,NW,315,1.6,2.2,35,0.00,,---,0.00,VWS V14.01,2013-09-07 21:20:00,
2013-09-07 16:21:00,69.6,40.8,0.00,NW,315,0.9,2.2,35,0.00,,---,0.00,VWS V14.01,2013-09-07 21:21:00,
2013-09-07 16:22:00,69.2,40.4,0.00,NW,315,1.1,2.2,35,0.00,,---,0.00,VWS V14.01,2013-09-07 21:22:00,
2013-09-07 16:23:00,69.0,40.3,0.00,NW,315,2.0,2.2,35,0.00,,---,0.00,VWS V14.01,2013-09-07 21:23:00,
2013-09-07 16:24:00,68.9,40.8,0.00,NW,315,1.1,2.2,36,0.00,,---,0.00,VWS V14.01,2013-09-07 21:24:00,
2013-09-07 16:25:00,68.5,40.5,0.00,NW,315,2.2,2.7,36,0.00,,---,0.00,VWS V14.01,2013-09-07 21:25:00,
2013-09-07 16:26:00,68.5,40.5,0.00,NW,315,2.9,2.9,36,0.00,,---,0.00,VWS V14.01,2013-09-07 21:26:00,
2013-09-07 16:27:00,68.3,40.4,0.00,NW,315,3.6,3.6,36,0.00,,---,0.00,VWS V14.01,2013-09-07 21:27:00,
2013-09-07 16:28:00,68.3,41.1,0.00,NW,315,3.1,4.0,37,0.00,,---,0.00,VWS V14.01,2013-09-07 21:28:00,
2013-09-07 16:29:00,68.1,40.9,0.00,NW,315,2.7,4.0,37,0.00,,---,0.00,VWS V14.01,2013-09-07 21:29:00,
2013-09-07 16:30:00,68.1,40.9,0.00,NW,315,2.5,4.0,37,0.00,,---,0.00,VWS V14.01,2013-09-07 21:30:00,
2013-09-07 16:31:00,68.1,40.9,0.00,NW,315,3.8,4.0,37,0.00,,---,0.00,VWS V14.01,2013-09-07 21:31:00,
2013-09-07 16:32:00,68.0,40.8,0.00,NNW,338,4.3,4.3,37,0.00,,---,0.00,VWS V14.01,2013-09-07 21:32:00,
2013-09-07 16:33:00,67.8,40.6,0.00,NW,315,4.3,4.3,37,0.00,,---,0.00,VWS V14.01,2013-09-07 21:33:00,
2013-09-07 16:34:00,67.8,40.6,0.00,NW,315,3.8,4.3,37,0.00,,---,0.00,VWS V14.01,2013-09-07 21:34:00,
2013-09-07 16:35:00,67.8,41.3,0.00,NW,315,3.6,4.3,38,0.00,,---,0.00,VWS V14.01,2013-09-07 21:35:00,
2013-09-07 16:36:00,67.8,41.3,0.00,North,0,2.5,4.3,38,0.00,,---,0.00,VWS V14.01,2013-09-07 21:36:00,
2013-09-07 16:37:00,67.6,41.1,0.00,North,0,2.5,4.3,38,0.00,,---,0.00,VWS V14.01,2013-09-07 21:37:00,
2013-09-07 16:38:00,67.4,41.0,0.00,North,0,2.7,4.3,38,0.00,,---,0.00,VWS V14.01,2013-09-07 21:38:00,
2013-09-07 16:39:00,67.2,40.8,0.00,NW,315,3.6,4.3,38,0.00,,---,0.00,VWS V14.01,2013-09-07 21:39:00,
2013-09-07 16:40:00,67.2,40.8,0.00,North,0,2.7,4.3,38,0.00,,---,0.00,VWS V14.01,2013-09-07 21:40:00,
2013-09-07 16:41:00,66.9,41.1,0.00,North,0,2.5,4.3,39,0.00,,---,0.00,VWS V14.01,2013-09-07 21:41:00,
2013-09-07 16:43:00,66.7,41.0,0.00,North,0,2.7,4.3,39,0.00,,---,0.00,VWS V14.01,2013-09-07 21:43:00,
2013-09-07 16:44:00,66.3,40.7,0.00,North,0,2.9,4.3,39,0.00,,---,0.00,VWS V14.01,2013-09-07 21:44:00,
2013-09-07 16:45:00,66.3,40.7,0.00,North,0,3.1,4.3,39,0.00,,---,0.00,VWS V14.01,2013-09-07 21:45:00,
2013-09-07 16:46:00,66.3,40.7,0.00,North,0,2.7,3.1,39,0.00,,---,0.00,VWS V14.01,2013-09-07 21:46:00,
2013-09-07 16:47:00,65.4,40.5,0.00,North,0,2.5,3.1,40,0.00,,---,0.00,VWS V14.01,2013-09-07 21:47:00,
2013-09-07 16:48:00,65.4,40.5,0.00,North,0,2.2,3.4,40,0.00,,---,0.00,VWS V14.01,2013-09-07 21:48:00,
2013-09-07 16:49:00,65.1,40.2,0.00,North,0,2.5,3.4,40,0.00,,---,0.00,VWS V14.01,2013-09-07 21:49:00,
2013-09-07 16:50:00,65.1,40.2,0.00,North,0,2.7,3.4,40,0.00,,---,0.00,VWS V14.01,2013-09-07 21:50:00,
2013-09-07 16:52:00,64.9,40.7,0.00,North,0,1.3,3.4,41,0.00,,---,0.00,VWS V14.01,2013-09-07 21:52:00,
2013-09-07 16:53:00,64.9,40.7,0.00,NE,45,2.9,3.4,41,0.00,,---,0.00,VWS V14.01,2013-09-07 21:53:00,
2013-09-07 16:54:00,64.5,41.0,0.00,NNE,22,3.1,3.4,42,0.00,,---,0.00,VWS V14.01,2013-09-07 21:54:00,
2013-09-07 16:55:00,64.5,41.6,0.00,NNE,22,2.9,4.3,43,0.00,,---,0.00,VWS V14.01,2013-09-07 21:55:00,
2013-09-07 16:56:00,64.5,41.6,0.00,NNE,22,3.1,4.3,43,0.00,,---,0.00,VWS V14.01,2013-09-07 21:56:00,
2013-09-07 16:57:00,64.4,41.4,0.00,North,0,2.0,4.3,43,0.00,,---,0.00,VWS V14.01,2013-09-07 21:57:00,
2013-09-07 16:58:00,64.4,41.4,0.00,North,0,3.8,4.3,43,0.00,,---,0.00,VWS V14.01,2013-09-07 21:58:00,
2013-09-07 16:59:00,64.2,41.2,0.00,North,0,2.0,4.3,43,0.00,,---,0.00,VWS V14.01,2013-09-07 21:59:00,
2013-09-07 17:00:00,64.2,41.2,0.00,North,0,2.0,4.3,43,0.00,,---,0.00,VWS V14.01,2013-09-07 22:00:00,
2013-09-07 17:01:00,64.4,42.0,0.00,NNE,22,2.2,3.6,44,0.00,,---,0.00,VWS V14.01,2013-09-07 22:01:00,
2013-09-07 17:02:00,64.5,42.2,0.00,North,0,2.9,3.6,44,0.00,,---,0.00,VWS V14.01,2013-09-07 22:02:00,
2013-09-07 17:03:00,64.9,42.5,0.00,NW,315,2.2,4.9,44,0.00,,---,0.00,VWS V14.01,2013-09-07 22:03:00,
2013-09-07 17:04:00,65.1,42.7,0.00,North,0,1.6,4.9,44,0.00,,---,0.00,VWS V14.01,2013-09-07 22:04:00,
2013-09-07 17:05:00,65.3,42.8,0.00,NNW,338,1.6,4.9,44,0.00,,---,0.00,VWS V14.01,2013-09-07 22:05:00,
2013-09-07 17:06:00,65.3,42.8,0.00,West,270,2.5,4.9,44,0.00,,---,0.00,VWS V14.01,2013-09-07 22:06:00,
2013-09-07 17:07:00,65.3,42.8,0.00,NW,315,1.6,4.9,44,0.00,,---,0.00,VWS V14.01,2013-09-07 22:07:00,
2013-09-07 17:08:00,65.6,43.1,0.00,NW,315,2.9,4.9,44,0.00,,---,0.00,VWS V14.01,2013-09-07 22:08:00,
2013-09-07 17:10:00,65.6,43.1,0.00,NW,315,1.6,4.9,44,0.00,,---,0.00,VWS V14.01,2013-09-07 22:10:00,
2013-09-07 17:11:00,65.8,43.3,0.00,West,270,2.5,4.9,44,0.00,,---,0.00,VWS V14.01,2013-09-07 22:11:00,
2013-09-07 17:12:00,65.8,43.3,0.00,NW,315,2.7,4.9,44,0.00,,---,0.00,VWS V14.01,2013-09-07 22:12:00,
2013-09-07 17:13:00,65.8,43.3,0.00,NW,315,1.6,4.9,44,0.00,,---,0.00,VWS V14.01,2013-09-07 22:13:00,
2013-09-07 17:14:00,65.8,43.3,0.00,NW,315,2.2,4.9,44,0.00,,---,0.00,VWS V14.01,2013-09-07 22:14:00,
2013-09-07 17:15:00,65.8,43.3,0.00,West,270,2.0,4.9,44,0.00,,---,0.00,VWS V14.01,2013-09-07 22:15:00,
2013-09-07 17:16:00,65.8,43.3,0.00,NW,315,1.3,2.5,44,0.00,,---,0.00,VWS V14.01,2013-09-07 22:16:00,
2013-09-07 17:17:00,65.8,43.3,0.00,WNW,292,2.7,2.7,44,0.00,,---,0.00,VWS V14.01,2013-09-07 22:17:00,
2013-09-07 17:18:00,65.8,43.3,0.00,NW,315,2.0,2.7,44,0.00,,---,0.00,VWS V14.01,2013-09-07 22:18:00,
2013-09-07 17:19:00,65.8,43.3,0.00,NW,315,1.3,2.7,44,0.00,,---,0.00,VWS V14.01,2013-09-07 22:19:00,
2013-09-07 17:20:00,65.8,43.3,0.00,NW,315,2.2,2.7,44,0.00,,---,0.00,VWS V14.01,2013-09-07 22:20:00,
2013-09-07 17:21:00,65.6,43.1,0.00,NW,315,1.3,2.7,44,0.00,,---,0.00,VWS V14.01,2013-09-07 22:21:00,
2013-09-07 17:22:00,65.6,43.1,0.00,NW,315,0.9,2.7,44,0.00,,---,0.00,VWS V14.01,2013-09-07 22:22:00,
2013-09-07 17:23:00,65.4,43.0,0.00,NW,315,0.0,2.7,44,0.00,,---,0.00,VWS V14.01,2013-09-07 22:23:00,
2013-09-07 17:24:00,65.3,42.8,0.00,NW,315,0.0,2.7,44,0.00,,---,0.00,VWS V14.01,2013-09-07 22:24:00,
2013-09-07 17:25:00,65.1,42.7,0.00,NW,315,0.0,2.7,44,0.00,,---,0.00,VWS V14.01,2013-09-07 22:25:00,
2013-09-07 17:26:00,65.1,42.7,0.00,NW,315,0.0,2.7,44,0.00,,---,0.00,VWS V14.01,2013-09-07 22:26:00,
2013-09-07 17:27:00,65.1,42.7,0.00,NW,315,0.0,2.7,44,0.00,,---,0.00,VWS V14.01,2013-09-07 22:27:00,
2013-09-07 17:28:00,65.1,42.7,0.00,NW,315,0.0,2.7,44,0.00,,---,0.00,VWS V14.01,2013-09-07 22:28:00,
2013-09-07 17:29:00,65.1,42.7,0.00,NW,315,0.0,2.7,44,0.00,,---,0.00,VWS V14.01,2013-09-07 22:29:00,
2013-09-07 17:30:00,65.1,42.7,0.00,NW,315,0.0,2.7,44,0.00,,---,0.00,VWS V14.01,2013-09-07 22:30:00,
2013-09-07 17:31:00,64.5,42.2,0.00,NW,315,0.0,0.0,44,0.00,,---,0.00,VWS V14.01,2013-09-07 22:31:00,
2013-09-07 17:32:00,64.5,42.2,0.00,NW,315,0.0,0.0,44,0.00,,---,0.00,VWS V14.01,2013-09-07 22:32:00,
2013-09-07 17:33:00,64.4,42.0,0.00,NE,45,0.0,0.0,44,0.00,,---,0.00,VWS V14.01,2013-09-07 22:33:00,
2013-09-07 17:34:00,64.2,41.8,0.00,ENE,68,2.2,2.2,44,0.00,,---,0.00,VWS V14.01,2013-09-07 22:34:00,
2013-09-07 17:35:00,64.2,41.8,0.00,ENE,68,1.3,2.2,44,0.00,,---,0.00,VWS V14.01,2013-09-07 22:35:00,
2013-09-07 17:36:00,64.2,41.8,0.00,ENE,68,1.1,2.2,44,0.00,,---,0.00,VWS V14.01,2013-09-07 22:36:00,
2013-09-07 17:37:00,64.2,41.8,0.00,East,90,1.1,2.2,44,0.00,,---,0.00,VWS V14.01,2013-09-07 22:37:00,
2013-09-07 17:38:00,64.2,41.8,0.00,East,90,0.0,2.2,44,0.00,,---,0.00,VWS V14.01,2013-09-07 22:38:00,
2013-09-07 17:39:00,64.2,41.8,0.00,East,90,0.0,2.2,44,0.00,,---,0.00,VWS V14.01,2013-09-07 22:39:00,
2013-09-07 17:40:00,64.2,41.8,0.00,East,90,0.0,2.2,44,0.00,,---,0.00,VWS V14.01,2013-09-07 22:40:00,
2013-09-07 17:41:00,64.2,41.8,0.00,East,90,1.3,2.2,44,0.00,,---,0.00,VWS V14.01,2013-09-07 22:41:00,
2013-09-07 17:42:00,64.2,41.8,0.00,East,90,1.1,2.2,44,0.00,,---,0.00,VWS V14.01,2013-09-07 22:42:00,
2013-09-07 17:43:00,64.2,41.8,0.00,East,90,1.1,2.2,44,0.00,,---,0.00,VWS V14.01,2013-09-07 22:43:00,
2013-09-07 17:44:00,64.2,41.8,0.00,ENE,68,2.2,2.2,44,0.00,,---,0.00,VWS V14.01,2013-09-07 22:44:00,
2013-09-07 17:45:00,64.0,41.7,0.00,NE,45,2.5,2.5,44,0.00,,---,0.00,VWS V14.01,2013-09-07 22:45:00,
2013-09-07 17:46:00,64.0,41.7,0.00,NE,45,3.1,3.1,44,0.00,,---,0.00,VWS V14.01,2013-09-07 22:46:00,
2013-09-07 17:47:00,63.8,42.1,0.00,NE,45,3.1,3.1,45,0.00,,---,0.00,VWS V14.01,2013-09-07 22:47:00,
2013-09-07 17:48:00,63.6,41.9,0.00,NE,45,2.9,3.4,45,0.00,,---,0.00,VWS V14.01,2013-09-07 22:48:00,
2013-09-07 17:49:00,63.6,41.9,0.00,NE,45,3.4,3.6,45,0.00,,---,0.00,VWS V14.01,2013-09-07 22:49:00,
2013-09-07 17:50:00,63.5,41.8,0.00,NE,45,3.1,3.6,45,0.00,,---,0.00,VWS V14.01,2013-09-07 22:50:00,
2013-09-07 17:51:00,63.5,41.8,0.00,NE,45,2.7,3.6,45,0.00,,---,0.00,VWS V14.01,2013-09-07 22:51:00,
2013-09-07 17:52:00,63.5,41.8,0.00,NE,45,2.9,3.6,45,0.00,,---,0.00,VWS V14.01,2013-09-07 22:52:00,
2013-09-07 17:53:00,63.3,41.6,0.00,NE,45,2.2,3.6,45,0.00,,---,0.00,VWS V14.01,2013-09-07 22:53:00,
2013-09-07 17:54:00,63.3,41.6,0.00,NE,45,1.3,3.6,45,0.00,,---,0.00,VWS V14.01,2013-09-07 22:54:00,
2013-09-07 17:55:00,63.5,41.8,0.00,NE,45,0.0,3.6,45,0.00,,---,0.00,VWS V14.01,2013-09-07 22:55:00,
2013-09-07 17:56:00,63.5,41.8,0.00,NE,45,0.0,3.6,45,0.00,,---,0.00,VWS V14.01,2013-09-07 22:56:00,
2013-09-07 17:57:00,63.5,41.8,0.00,NE,45,0.0,3.6,45,0.00,,---,0.00,VWS V14.01,2013-09-07 22:57:00,
2013-09-07 17:58:00,63.5,41.8,0.00,NE,45,0.0,3.6,45,0.00,,---,0.00,VWS V14.01,2013-09-07 22:58:00,
2013-09-07 17:59:00,63.5,41.8,0.00,NE,45,0.0,3.6,45,0.00,,---,0.00,VWS V14.01,2013-09-07 22:59:00,
2013-09-07 18:00:00,63.5,41.8,0.00,NE,45,0.0,3.6,45,0.00,,---,0.00,VWS V14.01,2013-09-07 23:00:00,
2013-09-07 18:01:00,63.5,41.8,0.00,NE,45,0.0,0.0,45,0.00,,---,0.00,VWS V14.01,2013-09-07 23:01:00,
2013-09-07 18:02:00,63.5,41.8,0.00,NE,45,0.0,0.0,45,0.00,,---,0.00,VWS V14.01,2013-09-07 23:02:00,
2013-09-07 18:03:00,63.3,42.2,0.00,NE,45,0.0,0.0,46,0.00,,---,0.00,VWS V14.01,2013-09-07 23:03:00,
2013-09-07 18:04:00,63.3,42.2,0.00,NE,45,0.0,0.0,46,0.00,,---,0.00,VWS V14.01,2013-09-07 23:04:00,
2013-09-07 18:05:00,63.1,42.0,0.00,NE,45,0.0,0.0,46,0.00,,---,0.00,VWS V14.01,2013-09-07 23:05:00,
2013-09-07 18:06:00,62.9,41.3,0.00,NE,45,0.0,0.0,45,0.00,,---,0.00,VWS V14.01,2013-09-07 23:06:00,
2013-09-07 18:07:00,62.9,41.3,0.00,NE,45,0.0,0.0,45,0.00,,---,0.00,VWS V14.01,2013-09-07 23:07:00,
2013-09-07 18:08:00,62.9,41.3,0.00,NE,45,0.0,0.0,45,0.00,,---,0.00,VWS V14.01,2013-09-07 23:08:00,
2013-09-07 18:09:00,62.7,41.1,0.00,NE,45,0.0,0.0,45,0.00,,---,0.00,VWS V14.01,2013-09-07 23:09:00,
2013-09-07 18:10:00,62.6,41.5,0.00,NE,45,0.0,0.0,46,0.00,,---,0.00,VWS V14.01,2013-09-07 23:10:00,
2013-09-07 18:11:00,62.6,41.5,0.00,NE,45,0.0,0.0,46,0.00,,---,0.00,VWS V14.01,2013-09-07 23:11:00,
2013-09-07 18:12:00,62.4,41.3,0.00,NE,45,0.0,0.0,46,0.00,,---,0.00,VWS V14.01,2013-09-07 23:12:00,
2013-09-07 18:13:00,62.2,41.2,0.00,NE,45,0.0,0.0,46,0.00,,---,0.00,VWS V14.01,2013-09-07 23:13:00,
2013-09-07 18:14:00,62.2,41.2,0.00,NE,45,0.0,0.0,46,0.00,,---,0.00,VWS V14.01,2013-09-07 23:14:00,
2013-09-07 18:15:00,62.0,41.0,0.00,NE,45,0.0,0.0,46,0.00,,---,0.00,VWS V14.01,2013-09-07 23:15:00,
2013-09-07 18:16:00,61.8,40.9,0.00,NE,45,0.0,0.0,46,0.00,,---,0.00,VWS V14.01,2013-09-07 23:16:00,
2013-09-07 18:17:00,61.8,40.9,0.00,NE,45,0.0,0.0,46,0.00,,---,0.00,VWS V14.01,2013-09-07 23:17:00,
2013-09-07 18:18:00,61.5,40.5,0.00,NE,45,0.0,0.0,46,0.00,,---,0.00,VWS V14.01,2013-09-07 23:18:00,
2013-09-07 18:19:00,61.5,40.5,0.00,NE,45,0.0,0.0,46,0.00,,---,0.00,VWS V14.01,2013-09-07 23:19:00,
2013-09-07 18:20:00,61.5,40.5,0.00,NE,45,0.0,0.0,46,0.00,,---,0.00,VWS V14.01,2013-09-07 23:20:00,
2013-09-07 18:21:00,61.3,40.4,0.00,NE,45,0.0,0.0,46,0.00,,---,0.00,VWS V14.01,2013-09-07 23:21:00,
2013-09-07 18:22:00,61.3,40.4,0.00,NE,45,0.0,0.0,46,0.00,,---,0.00,VWS V14.01,2013-09-07 23:22:00,
2013-09-07 18:23:00,61.3,40.4,0.00,NE,45,0.0,0.0,46,0.00,,---,0.00,VWS V14.01,2013-09-07 23:23:00,
2013-09-07 18:24:00,61.1,40.8,0.00,NE,45,0.0,0.0,47,0.00,,---,0.00,VWS V14.01,2013-09-07 23:24:00,
2013-09-07 18:26:00,61.1,40.8,0.00,NE,45,0.0,0.0,47,0.00,,---,0.00,VWS V14.01,2013-09-07 23:26:00,
2013-09-07 18:27:00,61.1,40.8,0.00,NE,45,0.0,0.0,47,0.00,,---,0.00,VWS V14.01,2013-09-07 23:27:00,
2013-09-07 18:28:00,61.1,40.8,0.00,NE,45,0.0,0.0,47,0.00,,---,0.00,VWS V14.01,2013-09-07 23:28:00,
2013-09-07 18:29:00,61.1,40.8,0.00,NE,45,0.0,0.0,47,0.00,,---,0.00,VWS V14.01,2013-09-07 23:29:00,
2013-09-07 18:30:00,61.1,40.8,0.00,NE,45,0.0,0.0,47,0.00,,---,0.00,VWS V14.01,2013-09-07 23:30:00,
2013-09-07 18:31:00,61.1,40.8,0.00,NE,45,0.0,0.0,47,0.00,,---,0.00,VWS V14.01,2013-09-07 23:31:00,
2013-09-07 18:32:00,61.1,40.8,0.00,NE,45,0.0,0.0,47,0.00,,---,0.00,VWS V14.01,2013-09-07 23:32:00,
2013-09-07 18:33:00,61.1,40.8,0.00,NE,45,0.0,0.0,47,0.00,,---,0.00,VWS V14.01,2013-09-07 23:33:00,
2013-09-07 18:34:00,61.1,40.8,0.00,NE,45,0.0,0.0,47,0.00,,---,0.00,VWS V14.01,2013-09-07 23:34:00,
2013-09-07 18:35:00,61.1,40.8,0.00,NE,45,0.0,0.0,47,0.00,,---,0.00,VWS V14.01,2013-09-07 23:35:00,
2013-09-07 18:36:00,60.9,41.1,0.00,NE,45,0.0,0.0,48,0.00,,---,0.00,VWS V14.01,2013-09-07 23:36:00,
2013-09-07 18:37:00,60.9,41.1,0.00,NE,45,0.0,0.0,48,0.00,,---,0.00,VWS V14.01,2013-09-07 23:37:00,
2013-09-07 18:38:00,60.9,41.1,0.00,NE,45,0.0,0.0,48,0.00,,---,0.00,VWS V14.01,2013-09-07 23:38:00,
2013-09-07 18:39:00,60.8,40.4,0.00,NE,45,0.0,0.0,47,0.00,,---,0.00,VWS V14.01,2013-09-07 23:39:00,
2013-09-07 18:40:00,60.6,40.8,0.00,NE,45,0.0,0.0,48,0.00,,---,0.00,VWS V14.01,2013-09-07 23:40:00,
2013-09-07 18:41:00,60.6,40.8,0.00,NE,45,0.0,0.0,48,0.00,,---,0.00,VWS V14.01,2013-09-07 23:41:00,
2013-09-07 18:42:00,60.4,40.6,0.00,NE,45,0.0,0.0,48,0.00,,---,0.00,VWS V14.01,2013-09-07 23:42:00,
2013-09-07 18:43:00,60.4,40.6,0.00,NE,45,0.0,0.0,48,0.00,,---,0.00,VWS V14.01,2013-09-07 23:43:00,
2013-09-07 18:45:00,60.2,40.5,0.00,NE,45,0.0,0.0,48,0.00,,---,0.00,VWS V14.01,2013-09-07 23:45:00,
2013-09-07 18:46:00,60.2,40.5,0.00,NE,45,0.0,0.0,48,0.00,,---,0.00,VWS V14.01,2013-09-07 23:46:00,
2013-09-07 18:47:00,60.0,40.3,0.00,NE,45,0.0,0.0,48,0.00,,---,0.00,VWS V14.01,2013-09-07 23:47:00,
2013-09-07 18:48:00,59.9,40.7,0.00,South,180,0.0,0.0,49,0.00,,---,0.00,VWS V14.01,2013-09-07 23:48:00,
2013-09-07 18:49:00,59.9,40.7,0.00,South,180,0.0,0.0,49,0.00,,---,0.00,VWS V14.01,2013-09-07 23:49:00,
2013-09-07 18:50:00,59.9,40.7,0.00,SE,135,0.0,0.0,49,0.00,,---,0.00,VWS V14.01,2013-09-07 23:50:00,
2013-09-07 18:51:00,59.7,40.5,0.00,SE,135,0.0,0.0,49,0.00,,---,0.00,VWS V14.01,2013-09-07 23:51:00,
2013-09-07 18:52:00,59.7,40.5,0.00,SE,135,0.0,0.0,49,0.00,,---,0.00,VWS V14.01,2013-09-07 23:52:00,
2013-09-07 18:53:00,59.7,40.5,0.00,SE,135,0.0,0.0,49,0.00,,---,0.00,VWS V14.01,2013-09-07 23:53:00,
2013-09-07 18:54:00,59.5,40.3,0.00,SE,135,0.0,0.0,49,0.00,,---,0.00,VWS V14.01,2013-09-07 23:54:00,
2013-09-07 18:55:00,59.5,40.3,0.00,SE,135,1.1,1.1,49,0.00,,---,0.00,VWS V14.01,2013-09-07 23:55:00,
2013-09-07 18:56:00,59.5,40.9,0.00,SE,135,1.3,1.3,50,0.00,,---,0.00,VWS V14.01,2013-09-07 23:56:00,
2013-09-07 18:57:00,59.5,40.9,0.00,SE,135,1.1,1.3,50,0.00,,---,0.00,VWS V14.01,2013-09-07 23:57:00,
2013-09-07 18:58:00,59.5,40.9,0.00,SE,135,1.1,2.2,50,0.00,,---,0.00,VWS V14.01,2013-09-07 23:58:00,
2013-09-07 18:59:00,59.5,40.9,0.00,SE,135,0.0,2.2,50,0.00,,---,0.00,VWS V14.01,2013-09-07 23:59:00,
2013-09-07 19:00:00,59.5,40.9,0.00,SE,135,1.6,2.2,50,0.00,,---,0.00,VWS V14.01,2013-09-08 00:00:00,
2013-09-07 19:01:00,59.5,40.9,0.00,SE,135,0.9,1.6,50,0.00,,---,0.00,VWS V14.01,2013-09-08 00:01:00,
2013-09-07 19:02:00,59.5,40.9,0.00,SE,135,0.9,1.6,50,0.00,,---,0.00,VWS V14.01,2013-09-08 00:02:00,
2013-09-07 19:03:00,59.5,40.9,0.00,SE,135,0.9,1.6,50,0.00,,---,0.00,VWS V14.01,2013-09-08 00:03:00,
2013-09-07 19:04:00,59.3,40.7,0.00,SE,135,1.1,1.6,50,0.00,,---,0.00,VWS V14.01,2013-09-08 00:04:00,
2013-09-07 19:05:00,59.3,40.7,0.00,SE,135,1.3,1.6,50,0.00,,---,0.00,VWS V14.01,2013-09-08 00:05:00,
2013-09-07 19:06:00,59.3,40.7,0.00,SE,135,0.0,1.6,50,0.00,,---,0.00,VWS V14.01,2013-09-08 00:06:00,
2013-09-07 19:07:00,59.3,40.7,0.00,SE,135,0.0,1.6,50,0.00,,---,0.00,VWS V14.01,2013-09-08 00:07:00,
2013-09-07 19:08:00,59.3,40.7,0.00,SE,135,0.0,1.6,50,0.00,,---,0.00,VWS V14.01,2013-09-08 00:08:00,
2013-09-07 19:09:00,59.3,40.7,0.00,SE,135,0.0,1.6,50,0.00,,---,0.00,VWS V14.01,2013-09-08 00:09:00,
2013-09-07 19:10:00,59.3,41.7,0.00,West,270,1.3,1.6,52,0.00,,---,0.00,VWS V14.01,2013-09-08 00:10:00,
2013-09-07 19:11:00,95.3,2.5,0.00,South,180,7.4,8.7,3,0.00,,---,0.00,VWS V14.01,2013-09-08 00:11:00,
2013-09-07 19:12:00,59.1,41.5,0.00,NW,315,0.0,2.7,52,0.00,,---,0.00,VWS V14.01,2013-09-08 00:12:00,
2013-09-07 19:13:00,59.1,41.5,0.00,NW,315,0.0,2.7,52,0.00,,---,0.00,VWS V14.01,2013-09-08 00:13:00,
2013-09-07 19:14:00,59.0,41.4,0.00,NW,315,0.0,2.7,52,0.00,,---,0.00,VWS V14.01,2013-09-08 00:14:00,
2013-09-07 19:15:00,59.0,41.4,0.00,NW,315,0.0,2.7,52,0.00,,---,0.00,VWS V14.01,2013-09-08 00:15:00,
2013-09-07 19:16:00,59.0,41.4,0.00,NW,315,1.6,1.6,52,0.00,,---,0.00,VWS V14.01,2013-09-08 00:16:00,
2013-09-07 19:17:00,59.0,41.9,0.00,NW,315,1.3,2.0,53,0.00,,---,0.00,VWS V14.01,2013-09-08 00:17:00,
2013-09-07 19:18:00,58.8,41.7,0.00,NW,315,0.9,2.0,53,0.00,,---,0.00,VWS V14.01,2013-09-08 00:18:00,
2013-09-07 19:19:00,58.8,41.7,0.00,NW,315,1.6,2.0,53,0.00,,---,0.00,VWS V14.01,2013-09-08 00:19:00,
2013-09-07 19:20:00,58.8,41.7,0.00,NW,315,0.9,2.0,53,0.00,,---,0.00,VWS V14.01,2013-09-08 00:20:00,
2013-09-07 19:21:00,58.8,41.7,0.00,NW,315,0.9,2.0,53,0.00,,---,0.00,VWS V14.01,2013-09-08 00:21:00,
2013-09-07 19:22:00,58.8,41.7,0.00,NW,315,1.3,2.0,53,0.00,,---,0.00,VWS V14.01,2013-09-08 00:22:00,
2013-09-07 19:23:00,58.8,42.2,0.00,NW,315,0.0,2.0,54,0.00,,---,0.00,VWS V14.01,2013-09-08 00:23:00,
2013-09-07 19:24:00,58.8,42.2,0.00,NW,315,0.0,2.0,54,0.00,,---,0.00,VWS V14.01,2013-09-08 00:24:00,
2013-09-07 19:25:00,58.8,42.2,0.00,NW,315,0.0,2.0,54,0.00,,---,0.00,VWS V14.01,2013-09-08 00:25:00,
2013-09-07 19:26:00,58.6,41.5,0.00,NW,315,0.0,2.0,53,0.00,,---,0.00,VWS V14.01,2013-09-08 00:26:00,
2013-09-07 19:27:00,58.6,41.5,0.00,NW,315,1.6,2.0,53,0.00,,---,0.00,VWS V14.01,2013-09-08 00:27:00,
2013-09-07 19:28:00,58.6,42.0,0.00,NW,315,2.2,2.2,54,0.00,,---,0.00,VWS V14.01,2013-09-08 00:28:00,
2013-09-07 19:29:00,58.6,42.0,0.00,NW,315,1.1,2.2,54,0.00,,---,0.00,VWS V14.01,2013-09-08 00:29:00,
2013-09-07 19:30:00,58.6,42.0,0.00,NW,315,1.1,2.2,54,0.00,,---,0.00,VWS V14.01,2013-09-08 00:30:00,
2013-09-07 19:31:00,58.6,42.0,0.00,NW,315,0.0,1.1,54,0.00,,---,0.00,VWS V14.01,2013-09-08 00:31:00,
2013-09-07 19:32:00,58.6,42.0,0.00,NW,315,0.0,1.1,54,0.00,,---,0.00,VWS V14.01,2013-09-08 00:32:00,
2013-09-07 19:33:00,58.8,42.2,0.00,NW,315,0.0,1.1,54,0.00,,---,0.00,VWS V14.01,2013-09-08 00:33:00,
2013-09-07 19:34:00,58.8,42.2,0.00,NW,315,0.0,1.1,54,0.00,,---,0.00,VWS V14.01,2013-09-08 00:34:00,
2013-09-07 19:35:00,59.0,42.4,0.00,NW,315,0.0,1.1,54,0.00,,---,0.00,VWS V14.01,2013-09-08 00:35:00,
2013-09-07 19:36:00,59.1,42.5,0.00,NW,315,0.0,1.1,54,0.00,,---,0.00,VWS V14.01,2013-09-08 00:36:00,
2013-09-07 19:37:00,59.1,42.5,0.00,NW,315,0.0,1.1,54,0.00,,---,0.00,VWS V14.01,2013-09-08 00:37:00,
2013-09-07 19:38:00,59.3,42.7,0.00,NW,315,0.0,1.1,54,0.00,,---,0.00,VWS V14.01,2013-09-08 00:38:00,
2013-09-07 19:39:00,59.5,42.9,0.00,NW,315,0.0,1.1,54,0.00,,---,0.00,VWS V14.01,2013-09-08 00:39:00,
2013-09-07 19:40:00,59.5,42.9,0.00,NW,315,0.0,1.1,54,0.00,,---,0.00,VWS V14.01,2013-09-08 00:40:00,
2013-09-07 19:41:00,59.9,43.2,0.00,NW,315,0.0,1.1,54,0.00,,---,0.00,VWS V14.01,2013-09-08 00:41:00,
2013-09-07 19:43:00,60.2,43.5,0.00,NW,315,0.0,1.1,54,0.00,,---,0.00,VWS V14.01,2013-09-08 00:43:00,
2013-09-07 19:44:00,60.6,43.4,0.00,NW,315,0.0,1.1,53,0.00,,---,0.00,VWS V14.01,2013-09-08 00:44:00,
2013-09-07 19:45:00,60.8,43.5,0.00,NW,315,0.0,1.1,53,0.00,,---,0.00,VWS V14.01,2013-09-08 00:45:00,
2013-09-07 19:46:00,60.8,43.5,0.00,NW,315,0.0,0.0,53,0.00,,---,0.00,VWS V14.01,2013-09-08 00:46:00,
2013-09-07 19:47:00,60.8,43.5,0.00,NW,315,0.0,0.0,53,0.00,,---,0.00,VWS V14.01,2013-09-08 00:47:00,
2013-09-07 19:48:00,61.3,44.0,0.00,NW,315,0.0,0.0,53,0.00,,---,0.00,VWS V14.01,2013-09-08 00:48:00,
2013-09-07 19:49:00,61.8,44.0,0.00,NW,315,0.0,0.0,52,0.00,,---,0.00,VWS V14.01,2013-09-08 00:49:00,
2013-09-07 19:50:00,61.8,44.0,0.00,NW,315,0.0,0.0,52,0.00,,---,0.00,VWS V14.01,2013-09-08 00:50:00,
2013-09-07 19:51:00,62.2,44.4,0.00,NW,315,0.0,0.0,52,0.00,,---,0.00,VWS V14.01,2013-09-08 00:51:00,
2013-09-07 19:52:00,62.2,44.4,0.00,NW,315,0.0,0.0,52,0.00,,---,0.00,VWS V14.01,2013-09-08 00:52:00,
2013-09-07 19:53:00,62.6,44.7,0.00,NW,315,0.0,0.0,52,0.00,,---,0.00,VWS V14.01,2013-09-08 00:53:00,
2013-09-07 19:54:00,62.6,44.7,0.00,NW,315,0.0,0.0,52,0.00,,---,0.00,VWS V14.01,2013-09-08 00:54:00,
2013-09-07 19:55:00,62.7,44.4,0.00,NW,315,0.0,0.0,51,0.00,,---,0.00,VWS V14.01,2013-09-08 00:55:00,
2013-09-07 19:56:00,62.7,44.4,0.00,NW,315,0.0,0.0,51,0.00,,---,0.00,VWS V14.01,2013-09-08 00:56:00,
2013-09-07 19:57:00,62.7,44.4,0.00,NW,315,0.0,0.0,51,0.00,,---,0.00,VWS V14.01,2013-09-08 00:57:00,
2013-09-07 19:58:00,63.6,45.2,0.00,NW,315,0.0,0.0,51,0.00,,---,0.00,VWS V14.01,2013-09-08 00:58:00,
2013-09-07 19:59:00,63.6,45.2,0.00,NW,315,0.0,0.0,51,0.00,,---,0.00,VWS V14.01,2013-09-08 00:59:00,
2013-09-07 20:01:00,64.0,45.0,0.00,NW,315,0.0,0.0,50,0.00,,---,0.00,VWS V14.01,2013-09-08 01:01:00,
2013-09-07 20:02:00,64.2,45.2,0.00,NW,315,0.0,0.0,50,0.00,,---,0.00,VWS V14.01,2013-09-08 01:02:00,
2013-09-07 20:03:00,64.5,45.0,0.00,NW,315,0.0,0.0,49,0.00,,---,0.00,VWS V14.01,2013-09-08 01:03:00,
2013-09-07 20:04:00,64.9,45.3,0.00,NW,315,0.0,0.0,49,0.00,,---,0.00,VWS V14.01,2013-09-08 01:04:00,
2013-09-07 20:05:00,65.1,45.5,0.00,NW,315,0.0,0.0,49,0.00,,---,0.00,VWS V14.01,2013-09-08 01:05:00,
2013-09-07 20:06:00,65.3,45.6,0.00,NW,315,0.0,0.0,49,0.00,,---,0.00,VWS V14.01,2013-09-08 01:06:00,
2013-09-07 20:07:00,65.8,45.6,0.00,NW,315,0.0,0.0,48,0.00,,---,0.00,VWS V14.01,2013-09-08 01:07:00,
2013-09-07 20:08:00,65.8,45.6,0.00,NW,315,0.0,0.0,48,0.00,,---,0.00,VWS V14.01,2013-09-08 01:08:00,
2013-09-07 20:09:00,65.8,45.6,0.00,NW,315,0.0,0.0,48,0.00,,---,0.00,VWS V14.01,2013-09-08 01:09:00,
2013-09-07 20:10:00,66.3,46.1,0.00,NW,315,0.0,0.0,48,0.00,,---,0.00,VWS V14.01,2013-09-08 01:10:00,
2013-09-07 20:11:00,66.5,46.2,0.00,NW,315,0.0,0.0,48,0.00,,---,0.00,VWS V14.01,2013-09-08 01:11:00,
2013-09-07 20:12:00,66.9,46.6,0.00,NW,315,0.0,0.0,48,0.00,,---,0.00,VWS V14.01,2013-09-08 01:12:00,
2013-09-07 20:13:00,67.1,46.2,0.00,NW,315,0.0,0.0,47,0.00,,---,0.00,VWS V14.01,2013-09-08 01:13:00,
2013-09-07 20:14:00,67.2,46.3,0.00,NW,315,0.0,0.0,47,0.00,,---,0.00,VWS V14.01,2013-09-08 01:14:00,
2013-09-07 20:15:00,67.2,46.3,0.00,SSE,158,0.0,0.0,47,0.00,,---,0.00,VWS V14.01,2013-09-08 01:15:00,
2013-09-07 20:16:00,67.6,46.7,0.00,SSE,158,0.0,0.0,47,0.00,,---,0.00,VWS V14.01,2013-09-08 01:16:00,
2013-09-07 20:17:00,67.8,46.3,0.00,SSE,158,0.0,0.0,46,0.00,,---,0.00,VWS V14.01,2013-09-08 01:17:00,
2013-09-07 20:18:00,68.0,46.4,0.00,SSE,158,0.0,0.0,46,0.00,,---,0.00,VWS V14.01,2013-09-08 01:18:00,
2013-09-07 20:19:00,68.3,46.8,0.00,SSE,158,0.0,0.0,46,0.00,,---,0.00,VWS V14.01,2013-09-08 01:19:00,
2013-09-07 20:20:00,68.5,46.9,0.00,SSE,158,0.0,0.0,46,0.00,,---,0.00,VWS V14.01,2013-09-08 01:20:00,
2013-09-07 20:21:00,68.7,47.1,0.00,SSE,158,0.0,0.0,46,0.00,,---,0.00,VWS V14.01,2013-09-08 01:21:00,
2013-09-07 20:22:00,68.9,47.2,0.00,SSE,158,0.0,0.0,46,0.00,,---,0.00,VWS V14.01,2013-09-08 01:22:00,
2013-09-07 20:23:00,69.0,47.4,0.00,SSE,158,0.0,0.0,46,0.00,,---,0.00,VWS V14.01,2013-09-08 01:23:00,
2013-09-07 20:24:00,69.0,47.4,0.00,SSE,158,0.0,0.0,46,0.00,,---,0.00,VWS V14.01,2013-09-08 01:24:00,
2013-09-07 20:25:00,69.0,47.4,0.00,SSE,158,0.0,0.0,46,0.00,,---,0.00,VWS V14.01,2013-09-08 01:25:00,
2013-09-07 20:26:00,69.6,47.3,0.00,SSE,158,0.0,0.0,45,0.00,,---,0.00,VWS V14.01,2013-09-08 01:26:00,
2013-09-07 20:27:00,69.9,47.7,0.00,SSE,158,0.0,0.0,45,0.00,,---,0.00,VWS V14.01,2013-09-08 01:27:00,
2013-09-07 20:28:00,70.3,48.0,0.00,SSE,158,0.0,0.0,45,0.00,,---,0.00,VWS V14.01,2013-09-08 01:28:00,
2013-09-07 20:29:00,70.5,48.1,0.00,SSE,158,0.0,0.0,45,0.00,,---,0.00,VWS V14.01,2013-09-08 01:29:00,
2013-09-07 20:30:00,70.7,48.3,0.00,South,180,0.0,0.0,45,0.00,,---,0.00,VWS V14.01,2013-09-08 01:30:00,
2013-09-07 20:31:00,71.0,48.6,0.00,SSW,202,0.0,0.0,45,0.00,,---,0.00,VWS V14.01,2013-09-08 01:31:00,
2013-09-07 20:32:00,71.0,48.6,0.00,SSW,202,0.0,0.0,45,0.00,,---,0.00,VWS V14.01,2013-09-08 01:32:00,
2013-09-07 20:33:00,71.2,48.2,0.00,SSW,202,0.0,0.0,44,0.00,,---,0.00,VWS V14.01,2013-09-08 01:33:00,
2013-09-07 20:35:00,71.4,48.4,0.00,South,180,2.0,2.0,44,0.00,,---,0.00,VWS V14.01,2013-09-08 01:35:00,
2013-09-07 20:36:00,72.1,49.6,0.00,South,180,0.0,2.0,45,0.00,,---,0.00,VWS V14.01,2013-09-08 01:36:00,
2013-09-07 20:37:00,72.1,49.0,0.00,South,180,1.6,2.0,44,0.00,,---,0.00,VWS V14.01,2013-09-08 01:37:00,
2013-09-07 20:38:00,72.3,49.2,0.00,South,180,0.0,2.0,44,0.00,,---,0.00,VWS V14.01,2013-09-08 01:38:00,
2013-09-07 20:39:00,72.5,49.3,0.00,ESE,112,1.6,2.0,44,0.00,,---,0.00,VWS V14.01,2013-09-08 01:39:00,
2013-09-07 20:40:00,72.8,50.9,0.00,ESE,112,2.7,3.4,46,0.00,,---,0.00,VWS V14.01,2013-09-08 01:40:00,
2013-09-07 20:41:00,73.4,53.6,0.00,SE,135,3.4,3.4,50,0.00,,---,0.00,VWS V14.01,2013-09-08 01:41:00,
2013-09-07 20:42:00,73.5,54.3,0.00,SE,135,3.1,3.6,51,0.00,,---,0.00,VWS V14.01,2013-09-08 01:42:00,
2013-09-07 20:44:00,73.7,54.5,0.00,ESE,112,2.9,4.0,51,0.00,,---,0.00,VWS V14.01,2013-09-08 01:44:00,
2013-09-07 20:45:00,74.1,55.3,0.00,East,90,4.3,4.3,52,0.00,,---,0.00,VWS V14.01,2013-09-08 01:45:00,
2013-09-07 20:46:00,74.1,54.8,0.00,SE,135,0.9,4.3,51,0.00,,---,0.00,VWS V14.01,2013-09-08 01:46:00,
2013-09-07 20:47:00,74.3,54.4,0.00,SE,135,3.4,4.3,50,0.00,,---,0.00,VWS V14.01,2013-09-08 01:47:00,
2013-09-07 20:48:00,74.4,54.6,0.00,SE,135,2.7,4.3,50,0.00,,---,0.00,VWS V14.01,2013-09-08 01:48:00,
2013-09-07 20:49:00,74.4,54.6,0.00,SE,135,3.1,4.3,50,0.00,,---,0.00,VWS V14.01,2013-09-08 01:49:00,
2013-09-07 20:50:00,74.4,54.6,0.00,SE,135,3.1,4.3,50,0.00,,---,0.00,VWS V14.01,2013-09-08 01:50:00,
2013-09-07 20:51:00,74.8,53.2,0.00,South,180,0.9,4.3,47,0.00,,---,0.00,VWS V14.01,2013-09-08 01:51:00,
2013-09-07 20:52:00,74.8,53.2,0.00,ESE,112,0.0,4.3,47,0.00,,---,0.00,VWS V14.01,2013-09-08 01:52:00,
2013-09-07 20:53:00,75.3,54.3,0.00,SE,135,1.6,4.3,48,0.00,,---,0.00,VWS V14.01,2013-09-08 01:53:00,
2013-09-07 20:54:00,75.5,54.5,0.00,ESE,112,1.6,4.3,48,0.00,,---,0.00,VWS V14.01,2013-09-08 01:54:00,
2013-09-07 20:55:00,82.9,18.3,0.00,SE,135,3.6,6.7,9,0.00,,---,0.00,VWS V14.01,2013-09-08 01:55:00,
2013-09-07 20:56:00,76.1,55.0,0.00,SE,135,2.5,4.3,48,0.00,,---,0.00,VWS V14.01,2013-09-08 01:56:00,
2013-09-07 20:57:00,76.1,55.0,0.00,SE,135,2.5,4.3,48,0.00,,---,0.00,VWS V14.01,2013-09-08 01:57:00,
2013-09-07 20:58:00,76.1,55.0,0.00,SE,135,3.4,4.3,48,0.00,,---,0.00,VWS V14.01,2013-09-08 01:58:00,
2013-09-07 20:59:00,76.1,55.0,0.00,SE,135,3.4,4.3,48,0.00,,---,0.00,VWS V14.01,2013-09-08 01:59:00,
2013-09-07 21:00:00,76.8,55.6,0.00,SE,135,2.5,4.3,48,0.00,,---,0.00,VWS V14.01,2013-09-08 02:00:00,
2013-09-07 21:01:00,76.8,55.6,0.00,East,90,3.4,3.4,48,0.00,,---,0.00,VWS V14.01,2013-09-08 02:01:00,
2013-09-07 21:02:00,77.0,55.8,0.00,East,90,3.1,3.4,48,0.00,,---,0.00,VWS V14.01,2013-09-08 02:02:00,
2013-09-07 21:04:00,82.2,33.1,0.00,South,180,2.7,3.4,17,0.00,,---,0.00,VWS V14.01,2013-09-08 02:04:00,
2013-09-07 21:05:00,77.5,56.3,0.00,East,90,1.6,3.4,48,0.00,,---,0.00,VWS V14.01,2013-09-08 02:05:00,
2013-09-07 21:06:00,77.5,56.3,0.00,East,90,2.5,3.4,48,0.00,,---,0.00,VWS V14.01,2013-09-08 02:06:00,
2013-09-07 21:07:00,77.9,56.6,0.00,SE,135,3.8,3.8,48,0.00,,---,0.00,VWS V14.01,2013-09-08 02:07:00,
2013-09-07 21:08:00,77.9,56.6,0.00,ESE,112,2.5,3.8,48,0.00,,---,0.00,VWS V14.01,2013-09-08 02:08:00,
2013-09-07 21:09:00,78.0,56.2,0.00,East,90,2.7,3.8,47,0.00,,---,0.00,VWS V14.01,2013-09-08 02:09:00,
2013-09-07 21:10:00,78.2,56.4,0.00,SE,135,3.4,3.8,47,0.00,,---,0.00,VWS V14.01,2013-09-08 02:10:00,
2013-09-07 21:11:00,78.4,56.5,0.00,ESE,112,0.0,4.3,47,0.00,,---,0.00,VWS V14.01,2013-09-08 02:11:00,
2013-09-07 21:12:00,78.8,56.3,0.00,SE,135,3.6,4.3,46,0.00,,---,0.00,VWS V14.01,2013-09-08 02:12:00,
2013-09-07 21:13:00,78.8,56.3,0.00,SE,135,3.8,4.3,46,0.00,,---,0.00,VWS V14.01,2013-09-08 02:13:00,
2013-09-07 21:14:00,78.8,56.3,0.00,ESE,112,3.1,4.3,46,0.00,,---,0.00,VWS V14.01,2013-09-08 02:14:00,
2013-09-07 21:15:00,78.9,56.4,0.00,SE,135,2.7,2.7,46,0.00,,---,0.00,VWS V14.01,2013-09-08 02:15:00,
2013-09-07 21:16:00,78.9,56.4,0.00,East,90,3.1,3.1,46,0.00,,---,0.00,VWS V14.01,2013-09-08 02:16:00,
2013-09-07 21:17:00,81.1,38.7,0.00,WSW,248,3.4,3.4,22,0.00,,---,0.00,VWS V14.01,2013-09-08 02:17:00,
2013-09-07 21:18:00,79.3,56.1,0.00,SE,135,2.5,3.8,45,0.00,,---,0.00,VWS V14.01,2013-09-08 02:18:00,
2013-09-07 21:19:00,79.5,56.3,0.00,South,180,4.9,4.9,45,0.00,,---,0.00,VWS V14.01,2013-09-08 02:19:00,
2013-09-07 21:20:00,79.8,56.0,0.00,South,180,4.9,4.9,44,0.00,,---,0.00,VWS V14.01,2013-09-08 02:20:00,
2013-09-07 21:21:00,79.8,56.0,0.00,SE,135,3.4,4.9,44,0.00,,---,0.00,VWS V14.01,2013-09-08 02:21:00,
2013-09-07 21:22:00,79.8,56.0,0.00,SSE,158,2.0,4.9,44,0.00,,---,0.00,VWS V14.01,2013-09-08 02:22:00,
2013-09-07 21:23:00,79.8,56.0,0.00,SE,135,4.0,4.9,44,0.00,,---,0.00,VWS V14.01,2013-09-08 02:23:00,
2013-09-07 21:24:00,80.4,55.9,0.00,SE,135,3.4,4.9,43,0.00,,---,0.00,VWS V14.01,2013-09-08 02:24:00,
2013-09-07 21:25:00,80.4,55.9,0.00,SE,135,4.3,4.9,43,0.00,,---,0.00,VWS V14.01,2013-09-08 02:25:00,
2013-09-07 21:26:00,80.7,56.2,0.00,SE,135,4.3,4.9,43,0.00,,---,0.00,VWS V14.01,2013-09-08 02:26:00,
2013-09-07 21:27:00,81.1,56.5,0.00,SE,135,2.7,4.9,43,0.00,,---,0.00,VWS V14.01,2013-09-08 02:27:00,
2013-09-07 21:28:00,81.1,56.5,0.00,SE,135,3.8,4.9,43,0.00,,---,0.00,VWS V14.01,2013-09-08 02:28:00,
2013-09-07 21:29:00,81.3,56.7,0.00,SSE,158,3.1,4.9,43,0.00,,---,0.00,VWS V14.01,2013-09-08 02:29:00,
2013-09-07 21:30:00,81.5,56.2,0.00,SE,135,2.0,4.9,42,0.00,,---,0.00,VWS V14.01,2013-09-08 02:30:00,
2013-09-07 21:31:00,81.6,57.0,0.00,SE,135,2.9,3.8,43,0.00,,---,0.00,VWS V14.01,2013-09-08 02:31:00,
2013-09-07 21:32:00,81.6,57.0,0.00,ESE,112,2.7,3.8,43,0.00,,---,0.00,VWS V14.01,2013-09-08 02:32:00,
2013-09-07 21:33:00,81.6,57.0,0.00,SE,135,3.4,3.8,43,0.00,,---,0.00,VWS V14.01,2013-09-08 02:33:00,
2013-09-07 21:34:00,82.2,56.2,0.00,South,180,3.4,4.0,41,0.00,,---,0.00,VWS V14.01,2013-09-08 02:34:00,
2013-09-07 21:35:00,79.7,41.8,0.00,South,180,3.8,4.9,26,0.00,,---,0.00,VWS V14.01,2013-09-08 02:35:00,
2013-09-07 21:36:00,81.8,55.8,0.00,South,180,3.6,4.9,41,0.00,,---,0.00,VWS V14.01,2013-09-08 02:36:00,
2013-09-07 21:37:00,82.0,56.0,0.00,SE,135,1.3,4.9,41,0.00,,---,0.00,VWS V14.01,2013-09-08 02:37:00,
2013-09-07 21:38:00,82.4,56.3,0.00,SE,135,4.0,4.9,41,0.00,,---,0.00,VWS V14.01,2013-09-08 02:38:00,
2013-09-07 21:39:00,82.4,56.3,0.00,SE,135,3.1,4.9,41,0.00,,---,0.00,VWS V14.01,2013-09-08 02:39:00,
2013-09-07 21:40:00,82.4,56.3,0.00,SE,135,3.4,4.9,41,0.00,,---,0.00,VWS V14.01,2013-09-08 02:40:00,
2013-09-07 21:41:00,83.1,56.3,0.00,SE,135,2.5,4.9,40,0.00,,---,0.00,VWS V14.01,2013-09-08 02:41:00,
2013-09-07 21:42:00,83.4,56.6,0.00,South,180,0.0,4.9,40,0.00,,---,0.00,VWS V14.01,2013-09-08 02:42:00,
2013-09-07 21:43:00,83.4,56.6,0.00,East,90,0.0,4.9,40,0.00,,---,0.00,VWS V14.01,2013-09-08 02:43:00,
2013-09-07 21:44:00,84.0,57.1,0.00,SE,135,0.0,4.9,40,0.00,,---,0.00,VWS V14.01,2013-09-08 02:44:00,
2013-09-07 21:45:00,84.2,56.5,0.00,South,180,2.5,4.9,39,0.00,,---,0.00,VWS V14.01,2013-09-08 02:45:00,
2013-09-07 21:46:00,84.2,56.5,0.00,South,180,3.1,3.1,39,0.00,,---,0.00,VWS V14.01,2013-09-08 02:46:00,
2013-09-07 21:47:00,84.2,56.5,0.00,WSW,248,2.0,3.4,39,0.00,,---,0.00,VWS V14.01,2013-09-08 02:47:00,
2013-09-07 21:48:00,84.5,56.9,0.00,SSE,158,2.9,3.4,39,0.00,,---,0.00,VWS V14.01,2013-09-08 02:48:00,
2013-09-07 21:49:00,84.7,57.0,0.00,SW,225,2.5,3.4,39,0.00,,---,0.00,VWS V14.01,2013-09-08 02:49:00,
2013-09-07 21:50:00,79.3,45.2,0.00,SSW,202,3.6,6.0,30,0.00,,---,0.00,VWS V14.01,2013-09-08 02:50:00,
2013-09-07 21:51:00,85.1,56.6,0.00,SSW,202,2.7,3.4,38,0.00,,---,0.00,VWS V14.01,2013-09-08 02:51:00,
2013-09-07 21:52:00,85.2,56.8,0.00,South,180,3.6,3.6,38,0.00,,---,0.00,VWS V14.01,2013-09-08 02:52:00,
2013-09-07 21:53:00,85.2,56.8,0.00,SW,225,2.9,3.6,38,0.00,,---,0.00,VWS V14.01,2013-09-08 02:53:00,
2013-09-07 21:54:00,85.4,57.0,0.00,NW,315,1.1,3.6,38,0.00,,---,0.00,VWS V14.01,2013-09-08 02:54:00,
2013-09-07 21:56:00,85.8,56.5,0.00,SW,225,2.9,3.6,37,0.00,,---,0.00,VWS V14.01,2013-09-08 02:56:00,
2013-09-07 21:57:00,85.8,56.5,0.00,NW,315,1.6,3.8,37,0.00,,---,0.00,VWS V14.01,2013-09-08 02:57:00,
2013-09-07 21:58:00,86.0,56.7,0.00,West,270,2.0,3.8,37,0.00,,---,0.00,VWS V14.01,2013-09-08 02:58:00,
2013-09-07 21:59:00,86.0,55.9,0.00,West,270,2.9,3.8,36,0.00,,---,0.00,VWS V14.01,2013-09-08 02:59:00,
2013-09-07 22:00:00,86.0,55.9,0.00,NW,315,2.5,3.8,36,0.00,,---,0.00,VWS V14.01,2013-09-08 03:00:00,
2013-09-07 22:01:00,86.3,56.2,0.00,SW,225,0.9,2.5,36,0.00,,---,0.00,VWS V14.01,2013-09-08 03:01:00,
2013-09-07 22:02:00,86.3,56.2,0.00,SW,225,1.6,2.7,36,0.00,,---,0.00,VWS V14.01,2013-09-08 03:02:00,
2013-09-07 22:03:00,86.5,56.4,0.00,SW,225,1.3,2.7,36,0.00,,---,0.00,VWS V14.01,2013-09-08 03:03:00,
2013-09-07 22:04:00,86.5,56.4,0.00,SSE,158,4.0,4.0,36,0.00,,---,0.00,VWS V14.01,2013-09-08 03:04:00,
2013-09-07 22:05:00,86.9,56.7,0.00,SSE,158,4.0,4.0,36,0.00,,---,0.00,VWS V14.01,2013-09-08 03:05:00,
2013-09-07 22:06:00,86.9,55.9,0.00,SW,225,2.9,4.0,35,0.00,,---,0.00,VWS V14.01,2013-09-08 03:06:00,
2013-09-07 22:07:00,86.9,56.7,0.00,West,270,2.2,4.0,36,0.00,,---,0.00,VWS V14.01,2013-09-08 03:07:00,
2013-09-07 22:08:00,86.9,56.7,0.00,West,270,1.3,4.0,36,0.00,,---,0.00,VWS V14.01,2013-09-08 03:08:00,
2013-09-07 22:10:00,87.6,56.6,0.00,South,180,3.1,5.6,35,0.00,,---,0.00,VWS V14.01,2013-09-08 03:10:00,
2013-09-07 22:11:00,87.6,56.6,0.00,SE,135,2.0,5.6,35,0.00,,---,0.00,VWS V14.01,2013-09-08 03:11:00,
2013-09-07 22:12:00,87.9,56.9,0.00,SE,135,2.9,5.6,35,0.00,,---,0.00,VWS V14.01,2013-09-08 03:12:00,
2013-09-07 22:13:00,88.1,57.0,0.00,SE,135,2.0,5.6,35,0.00,,---,0.00,VWS V14.01,2013-09-08 03:13:00,
2013-09-07 22:14:00,88.1,57.0,0.00,SSE,158,2.0,5.6,35,0.00,,---,0.00,VWS V14.01,2013-09-08 03:14:00,
2013-09-07 22:15:00,88.5,56.6,0.00,SSE,158,4.3,5.6,34,0.00,,---,0.00,VWS V14.01,2013-09-08 03:15:00,
2013-09-07 22:16:00,88.5,56.6,0.00,SSE,158,3.1,4.3,34,0.00,,---,0.00,VWS V14.01,2013-09-08 03:16:00,
2013-09-07 22:17:00,88.1,56.2,0.00,SE,135,3.4,5.6,34,0.00,,---,0.00,VWS V14.01,2013-09-08 03:17:00,
2013-09-07 22:18:00,88.1,56.2,0.00,South,180,2.9,5.6,34,0.00,,---,0.00,VWS V14.01,2013-09-08 03:18:00,
2013-09-07 22:19:00,88.1,56.2,0.00,South,180,2.9,5.6,34,0.00,,---,0.00,VWS V14.01,2013-09-08 03:19:00,
2013-09-07 22:20:00,88.5,55.7,0.00,SSE,158,2.7,5.6,33,0.00,,---,0.00,VWS V14.01,2013-09-08 03:20:00,
2013-09-07 22:21:00,88.5,55.7,0.00,South,180,2.5,5.6,33,0.00,,---,0.00,VWS V14.01,2013-09-08 03:21:00,
2013-09-07 22:22:00,88.5,55.7,0.00,WSW,248,2.5,5.6,33,0.00,,---,0.00,VWS V14.01,2013-09-08 03:22:00,
2013-09-07 22:23:00,88.8,56.0,0.00,SE,135,0.0,5.6,33,0.00,,---,0.00,VWS V14.01,2013-09-08 03:23:00,
2013-09-07 22:24:00,89.0,56.2,0.00,SE,135,0.0,5.6,33,0.00,,---,0.00,VWS V14.01,2013-09-08 03:24:00,
2013-09-07 22:25:00,89.6,55.8,0.00,SE,135,0.0,5.6,32,0.00,,---,0.00,VWS V14.01,2013-09-08 03:25:00,
2013-09-07 22:26:00,89.9,56.1,0.00,SSW,202,0.0,5.6,32,0.00,,---,0.00,VWS V14.01,2013-09-08 03:26:00,
2013-09-07 22:28:00,90.3,56.5,0.00,South,180,5.6,5.6,32,0.00,,---,0.00,VWS V14.01,2013-09-08 03:28:00,
2013-09-07 22:29:00,90.1,55.4,0.00,SSW,202,6.3,6.3,31,0.00,,---,0.00,VWS V14.01,2013-09-08 03:29:00,
2013-09-07 22:30:00,89.6,55.0,0.00,SW,225,2.5,6.3,31,0.00,,---,0.00,VWS V14.01,2013-09-08 03:30:00,
2013-09-07 22:31:00,89.7,55.1,0.00,SSE,158,2.5,2.7,31,0.00,,---,0.00,VWS V14.01,2013-09-08 03:31:00,
2013-09-07 22:32:00,89.9,55.3,0.00,South,180,3.6,3.6,31,0.00,,---,0.00,VWS V14.01,2013-09-08 03:32:00,
2013-09-07 22:33:00,90.1,54.5,0.00,West,270,1.6,4.7,30,0.00,,---,0.00,VWS V14.01,2013-09-08 03:33:00,
2013-09-07 22:34:00,90.1,54.5,0.00,West,270,1.6,4.7,30,0.00,,---,0.00,VWS V14.01,2013-09-08 03:34:00,
2013-09-07 22:35:00,90.3,54.7,0.00,South,180,3.6,4.7,30,0.00,,---,0.00,VWS V14.01,2013-09-08 03:35:00,
2013-09-07 22:36:00,90.6,55.0,0.00,SW,225,3.6,4.7,30,0.00,,---,0.00,VWS V14.01,2013-09-08 03:36:00,
2013-09-07 22:37:00,90.6,55.0,0.00,South,180,4.3,4.7,30,0.00,,---,0.00,VWS V14.01,2013-09-08 03:37:00,
2013-09-07 22:38:00,90.6,55.0,0.00,South,180,5.6,5.8,30,0.00,,---,0.00,VWS V14.01,2013-09-08 03:38:00,
2013-09-07 22:39:00,90.6,55.0,0.00,SE,135,4.7,5.8,30,0.00,,---,0.00,VWS V14.01,2013-09-08 03:39:00,
2013-09-07 22:40:00,90.5,54.8,0.00,South,180,3.1,5.8,30,0.00,,---,0.00,VWS V14.01,2013-09-08 03:40:00,
2013-09-07 22:41:00,90.6,55.0,0.00,SW,225,2.5,5.8,30,0.00,,---,0.00,VWS V14.01,2013-09-08 03:41:00,
2013-09-07 22:42:00,90.6,55.0,0.00,West,270,2.0,5.8,30,0.00,,---,0.00,VWS V14.01,2013-09-08 03:42:00,
2013-09-07 22:43:00,91.4,54.7,0.00,WSW,248,2.5,5.8,29,0.00,,---,0.00,VWS V14.01,2013-09-08 03:43:00,
2013-09-07 22:44:00,91.5,54.8,0.00,West,270,1.6,5.8,29,0.00,,---,0.00,VWS V14.01,2013-09-08 03:44:00,
2013-09-07 22:45:00,91.7,55.0,0.00,WSW,248,2.2,5.8,29,0.00,,---,0.00,VWS V14.01,2013-09-08 03:45:00,
2013-09-07 22:46:00,91.9,55.1,0.00,SW,225,2.9,3.6,29,0.00,,---,0.00,VWS V14.01,2013-09-08 03:46:00,
2013-09-07 22:47:00,92.1,55.3,0.00,South,180,2.0,3.6,29,0.00,,---,0.00,VWS V14.01,2013-09-08 03:47:00,
2013-09-07 22:48:00,92.3,55.4,0.00,South,180,3.1,3.6,29,0.00,,---,0.00,VWS V14.01,2013-09-08 03:48:00,
2013-09-07 22:49:00,92.4,55.6,0.00,SSW,202,1.3,3.6,29,0.00,,---,0.00,VWS V14.01,2013-09-08 03:49:00,
2013-09-07 22:50:00,93.0,55.1,0.00,South,180,1.3,3.6,28,0.00,,---,0.00,VWS V14.01,2013-09-08 03:50:00,
2013-09-07 22:51:00,93.2,55.2,0.00,SE,135,2.9,3.6,28,0.00,,---,0.00,VWS V14.01,2013-09-08 03:51:00,
2013-09-07 22:52:00,93.2,55.2,0.00,NW,315,3.1,3.8,28,0.00,,---,0.00,VWS V14.01,2013-09-08 03:52:00,
2013-09-07 22:53:00,93.2,55.2,0.00,NW,315,2.5,3.8,28,0.00,,---,0.00,VWS V14.01,2013-09-08 03:53:00,
2013-09-07 22:54:00,93.2,55.2,0.00,NW,315,0.0,3.8,28,0.00,,---,0.00,VWS V14.01,2013-09-08 03:54:00,
2013-09-07 22:56:00,93.5,55.5,0.00,West,270,3.4,3.8,28,0.00,,---,0.00,VWS V14.01,2013-09-08 03:56:00,
2013-09-07 22:57:00,93.7,55.7,0.00,West,270,2.7,4.3,28,0.00,,---,0.00,VWS V14.01,2013-09-08 03:57:00,
2013-09-07 22:58:00,93.9,55.9,0.00,West,270,2.5,4.3,28,0.00,,---,0.00,VWS V14.01,2013-09-08 03:58:00,
2013-09-07 22:59:00,93.9,55.9,0.00,SW,225,2.5,4.3,28,0.00,,---,0.00,VWS V14.01,2013-09-08 03:59:00,
2013-09-07 23:00:00,93.9,55.9,0.00,SW,225,2.0,4.3,28,0.00,,---,0.00,VWS V14.01,2013-09-08 04:00:00,
2013-09-07 23:02:00,94.1,56.0,0.00,South,180,2.9,4.0,28,0.00,,---,0.00,VWS V14.01,2013-09-08 04:02:00,
2013-09-07 23:03:00,94.1,55.0,0.00,South,180,2.5,4.0,27,0.00,,---,0.00,VWS V14.01,2013-09-08 04:03:00,
2013-09-07 23:04:00,94.1,56.0,0.00,SW,225,3.1,4.0,28,0.00,,---,0.00,VWS V14.01,2013-09-08 04:04:00,
2013-09-07 23:05:00,94.2,56.2,0.00,West,270,1.1,4.0,28,0.00,,---,0.00,VWS V14.01,2013-09-08 04:05:00,
2013-09-07 23:06:00,94.6,55.5,0.00,NW,315,0.9,4.0,27,0.00,,---,0.00,VWS V14.01,2013-09-08 04:06:00,
2013-09-07 23:07:00,95.0,55.8,0.00,West,270,3.1,4.0,27,0.00,,---,0.00,VWS V14.01,2013-09-08 04:07:00,
2013-09-07 23:08:00,95.1,55.9,0.00,NW,315,4.0,4.0,27,0.00,,---,0.00,VWS V14.01,2013-09-08 04:08:00,
2013-09-07 23:09:00,95.1,55.9,0.00,WNW,292,3.6,4.0,27,0.00,,---,0.00,VWS V14.01,2013-09-08 04:09:00,
2013-09-07 23:10:00,95.3,56.1,0.00,West,270,4.3,4.3,27,0.00,,---,0.00,VWS V14.01,2013-09-08 04:10:00,
2013-09-07 23:11:00,79.7,45.5,0.00,SW,225,5.4,7.4,30,0.00,,---,0.00,VWS V14.01,2013-09-08 04:11:00,
2013-09-07 23:12:00,95.1,55.9,0.00,NW,315,3.6,4.3,27,0.00,,---,0.00,VWS V14.01,2013-09-08 04:12:00,
2013-09-07 23:13:00,95.5,56.2,0.00,NW,315,0.0,4.3,27,0.00,,---,0.00,VWS V14.01,2013-09-08 04:13:00,
2013-09-07 23:14:00,95.9,56.5,0.00,North,0,0.0,4.3,27,0.00,,---,0.00,VWS V14.01,2013-09-08 04:14:00,
2013-09-07 23:15:00,96.0,56.7,0.00,SE,135,0.9,4.3,27,0.00,,---,0.00,VWS V14.01,2013-09-08 04:15:00,
2013-09-07 23:16:00,96.4,56.0,0.00,SE,135,5.4,5.4,26,0.00,,---,0.00,VWS V14.01,2013-09-08 04:16:00,
2013-09-07 23:17:00,96.4,56.0,0.00,SE,135,3.8,5.4,26,0.00,,---,0.00,VWS V14.01,2013-09-08 04:17:00,
2013-09-07 23:18:00,96.6,56.1,0.00,SE,135,3.1,5.4,26,0.00,,---,0.00,VWS V14.01,2013-09-08 04:18:00,
2013-09-07 23:19:00,96.8,56.3,0.00,SE,135,3.8,5.4,26,0.00,,---,0.00,VWS V14.01,2013-09-08 04:19:00,
2013-09-07 23:20:00,96.8,56.3,0.00,NE,45,1.1,5.4,26,0.00,,---,0.00,VWS V14.01,2013-09-08 04:20:00,
2013-09-07 23:21:00,97.1,56.6,0.00,NE,45,2.0,5.4,26,0.00,,---,0.00,VWS V14.01,2013-09-08 04:21:00,
2013-09-07 23:22:00,97.5,56.9,0.00,NE,45,0.0,5.4,26,0.00,,---,0.00,VWS V14.01,2013-09-08 04:22:00,
2013-09-07 23:23:00,97.5,56.9,0.00,SW,225,0.9,5.4,26,0.00,,---,0.00,VWS V14.01,2013-09-08 04:23:00,
2013-09-07 23:24:00,97.3,56.7,0.00,SW,225,2.2,5.4,26,0.00,,---,0.00,VWS V14.01,2013-09-08 04:24:00,
2013-09-07 23:25:00,97.3,56.7,0.00,SW,225,1.6,5.4,26,0.00,,---,0.00,VWS V14.01,2013-09-08 04:25:00,
2013-09-07 23:26:00,97.5,56.9,0.00,SW,225,2.5,5.4,26,0.00,,---,0.00,VWS V14.01,2013-09-08 04:26:00,
2013-09-07 23:27:00,97.7,57.0,0.00,South,180,0.9,5.4,26,0.00,,---,0.00,VWS V14.01,2013-09-08 04:27:00,
2013-09-07 23:29:00,97.8,57.2,0.00,SW,225,1.3,5.4,26,0.00,,---,0.00,VWS V14.01,2013-09-08 04:29:00,
2013-09-07 23:30:00,98.7,56.8,0.00,North,0,0.0,0.0,25,0.00,,---,0.00,VWS V14.01,2013-09-08 04:30:00,
2013-09-07 23:31:00,98.9,58.1,0.00,NE,45,3.1,3.1,26,0.00,,---,0.00,VWS V14.01,2013-09-08 04:31:00,
2013-09-07 23:32:00,98.9,58.1,0.00,East,90,3.1,3.1,26,0.00,,---,0.00,VWS V14.01,2013-09-08 04:32:00,
2013-09-07 23:33:00,99.1,56.0,0.00,NNE,22,1.3,4.9,24,0.00,,---,0.00,VWS V14.01,2013-09-08 04:33:00,
2013-09-07 23:34:00,99.3,57.3,0.00,SW,225,3.6,4.9,25,0.00,,---,0.00,VWS V14.01,2013-09-08 04:34:00,
2013-09-07 23:35:00,99.3,55.0,0.00,NW,315,2.7,4.9,23,0.00,,---,0.00,VWS V14.01,2013-09-08 04:35:00,
2013-09-07 23:36:00,99.3,55.0,0.00,South,180,0.0,4.9,23,0.00,,---,0.00,VWS V14.01,2013-09-08 04:36:00,
2013-09-07 23:37:00,99.3,53.8,0.00,SE,135,7.6,7.6,22,0.00,,---,0.00,VWS V14.01,2013-09-08 04:37:00,
2013-09-07 23:39:00,99.3,53.8,0.00,North,0,0.9,7.6,22,0.00,,---,0.00,VWS V14.01,2013-09-08 04:39:00,
2013-09-07 23:40:00,99.5,53.9,0.00,WSW,248,1.1,7.6,22,0.00,,---,0.00,VWS V14.01,2013-09-08 04:40:00,
2013-09-07 23:41:00,99.8,54.2,0.00,SW,225,4.7,7.6,22,0.00,,---,0.00,VWS V14.01,2013-09-08 04:41:00,
2013-09-07 23:42:00,99.8,53.0,0.00,NW,315,1.6,7.6,21,0.00,,---,0.00,VWS V14.01,2013-09-08 04:42:00,
2013-09-07 23:43:00,99.8,54.2,0.00,SSE,158,2.7,7.6,22,0.00,,---,0.00,VWS V14.01,2013-09-08 04:43:00,
2013-09-07 23:44:00,100.4,53.4,0.00,SE,135,3.1,7.6,21,0.00,,---,0.00,VWS V14.01,2013-09-08 04:44:00,
2013-09-07 23:46:00,100.7,53.7,0.00,SE,135,6.9,7.6,21,0.00,,---,0.00,VWS V14.01,2013-09-08 04:46:00,
2013-09-07 23:47:00,100.7,51.0,0.00,East,90,3.4,7.6,19,0.00,,---,0.00,VWS V14.01,2013-09-08 04:47:00,
2013-09-07 23:48:00,100.7,51.0,0.00,West,270,2.9,7.6,19,0.00,,---,0.00,VWS V14.01,2013-09-08 04:48:00,
2013-09-07 23:49:00,100.7,52.4,0.00,SSW,202,6.5,7.6,20,0.00,,---,0.00,VWS V14.01,2013-09-08 04:49:00,
2013-09-07 23:50:00,100.7,52.4,0.00,SW,225,5.6,7.6,20,0.00,,---,0.00,VWS V14.01,2013-09-08 04:50:00,
2013-09-07 23:51:00,99.1,49.7,0.00,South,180,8.5,8.5,19,0.00,,---,0.00,VWS V14.01,2013-09-08 04:51:00,
2013-09-07 23:52:00,99.3,49.8,0.00,South,180,5.8,9.8,19,0.00,,---,0.00,VWS V14.01,2013-09-08 04:52:00,
2013-09-07 23:53:00,99.3,49.8,0.00,South,180,7.4,9.8,19,0.00,,---,0.00,VWS V14.01,2013-09-08 04:53:00,
2013-09-07 23:54:00,99.3,49.8,0.00,South,180,7.4,9.8,19,0.00,,---,0.00,VWS V14.01,2013-09-08 04:54:00,
2013-09-07 23:55:00,99.1,48.2,0.00,South,180,10.3,11.0,18,0.00,,---,0.00,VWS V14.01,2013-09-08 04:55:00,
2013-09-07 23:56:00,98.6,46.3,0.00,South,180,13.2,15.2,17,0.00,,---,0.00,VWS V14.01,2013-09-08 04:56:00,
2013-09-07 23:57:00,98.6,46.3,0.00,SE,135,8.7,15.2,17,0.00,,---,0.00,VWS V14.01,2013-09-08 04:57:00,
2013-09-07 23:58:00,99.1,46.7,0.00,South,180,10.1,15.2,17,0.00,,---,0.00,VWS V14.01,2013-09-08 04:58:00,
2013-09-07 23:59:00,99.1,46.7,0.00,SW,225,11.0,15.2,17,0.00,,---,0.00,VWS V14.01,2013-09-08 04:59:00,